[[{"header":{"parameterUnit":"m.s-1","parameterCategory":1,"la1":30.6,"la2":29.2853,"lo1":-89.7004,"lo2":-87.6739,"dy":0.0162,"dx":0.0183,"nx":112,"ny":82,"refTime":"2024-07-29T06:00:00:Z","depth":0,"parameterNumber":2,"parameterNumberName":"U-component_of_WINDS"},"data":[0.0,0.0,0.0,0.0,0.0,0.0,0.0,0.0,0.0,0.0,0.0,0.0,0.0,0.0,0.0,0.0,0.0,0.0,0.0,0.0,0.0,0.0,0.0,0.0,0.0,0.0,0.0,0.0,0.0,0.0,0.0,0.0,0.0,0.0,0.0,0.0,0.0,0.0,0.0,0.0,0.0,0.0,0.0,0.0,0.0,0.0,0.0,0.0,0.0,0.0,0.0,0.0,0.0,0.0,0.0,0.0,0.0,0.0,0.0,0.0,0.0,0.0,0.0,0.0,0.0,0.0,0.0,0.0,0.0,0.0,0.0,0.0,0.0,0.0,0.0,0.0,0.0,0.0,0.0,0.0,0.0,0.0,0.0,0.0,0.0,0.0,0.0,0.0,0.0,0.0,1.0001,1.1103,1.2217,1.2881,1.2881,1.2881,1.2139,1.0391,0.0,0.0,0.0,0.0,0.0,0.0,0.0,0.0,0.0,0.0,0.0,0.0,0.0,0.0,0.0,0.0,0.0,0.0,0.0,0.0,0.0,0.0,0.0,0.0,0.0,0.0,0.0,0.0,0.0,0.0,0.0,0.0,0.0,0.0,0.0,0.0,0.0,0.0,0.0,0.0,0.0,0.0,0.0,0.0,0.0,0.0,0.0,0.0,0.0,0.0,0.0,0.0,0.0,0.0,0.0,0.0,0.0,0.0,0.0,0.0,0.0,0.0,0.0,0.0,0.0,0.0,0.0,0.0,0.0,0.0,0.0,0.0,0.0,0.0,0.0,0.0,0.0,0.0,0.0,0.0,0.0,0.0,0.0,0.0,0.0,0.0,0.0,0.0,0.0,0.0,0.0,0.0,0.0,0.0,0.0,0.0,0.0,0.0,0.0,0.0,0.0,0.0,0.0,0.0,1.0351,1.2373,1.2764,1.2881,1.2881,1.2881,1.2139,1.0391,0.0,0.0,0.0,0.0,0.0,0.0,0.0,0.0,0.0,0.0,0.0,0.0,0.0,0.0,0.0,0.0,0.0,0.0,0.0,0.0,0.0,0.0,0.0,0.0,0.0,0.0,0.0,0.0,0.0,0.0,0.0,0.0,0.0,0.0,0.0,0.0,0.0,0.0,0.0,0.0,0.0,0.0,0.0,0.0,0.0,0.0,0.0,0.0,0.0,0.0,0.0,0.0,0.0,0.0,0.0,0.0,0.0,0.0,0.0,0.0,0.0,0.0,0.0,0.0,0.0,0.0,0.0,0.0,0.0,0.0,0.0,0.0,0.0,0.0,0.0,0.0,0.0,0.0,0.0,0.0,0.0,0.0,0.0,0.0,0.0,0.0,0.0,0.0,0.0,0.0,0.0,0.0,0.0,0.0,0.0,0.0,0.0,0.0,0.0,0.0,0.0,0.0,0.0,0.999,1.0977,1.2695,1.2881,1.2881,1.2881,1.2881,1.2139,1.0391,0.9482,0.0,0.0,0.0,0.0,0.0,0.0,0.0,0.0,0.0,0.0,0.0,0.0,0.0,0.0,0.0,0.0,0.0,0.0,0.0,0.0,0.0,0.0,0.0,0.0,0.0,0.0,0.0,0.0,0.0,0.0,0.0,0.0,0.0,0.0,0.0,0.0,0.0,0.0,0.0,0.0,0.0,0.0,0.0,0.0,0.0,0.0,0.0,0.0,0.0,0.0,0.0,0.0,0.0,0.0,0.0,0.0,0.0,0.0,0.0,0.0,0.0,0.0,0.0,0.0,0.0,0.0,0.0,0.0,0.0,0.0,0.0,0.0,0.0,0.0,0.0,0.0,0.0,0.0,0.0,0.0,0.0,0.0,0.0,0.0,0.0,0.0,0.0,0.0,0.0,0.0,0.0,0.0,0.0,0.0,0.0,0.0,0.0,0.0,0.0,0.0,0.0,0.0,1.124,1.165,1.2764,1.2881,1.2881,1.2881,1.2695,1.1914,1.0381,0.9287,0.0,0.0,0.0,0.0,0.0,0.0,0.0,0.0,0.0,0.0,0.0,0.0,0.0,0.0,0.0,0.0,0.0,0.0,0.0,0.0,0.0,0.0,0.0,0.0,0.0,0.0,0.0,0.0,0.0,0.0,0.0,0.0,0.0,0.0,0.0,0.0,0.0,0.0,0.0,0.0,0.0,0.0,0.0,0.0,0.0,0.0,0.0,0.0,0.0,0.0,0.0,0.0,0.0,0.0,0.0,0.0,0.0,0.0,0.0,0.0,0.0,0.0,0.0,0.0,0.0,0.0,0.0,0.0,0.0,0.0,0.0,0.0,0.0,0.0,0.0,0.0,0.0,0.0,0.0,0.0,0.0,0.0,0.0,0.0,0.0,0.0,0.0,0.0,0.0,0.0,0.0,0.0,0.0,0.0,0.0,0.0,0.0,0.0,0.0,0.0,0.0,0.0,1.1406,1.2324,1.2832,1.2881,1.2881,1.2881,1.2175,1.1302,1.0342,0.873,0.0,0.0,0.0,0.0,0.0,0.0,0.0,0.0,0.0,0.0,0.0,0.0,0.0,0.0,0.0,0.0,0.0,0.0,0.0,0.0,0.0,0.0,0.0,0.0,0.0,0.0,0.0,0.0,0.0,0.0,0.0,0.0,0.0,0.0,0.0,0.0,0.0,0.0,0.0,0.0,0.0,0.0,0.0,0.0,0.0,0.0,0.0,0.0,0.0,0.0,0.0,0.0,0.0,0.0,0.0,0.0,0.0,0.0,0.0,0.0,0.0,0.0,0.0,0.0,0.0,0.0,0.0,0.0,0.0,0.0,0.0,0.0,0.0,0.0,0.0,0.0,0.0,0.0,0.0,0.0,0.0,0.0,0.0,0.0,0.0,0.0,0.0,0.0,0.0,0.0,0.0,0.0,0.0,0.0,0.0,0.0,0.0,0.0,0.0,0.0,0.0,0.0,1.1172,1.209,0.0,1.2881,1.2881,1.2881,1.2578,1.1822,1.041,0.0,0.0,0.0,0.0,0.0,0.0,0.0,0.0,0.0,0.0,0.0,0.0,0.0,0.0,0.0,0.0,0.0,0.0,0.0,0.0,0.0,0.0,0.0,0.0,0.0,0.0,0.0,0.0,0.0,0.0,0.0,0.0,0.0,0.0,0.0,0.0,0.0,0.0,0.0,0.0,0.0,0.0,0.0,0.0,0.0,0.0,0.0,0.0,0.0,0.0,0.0,0.0,0.0,0.0,0.0,0.0,0.0,0.0,0.0,0.0,0.0,0.0,0.0,0.0,0.0,0.0,0.0,0.0,0.0,0.0,0.0,0.0,0.0,0.0,0.0,0.0,0.0,0.0,0.0,0.0,0.0,0.0,0.0,0.0,0.0,0.0,0.0,0.0,0.0,0.0,0.0,0.0,0.0,0.0,0.0,0.0,0.0,0.0,0.0,0.0,0.0,0.0,1.0098,1.1312,1.2253,0.0,1.2881,1.2881,1.2881,1.25,1.1689,1.0361,0.0,0.0,0.0,0.0,0.0,0.0,0.0,0.0,0.0,0.0,0.0,0.0,0.0,0.0,0.0,0.0,0.0,0.0,0.0,0.0,0.0,0.0,0.0,0.0,0.0,0.0,0.0,0.0,0.0,0.0,0.0,0.0,0.0,0.0,0.0,0.0,0.0,0.0,0.0,0.0,0.0,0.0,0.0,0.0,0.0,0.0,0.0,0.0,0.0,0.0,0.0,0.0,0.0,0.0,0.0,0.0,0.0,0.0,0.0,0.0,0.0,0.0,0.0,0.0,0.0,0.0,0.0,0.0,0.0,0.0,0.0,0.0,0.0,0.0,0.0,0.0,0.0,0.0,0.0,0.0,0.0,0.0,0.0,0.0,0.0,0.0,0.0,0.0,0.0,0.0,0.0,0.0,0.0,0.0,0.0,0.0,0.0,0.0,0.0,0.0,0.0,0.0,1.0176,1.1797,1.2881,1.2881,1.2881,1.2881,1.2881,1.168,1.0742,0.0,0.0,0.0,0.0,0.0,0.0,0.0,0.0,0.0,0.0,0.0,0.0,0.0,0.0,0.0,0.0,0.0,0.0,0.0,0.0,0.0,0.0,0.0,0.0,0.0,0.0,0.0,0.0,0.0,0.0,0.0,0.0,0.0,0.0,0.0,0.0,0.0,0.0,0.0,0.0,0.0,0.0,0.0,0.0,0.0,0.0,0.0,0.0,0.0,0.0,0.0,0.0,0.0,0.0,0.0,0.0,0.0,0.0,0.0,0.0,0.0,0.0,0.0,0.0,0.0,0.0,0.0,0.0,0.0,0.0,0.0,0.0,0.0,0.0,0.0,0.0,0.0,0.0,0.0,0.0,0.0,0.0,0.0,0.0,0.0,0.0,0.0,0.0,0.0,0.0,0.0,0.0,0.0,0.0,0.0,0.0,0.0,0.0,0.0,0.0,0.0,0.0,0.0,1.0176,1.1797,1.2881,1.2881,1.2881,1.2881,1.2881,1.2246,1.1396,1.0352,0.0,0.0,0.0,0.0,0.0,0.0,0.0,0.0,0.0,0.0,0.0,0.0,0.0,0.0,0.0,0.0,0.0,0.0,0.0,0.0,0.0,0.0,0.0,0.0,0.0,0.0,0.0,0.0,0.0,0.0,0.0,0.0,0.0,0.0,0.0,0.0,0.0,0.0,0.0,0.0,0.0,0.0,0.0,0.0,0.0,0.0,0.0,0.0,0.0,0.0,0.0,0.0,0.0,0.0,0.0,0.0,0.0,0.0,0.0,0.0,0.0,0.0,0.0,0.0,0.0,0.0,0.0,0.0,0.0,0.0,0.0,0.0,0.0,0.0,0.0,0.0,0.0,0.0,0.0,0.0,0.0,0.0,0.0,0.0,0.0,0.0,0.0,0.0,0.0,0.0,0.0,0.0,0.0,0.0,0.0,0.0,0.0,0.0,0.0,0.0,0.0,0.0,1.0176,1.1797,1.2881,1.2881,1.2881,1.2881,1.2881,1.248,1.1738,1.0605,0.0,0.0,0.0,0.0,0.0,0.0,0.0,0.0,0.0,0.0,0.0,0.0,0.0,0.0,0.0,0.0,0.0,0.0,0.0,0.0,0.0,0.0,0.0,0.0,0.0,0.0,0.0,0.0,0.0,0.0,0.0,0.0,0.0,0.0,0.0,0.0,0.0,0.0,0.0,0.0,0.0,0.0,0.0,0.0,0.0,0.0,0.0,0.0,0.0,0.0,0.0,0.0,0.0,0.0,0.0,0.0,0.0,0.0,0.0,0.0,0.0,0.0,0.0,0.0,0.0,0.0,0.0,0.0,0.0,0.0,0.0,0.0,0.0,0.0,0.0,0.0,0.0,0.0,0.0,0.0,0.0,0.0,0.0,0.0,0.0,0.0,0.0,0.0,0.0,0.0,0.0,0.0,0.0,0.0,0.0,0.0,0.0,0.0,0.0,0.0,0.0,0.0,1.0176,1.1797,1.2881,1.2881,1.2881,1.2881,1.2881,1.248,1.1855,1.0967,0.0,0.0,0.0,0.0,0.0,0.0,0.0,0.0,0.0,0.0,0.0,0.0,0.0,0.0,0.0,0.0,0.0,0.0,0.0,0.0,0.0,0.0,0.0,0.0,0.0,0.0,0.0,0.0,0.0,0.0,0.0,0.0,0.0,0.0,0.0,0.0,0.0,0.0,0.0,0.0,0.0,0.0,0.0,0.0,0.0,0.0,0.0,0.0,0.0,0.0,0.0,0.0,0.0,0.0,0.0,0.0,0.0,0.0,0.0,0.0,1.0371,0.9893,0.0,0.0,0.0,0.0,0.0,0.0,0.0,0.0,0.0,0.0,0.0,0.0,0.0,0.0,0.0,0.0,0.0,0.0,0.0,0.0,0.0,0.0,0.0,0.0,0.0,0.0,0.0,0.0,0.0,0.0,0.0,0.0,0.0,0.0,0.0,0.0,0.0,0.0,0.0,0.0,1.0176,1.1797,1.2881,1.2881,1.2881,1.2881,1.2881,1.248,1.1855,1.0967,0.9629,0.0,0.0,0.0,0.0,0.0,0.0,0.0,0.0,0.0,0.0,0.0,0.0,0.0,0.0,0.0,0.0,0.0,0.0,0.0,0.0,0.0,0.0,0.0,0.0,0.0,0.0,0.0,0.0,0.0,0.0,0.0,0.0,0.0,0.0,0.0,0.0,0.0,0.0,0.0,0.0,0.0,0.0,0.0,0.0,0.0,0.0,0.0,0.0,0.0,0.0,0.0,0.0,0.0,0.0,0.0,0.0,0.0,0.0,0.0,1.1973,1.1338,0.0,0.0,0.0,0.0,0.0,0.0,0.0,0.0,0.0,0.0,0.0,0.0,0.0,0.0,0.0,0.0,0.0,0.0,0.0,0.0,0.0,0.0,0.0,0.0,0.0,0.0,0.0,0.0,0.0,0.0,0.0,0.0,0.0,0.0,0.0,0.0,0.0,0.0,0.0,0.0,1.0478,1.1924,1.2881,1.2881,1.2881,1.2881,1.2881,1.2676,1.2256,1.1592,1.0518,0.0,0.0,0.0,0.0,0.0,0.0,0.0,0.0,0.0,0.0,0.0,0.0,0.0,0.0,0.0,0.0,0.0,0.0,0.0,0.0,0.0,0.0,0.0,0.0,0.0,0.0,0.0,0.0,0.0,0.0,0.0,0.0,0.0,0.0,0.0,0.0,0.0,0.0,0.0,0.0,0.0,0.0,0.0,0.0,0.0,0.0,0.0,0.0,0.0,0.0,0.0,0.0,0.0,1.4336,1.4736,1.4768,1.5186,1.5352,1.5264,1.3769,1.3164,1.3154,1.239,0.0,0.0,0.0,0.0,0.0,0.0,0.0,0.0,0.0,0.0,0.0,0.0,0.0,0.0,0.0,0.0,0.0,0.0,0.0,0.0,0.0,0.0,1.2521,1.2521,1.3105,1.3027,1.0838,0.0,0.0,0.0,0.0,0.0,0.0,0.0,0.0,0.0,0.0,0.0,1.0908,1.2109,1.2881,1.2881,1.2881,1.2881,1.2881,1.2881,1.2695,1.2209,1.1465,1.0674,0.0,0.0,0.0,0.0,0.0,0.0,0.0,0.0,0.0,0.0,0.0,0.0,0.0,0.0,0.0,0.0,0.0,0.0,0.0,0.0,0.0,0.0,0.0,0.0,0.0,0.0,0.0,0.0,0.0,0.0,0.0,0.0,0.8141,0.9637,0.0,0.0,0.0,0.0,0.0,0.0,0.0,0.0,0.0,0.0,0.0,0.0,0.0,1.3811,1.4291,1.5215,1.584,1.623,1.6719,1.7148,1.75,1.7559,1.7588,1.7549,1.6963,0.0,1.4492,1.3994,0.0,0.0,0.0,0.0,0.0,0.0,0.0,0.0,0.0,0.0,0.0,0.0,0.0,0.0,0.0,0.0,0.0,0.0,0.0,0.0,0.0,0.0,1.3824,1.3824,1.3912,1.3902,1.3562,1.2363,1.0928,0.9592,0.934,0.9077,0.0,0.0,0.0,0.0,0.0,0.0,1.141,1.2295,1.2881,1.2881,1.2881,1.2881,1.2881,1.2881,1.2695,1.2209,1.1748,1.125,1.0762,0.957,0.0,0.0,0.0,0.0,0.0,0.0,0.0,0.0,0.0,0.0,0.0,0.0,0.0,0.0,0.0,0.0,0.0,0.0,0.0,0.0,0.0,0.0,0.0,0.0,0.0,0.0,0.0,0.0,0.0,0.8413,0.981,1.0245,1.039,1.0374,0.0,0.0,0.0,0.0,0.0,0.0,0.0,0.0,0.0,1.5019,1.5635,1.6162,1.6592,1.7207,1.7607,1.7735,1.8242,1.8545,1.873,1.873,1.873,1.8721,1.8535,1.7881,1.6865,1.5703,1.4609,1.3643,0.0,0.0,0.0,0.0,1.3203,1.3498,1.3978,1.4145,1.4067,1.3586,0.0,0.0,0.0,0.0,0.0,0.0,0.0,1.2998,1.3192,1.3896,1.4502,1.4502,1.4678,1.4785,1.4551,1.3906,1.292,1.1387,1.0889,1.0361,0.9268,0.9287,0.0,0.0,0.0,1.1273,1.1855,1.249,1.2881,1.2881,1.2881,1.2881,1.2881,1.2881,1.2803,1.2607,1.2412,1.2109,1.167,1.0869,1.001,0.0,0.0,0.0,0.0,0.0,0.0,0.0,0.0,0.0,0.0,0.0,0.0,0.0,0.0,0.0,0.0,0.0,0.0,0.0,0.0,0.0,0.0,0.0,0.0,0.0,0.0,0.0,0.0,0.9868,1.1068,1.0988,1.1705,1.2051,0.0,0.0,0.0,0.0,0.0,0.0,1.4856,1.5566,1.6318,1.7132,1.7539,1.791,1.834,1.8652,1.8857,1.8965,1.9297,1.9512,1.9609,1.9609,1.9609,1.9609,1.9492,1.9268,1.8848,1.7344,1.6221,1.5449,1.5449,1.5107,1.4687,1.5117,1.5215,1.5225,1.5967,1.6223,1.6037,1.5449,1.499,1.4453,1.3496,0.0,0.0,0.0,0.0,1.4228,1.4541,1.4951,1.5283,1.5283,1.543,1.5488,1.5176,1.4941,1.4375,1.2939,1.2441,1.1846,1.0664,1.0732,0.0,1.0989,1.1439,1.1934,1.249,1.2744,1.2881,1.2881,1.2881,1.2881,1.2881,1.2881,1.2881,1.2881,1.2881,1.2734,1.2412,1.1973,1.123,1.0146,0.0,0.0,0.0,0.0,0.0,0.0,0.0,0.0,0.0,0.0,0.0,0.0,0.0,0.0,0.0,0.0,0.0,0.0,0.0,0.0,0.0,0.0,0.0,0.0,0.0,0.0,0.0,0.0,0.0,1.2686,1.3506,0.0,0.0,0.0,0.0,1.5156,1.5254,1.585,1.7148,1.7266,1.7676,1.8446,1.8564,1.8779,1.9219,1.9248,1.9453,1.9853,1.9873,2.0098,2.0498,2.0498,2.0498,2.0478,2.0059,1.9873,1.9775,1.8877,1.8008,1.7256,1.7256,1.6728,1.6016,1.6465,1.6367,1.6125,1.6533,1.6416,1.6184,1.6504,1.6328,1.6017,1.5949,1.5576,0.0,0.0,1.5596,1.5998,1.6017,1.6299,1.6568,1.6568,1.6328,1.6086,1.6066,1.5361,1.4639,1.4141,1.397,1.373,1.2871,0.0,1.2754,1.2754,1.2432,1.25,1.334,1.3115,1.2881,1.2881,1.2881,1.2881,1.2881,1.2881,1.2881,1.2881,1.2881,1.2871,1.2852,1.2432,1.1963,1.1518,1.0215,0.0,0.0,0.0,0.0,0.0,0.0,0.0,0.0,0.0,0.0,0.0,0.0,0.0,0.0,0.0,0.0,0.0,0.0,0.0,0.0,0.0,0.0,0.0,0.0,0.0,0.0,0.0,0.0,1.4033,1.5107,0.0,1.5195,1.5801,1.6348,1.666,1.7187,1.7695,1.8164,1.8711,1.915,1.9453,1.9736,2.0088,2.0537,2.0537,2.0762,2.1182,2.0898,2.085,2.0986,2.0703,2.0566,2.0557,2.04,2.0332,2.0312,2.0,1.9375,1.8603,1.8603,1.8418,1.8154,1.832,1.8271,1.8154,1.832,1.8271,1.8076,1.7686,1.707,1.6494,1.6494,1.6387,1.6318,1.6602,1.6592,1.6562,1.6846,1.6826,1.6665,1.6665,1.6611,1.6494,1.6494,1.6025,1.5566,1.54,1.4697,1.3955,1.3379,1.3506,1.3594,1.333,1.3379,1.3513,1.3877,1.3779,1.3584,1.3311,1.3281,1.3174,1.29,1.2881,1.2881,1.2881,1.2881,1.2881,1.2881,1.2734,1.2441,1.2002,1.125,1.0107,0.0,0.0,0.0,0.0,0.0,0.0,0.0,0.0,0.0,0.0,0.0,0.0,0.0,0.0,0.0,0.0,0.0,0.0,0.0,0.0,0.0,0.0,0.0,0.0,0.0,1.3887,1.4893,1.5176,1.6494,1.7207,1.6758,1.751,1.8086,1.8232,1.8887,1.9355,1.9502,2.0185,2.0576,2.0576,2.0859,2.1152,2.1455,2.1455,2.1602,2.1885,2.1592,2.1455,2.1445,2.1143,2.1016,2.1016,2.1016,2.1016,2.1016,2.1016,2.0586,1.9932,1.9775,1.9629,1.9502,1.9502,1.9404,1.9287,1.9287,1.9287,1.9189,1.8623,1.8057,1.7598,1.7598,1.7598,1.7627,1.7764,1.7598,1.7412,1.7559,1.7383,1.7158,1.7158,1.7051,1.6953,1.6953,1.6602,1.6289,1.6289,1.5352,1.4434,1.4014,1.417,1.4258,1.3984,1.4053,1.4136,1.4336,1.4228,1.397,1.375,1.3594,1.3389,1.3115,1.2959,1.2881,1.2881,1.2881,1.2881,1.2881,1.2744,1.2529,1.219,1.1504,1.0576,0.9434,0.0,0.0,0.0,0.0,0.0,0.0,0.0,0.0,0.0,0.0,0.0,0.0,0.0,0.0,0.0,0.0,0.0,0.0,0.0,0.0,0.0,0.0,0.0,1.3672,1.5059,1.6184,1.6204,1.7646,1.8525,1.8125,1.8857,1.9521,1.9941,2.0371,2.0791,2.123,2.165,2.1885,2.1885,2.1885,2.1894,2.1904,2.1904,2.1914,2.1924,2.1914,2.1904,2.1904,2.1894,2.1885,2.1885,2.1885,2.1885,2.1885,2.1885,2.1641,2.1211,2.0762,2.0322,1.9932,1.9932,1.9678,1.9326,1.9326,1.9316,1.9307,1.9307,1.9297,1.9287,1.9287,1.9287,1.9199,1.8779,1.8582,1.8545,1.8135,1.8018,1.8008,1.8008,1.7695,1.7402,1.7402,1.7061,1.6748,1.6748,1.6045,1.5322,1.4902,1.4824,1.4824,1.4805,1.4443,0.0,1.4746,1.4434,1.4116,1.4107,1.3789,1.3535,1.3506,1.3135,1.2891,1.2881,1.2881,1.2881,1.2881,1.2471,1.22,1.22,1.0977,1.0312,1.0303,0.0,0.0,0.0,0.0,0.0,0.0,0.0,0.0,0.0,0.0,0.0,0.0,0.0,0.0,0.0,0.0,0.0,0.0,0.0,0.0,0.0,1.5234,1.6338,1.5908,1.6787,1.7588,1.7891,1.8896,1.9639,1.9844,2.0371,2.0879,2.1309,2.1455,2.1572,2.1699,2.1816,2.1885,2.1885,2.1885,2.2031,2.2334,2.2344,2.249,2.2793,2.248,2.2344,2.2334,2.2021,2.1885,2.1885,2.1885,2.1885,2.1885,2.1885,2.1816,2.166,2.1221,2.0781,2.0391,2.0391,2.0312,2.0215,2.0215,2.001,1.9746,1.9746,1.9541,1.9287,1.9287,1.9287,1.9268,1.9141,1.8877,1.8533,1.8496,1.8242,1.8008,1.8008,1.793,1.7842,1.7842,1.75,1.7207,1.7207,1.6748,1.623,1.5791,1.5713,1.5605,1.5293,1.5137,1.5107,1.5225,1.5137,1.4941,1.4639,1.4502,1.418,1.3555,1.3398,1.3203,1.29,1.2881,1.2881,1.2881,1.2773,1.2705,1.2705,1.1763,1.1096,0.0,0.0,0.0,0.0,0.0,0.0,0.0,0.0,0.0,0.0,0.0,0.0,0.0,0.0,0.0,0.0,0.0,0.0,0.0,0.0,0.0,0.0,1.6885,1.8154,1.8076,1.8496,1.8965,1.9394,2.0049,2.0635,2.1074,2.1357,2.1611,2.1865,2.2051,2.2148,2.2148,2.2314,2.2412,2.2412,2.2412,2.2529,2.2773,2.2773,2.29,2.3135,2.2891,2.2773,2.2764,2.2519,2.2412,2.2412,2.2412,2.2412,2.2412,2.2412,2.2305,2.2109,0.0,0.0,0.0,0.0,2.0566,2.0566,2.0566,2.04,2.0185,2.0185,2.0019,1.9824,1.9824,1.9824,1.9785,1.96,1.9365,1.9131,1.8955,1.8594,1.8271,1.8271,1.8135,1.8008,1.8008,1.7822,1.7646,1.7646,1.7441,0.0,1.6689,1.637,1.6037,1.5723,1.5527,1.541,1.541,1.541,1.5322,1.5078,1.4893,1.458,1.4082,1.3721,0.0,0.0,0.0,1.2803,1.2617,1.2607,0.0,0.0,0.0,0.0,0.0,1.123,0.0,0.0,1.0614,1.0094,0.0,0.0,0.0,0.0,0.0,0.0,0.0,0.0,0.0,0.0,0.0,0.0,0.0,0.0,0.0,0.0,1.835,1.958,2.0,2.0107,2.0264,2.0596,2.1035,2.1475,2.1914,2.1953,2.1982,2.2021,2.2373,2.2578,2.2578,2.2939,0.0,0.0,0.0,2.3135,2.3135,2.3135,2.3135,2.3135,2.3135,2.3135,2.3135,2.3135,2.3135,2.3135,2.3135,2.3135,2.3135,2.3135,2.292,2.2539,2.207,2.165,2.126,2.081,2.0644,2.0635,2.0586,0.0,0.0,2.0566,2.0566,2.0566,2.0566,2.0566,2.0478,2.0098,1.9951,1.9824,1.9453,1.9043,1.8711,1.8711,1.8389,1.8076,1.8076,1.8047,1.8008,1.8008,1.8008,1.7891,1.7519,1.6768,1.6243,1.6135,1.5732,1.5469,1.542,1.541,1.541,1.541,1.5078,0.0,1.4785,1.4092,1.3633,1.3584,1.3184,1.2773,1.2346,1.2278,1.2305,1.2305,1.2307,1.2568,1.2949,1.2998,1.3213,1.3525,1.112,1.0492,0.0,0.0,0.0,0.0,0.0,0.0,0.0,0.0,0.0,0.0,0.0,0.0,0.0,0.0,0.0,1.8105,1.9424,2.0469,2.0918,2.1279,2.1406,2.1133,2.1494,2.1924,2.2353,2.2393,2.2529,2.2871,2.2969,2.3018,2.3018,2.3096,2.3135,2.3135,2.3135,2.3135,2.3135,2.3135,2.3135,2.3135,2.3135,0.0,2.3135,2.3135,2.3135,2.3135,2.3135,2.3135,2.3135,2.3135,2.3096,2.2939,2.2178,2.1836,2.1709,2.1269,2.1103,2.1055,2.0693,2.0566,2.0566,2.0566,2.0566,2.0566,2.0566,2.0566,0.0,2.0469,2.0185,1.9893,1.9814,1.9482,1.916,1.916,1.8828,1.8446,1.8446,1.8252,1.8008,1.8008,1.8008,1.7978,1.79,1.7471,1.6885,1.6233,1.5986,1.5811,1.5459,1.541,1.541,1.541,1.5342,1.5156,1.4814,1.4639,1.4385,1.4033,1.3623,1.335,1.3262,1.293,1.2754,1.2754,1.3086,1.3301,1.3389,1.3721,1.3936,1.3941,1.3154,1.2672,0.0,0.0,0.0,0.0,0.0,0.0,0.0,0.0,0.0,0.0,0.0,1.5702,1.6826,0.0,1.8691,1.9766,2.0664,2.1309,2.1523,2.1934,2.2119,2.1894,2.207,2.2363,2.2783,2.2822,2.291,2.3125,2.3135,2.3135,2.3135,2.3135,2.3135,2.3135,2.3135,2.3135,2.3135,2.3135,2.3135,2.3135,2.3135,2.3135,2.3135,2.3135,2.3135,2.3135,2.3135,2.3135,2.3135,2.3135,2.3135,2.3096,2.2676,2.2383,2.2148,2.1719,2.1562,2.1494,2.1055,2.0898,2.0859,2.0635,2.0566,2.0566,2.0566,2.0566,2.0566,2.0566,2.041,2.0244,2.0244,1.9922,1.96,1.96,1.9277,1.8906,1.8682,1.8467,1.8262,1.8047,1.8008,1.8008,1.8008,1.7832,1.7471,1.6826,1.6543,1.624,1.5791,1.5732,1.5654,1.5439,1.505,1.473,1.4524,1.4326,1.4147,1.4107,1.3936,1.3818,1.3818,1.3623,1.3506,1.3506,1.3711,1.3818,1.3818,1.398,1.4248,1.4453,1.4238,1.3911,0.0,0.0,0.0,0.0,0.0,0.0,0.0,0.0,1.4667,1.5979,1.6855,1.7715,1.8844,1.9424,2.0039,2.1172,2.1728,2.2012,2.2012,2.2373,2.2637,2.2637,2.2637,2.2764,2.3105,2.3135,2.3135,2.3135,2.3135,2.3135,2.3135,2.3135,2.3135,2.3135,2.3135,2.3135,2.3135,2.3135,2.3135,2.3135,2.3135,2.3135,2.3135,2.3135,2.3135,2.3135,2.3135,2.3135,2.3135,2.3135,2.3135,2.3135,2.3135,2.293,2.2578,2.2168,2.2012,2.1943,2.1514,2.1357,2.1289,2.084,2.0693,2.0674,2.0596,2.0566,2.0566,2.0566,2.0566,2.0566,2.0566,2.0303,2.0039,2.0039,1.9717,1.9316,1.8965,1.875,1.8535,1.8193,1.8066,1.8008,1.8008,1.8008,1.7871,1.7451,1.708,1.6699,1.625,1.6184,1.5928,1.533,1.4616,1.4145,1.3965,1.3808,1.3837,1.4122,1.4198,1.4258,1.4258,1.4126,1.4077,1.4077,1.4165,1.4258,1.4258,1.4291,1.4561,1.4902,1.4902,1.4685,0.823,0.8969,1.0162,1.1972,1.2541,1.3499,0.0,0.0,1.7139,1.9015,1.9482,1.9844,2.0771,2.0986,2.1191,2.1728,2.2168,2.2441,2.2441,2.2803,2.3066,2.3066,2.3066,2.3086,2.3135,2.3135,2.3135,2.3135,2.3135,2.3135,2.3135,2.3135,2.3135,2.3135,2.3135,2.3135,2.3135,2.3135,2.3135,2.3135,2.3135,2.3135,2.3135,2.3135,2.3135,2.3135,2.3135,2.3135,2.3135,2.3135,2.3135,2.3135,2.3135,2.3105,2.3018,2.2598,2.2441,2.2383,2.1953,2.1816,2.1738,2.1299,2.1162,2.1084,2.0684,2.0566,2.0566,2.0566,2.0566,2.0566,2.0566,2.0527,2.0498,2.0498,2.0156,1.9824,1.9785,1.917,1.8623,1.8574,1.8262,1.8008,1.8008,1.8008,1.7871,1.7451,1.7344,1.7148,1.6709,1.6309,1.5792,1.5053,1.4481,1.3906,1.3183,1.3751,1.4123,1.4196,1.4516,1.4717,1.4717,1.4336,1.4077,1.4077,1.4512,1.4717,1.4717,1.5088,1.5293,1.5342,1.5342,1.5274,0.976,1.0212,1.0795,0.0,1.2513,1.3577,1.6149,1.6872,1.768,1.9889,2.0703,2.125,2.1865,2.1982,2.2119,0.0,2.2764,2.2881,2.2881,2.2822,2.2773,2.2773,2.2773,2.2871,2.3115,2.3135,2.3135,2.3135,2.3135,2.3135,2.3135,2.3135,2.3135,2.3135,2.3135,2.3135,2.3135,2.3135,2.3135,2.3135,2.3135,2.3135,2.3135,2.3135,2.3135,2.3135,2.3135,2.3135,2.3135,2.3135,2.3135,2.3135,2.3135,2.3135,2.3115,2.2939,2.2881,2.2812,2.2402,2.2246,2.2178,2.1758,2.1611,2.1582,2.1387,2.1162,2.0957,2.0957,2.0762,2.0566,2.0566,2.0566,2.0566,2.0566,2.042,2.0225,1.9971,1.9629,1.9238,1.873,1.8496,1.8291,1.8047,1.8008,1.7736,1.706,1.6964,1.6738,1.6318,1.5584,1.4716,1.3443,1.3137,1.2843,1.2343,1.2626,1.3174,1.4145,1.4354,1.4677,1.5146,1.4971,1.4883,1.4883,1.5059,1.5146,1.5146,1.5322,1.541,1.541,1.541,1.539,1.0575,0.0,0.0,1.1888,1.2844,1.4094,1.5788,1.6767,1.7897,1.9948,2.0924,2.1444,2.1824,2.2252,2.2607,2.292,2.3066,2.3135,2.3135,2.2783,2.2559,2.2676,2.2578,2.2676,2.3096,2.3135,2.3135,2.3135,2.3135,2.3135,2.3135,2.3135,2.3135,2.3135,2.3135,2.3135,2.3135,2.3135,2.3135,2.3135,2.3135,2.3135,2.3135,2.3135,2.3135,2.3135,2.3135,2.3135,2.3135,2.3135,2.3135,2.3135,2.3135,2.3135,2.3135,2.3135,2.3135,2.3096,2.2793,2.2685,2.2617,2.2197,2.206,2.2041,2.1924,2.1582,2.123,2.123,2.0908,2.0566,2.0566,2.0566,2.0566,2.0566,2.0566,2.0478,2.0166,1.9763,1.9314,1.8883,1.8427,1.8066,1.7646,1.7579,1.7285,1.6358,1.6,1.5756,1.5685,1.4813,1.3703,1.246,1.2058,1.1783,1.1621,1.17,1.232,1.3476,1.3965,1.4451,1.505,1.5294,1.5294,1.505,1.5294,1.5294,1.505,1.541,1.5586,1.5596,1.5723,1.5629,0.0,0.0,1.2424,1.3398,1.4797,1.6302,1.7826,1.7971,1.8104,1.9352,1.9841,2.012,2.0214,2.1513,2.2519,2.2529,2.2871,2.3135,2.3135,2.2783,2.2666,2.3076,2.2764,2.2676,2.3096,2.3135,2.3135,2.3135,2.3135,2.3135,2.3135,2.3135,2.3135,2.3135,2.3135,2.3135,2.3135,2.3135,2.3135,2.3135,2.3135,2.3135,2.3135,2.3135,2.3135,2.3135,2.3135,2.3135,2.3135,2.3135,2.3135,2.3135,2.3135,2.3135,2.3135,2.3135,2.3135,2.3135,2.3125,2.3125,2.3057,2.2627,2.249,2.2412,2.2012,2.1582,2.123,2.123,2.0908,2.0566,2.0566,2.0566,2.0566,2.0566,2.0566,2.0634,2.0547,1.9418,1.855,1.9126,1.8043,1.6982,1.6709,1.6636,1.6349,1.5376,1.4386,1.4171,1.5076,1.4151,1.3201,1.2736,1.1689,1.1055,1.1048,1.1524,1.1834,1.1896,1.3356,1.4204,1.4273,1.4991,1.505,1.4264,1.4991,1.4991,1.4273,1.547,1.6105,1.6115,1.6494,1.6205,0.0,0.0,1.2746,1.3473,1.4198,1.5087,1.6314,1.6692,1.7115,1.8296,1.8648,1.8817,1.8901,1.9265,1.9694,1.9856,2.0843,2.1724,2.1906,2.1599,2.1663,2.2609,2.1883,2.1663,2.2619,2.2969,2.3135,2.3135,2.3135,2.3135,2.3135,2.3135,2.3135,2.3135,2.3135,2.3135,2.3135,2.3135,2.3135,2.3135,2.3135,2.3135,2.3135,2.3135,2.3135,2.3135,2.3135,2.3135,2.3135,2.3135,2.3135,2.3135,2.3135,2.3135,2.3135,2.3135,2.3135,2.3135,2.3135,2.3135,2.3115,2.2969,2.293,2.29,2.2754,2.2227,2.167,2.167,2.1133,2.0566,2.0566,2.0566,2.0566,2.0566,2.0566,2.0566,2.0566,1.9653,1.8719,1.8626,1.7455,1.6385,1.6012,1.582,1.5367,1.4378,1.3882,1.36,1.3302,1.2933,1.2541,1.2172,1.1839,1.1496,1.1296,1.1443,1.1779,1.2379,1.2894,1.3469,1.3975,1.4863,1.4926,1.4039,1.4863,1.4863,1.3975,1.5061,1.5577,1.5586,1.6322,1.6531,1.2251,1.2766,1.3106,1.3915,1.4182,1.4484,1.5624,1.5786,1.5959,1.6806,1.7081,1.709,1.6911,1.7183,1.7624,1.8096,1.9186,2.0095,2.0569,2.0342,2.0421,2.1282,2.0989,2.1039,0.0,0.0,0.0,2.3135,2.3135,2.3135,2.3135,2.3135,2.3135,2.3135,2.3135,2.3135,2.3135,2.3135,2.3135,2.3135,2.3135,2.3135,2.3135,2.3135,2.3135,2.3135,2.3135,2.3135,2.3135,2.3135,2.3135,2.3135,2.3135,2.3135,2.3135,2.3135,2.3135,2.3135,2.3135,2.3135,2.3135,2.3135,2.3135,2.3135,2.3135,2.2656,2.208,2.1924,2.1367,2.0762,2.0605,2.0566,2.0566,2.0566,2.0566,2.0479,2.0079,1.9195,1.8276,1.7804,1.6669,1.5666,1.5197,1.4605,1.3947,1.331,1.3164,1.2952,1.2378,1.2305,1.2231,1.2044,1.1931,1.179,1.1597,1.149,1.1628,1.2173,1.2519,1.2908,1.3435,1.4345,1.441,1.3502,1.4672,1.4672,1.3502,1.4867,1.5331,1.5011,1.6051,1.6346,1.2919,1.3267,1.3567,1.4669,1.473,1.4763,1.5726,1.5212,1.4532,1.5043,1.5113,1.4896,1.4328,0.0,1.6312,1.7103,1.7796,1.8454,1.9257,1.9118,1.9027,0.0,0.0,0.0,0.0,0.0,0.0,2.3135,2.3135,2.3135,2.3135,2.3135,2.3135,2.3135,2.3135,2.3135,2.3135,2.3135,2.3135,2.3135,2.3135,2.3135,2.3135,2.3135,2.3135,2.3135,2.3135,2.3135,2.3135,2.3135,2.3135,2.3135,2.3135,2.3135,2.3135,2.3135,2.3135,2.3135,2.3135,2.3135,2.3135,2.3135,2.3135,2.3135,2.3135,2.2842,2.2432,2.2031,2.1592,2.1133,2.0713,2.0586,2.0566,2.0566,2.0566,2.0323,1.9195,1.8069,1.7154,1.6714,1.5777,1.4865,1.4229,1.311,1.2325,1.2325,1.2311,1.2305,1.2305,1.2305,1.2305,1.2305,1.2058,1.1891,1.1891,1.163,1.147,1.147,1.2223,1.2698,1.2698,1.3483,1.3483,1.2698,1.4338,1.4404,1.2698,1.4748,1.5316,1.4453,1.5536,1.5777,1.3387,1.4015,1.4536,1.4616,1.4576,1.4489,1.4289,1.3858,1.3454,1.3141,1.2725,1.2289,1.1909,1.2671,0.0,1.4173,1.5868,0.0,1.8034,1.8072,0.0,1.9389,0.0,2.0202,2.1194,2.2394,0.0,2.3135,2.3135,2.3135,2.3135,2.3135,2.3135,2.3135,2.3135,2.3135,2.3135,2.3135,2.3135,2.3135,2.3135,2.3135,2.3135,2.3135,2.3135,2.3135,2.3135,2.3135,2.3135,2.3135,2.3135,2.3135,2.3135,2.3135,2.3135,2.3135,2.3135,2.3135,2.3135,2.3135,2.3135,2.3135,2.3135,2.3135,2.3135,2.2842,2.249,2.2383,2.1807,2.1211,2.1094,2.081,2.0566,2.0566,2.0566,2.0323,1.9195,1.8069,1.7066,1.6157,1.4902,1.3837,1.354,1.2986,1.2708,1.2708,1.2445,1.2305,1.2305,1.2305,1.2305,1.2305,1.2238,1.2191,1.2191,1.2124,1.2078,1.2078,1.2294,1.2367,1.2367,1.3278,1.3356,1.2439,1.3562,1.3562,1.2367,1.3645,1.4103,1.3905,1.4928,1.5314,1.4229,1.4776,1.5117,1.495,1.471,1.4335,1.3614,1.312,1.2605,1.1877,1.1363,0.0,1.0661,1.1116,0.0,0.0,0.0,0.0,1.6614,1.6764,1.7124,0.0,1.8403,0.0,1.967,2.0764,2.1498,2.1498,2.2041,2.258,2.3047,2.2589,2.258,2.3047,2.3135,2.3135,2.3135,2.3135,2.3135,2.3135,2.3135,2.3135,2.3135,2.3135,2.3135,2.3135,2.3135,2.3135,2.3135,2.3135,2.3135,2.3135,2.3135,2.3135,2.3135,2.3135,2.3135,2.3135,2.3135,2.3135,2.3135,2.3135,2.3135,2.3135,2.3135,2.2969,2.2754,2.2568,2.2168,2.1709,2.1338,2.1045,2.081,2.0605,2.0245,1.9599,1.847,1.7415,1.6273,1.522,1.4241,1.3512,1.3427,1.3153,1.2906,1.2842,1.2605,1.2452,1.2318,1.2305,1.2305,1.2305,1.2305,1.2305,1.2305,1.2305,1.2305,1.2305,1.2305,1.2305,1.2305,1.2806,1.2806,1.2305,1.3237,1.3244,1.2305,1.3244,1.3455,1.3098,1.3682,1.3945,1.5064,1.5398,1.5438,1.5357,1.4923,1.4269,1.3307,1.2619,1.1924,1.1009,0.0,1.0294,1.0,1.0247,1.0882,1.2058,0.0,1.4008,1.5224,1.5611,1.5785,1.5825,1.6943,1.7692,1.7692,1.8772,1.9497,1.9497,2.0305,2.1391,2.2589,2.1667,2.1578,2.2589,2.2599,2.2687,2.2862,2.2862,2.295,2.3135,2.3135,2.3135,2.3135,2.3135,2.3135,2.3135,2.3135,2.3135,2.3135,2.3135,2.3135,2.3135,2.3135,2.3135,2.3135,2.3135,2.3135,2.3135,2.3135,2.3135,2.3135,2.3135,2.3135,2.3135,2.3135,2.3135,2.3066,2.2705,2.2464,2.2165,2.151,2.1157,2.0883,2.0575,1.9715,1.863,1.7334,1.6273,1.5213,1.425,1.3881,1.3701,1.3701,1.346,1.3173,1.2906,1.2876,1.2652,1.2392,1.2325,1.2305,1.2305,1.2305,1.2305,1.2305,1.2305,1.2305,1.2305,1.2305,1.2305,1.2305,1.2305,1.2305,1.2305,1.3098,1.3091,1.2305,1.3098,1.3098,1.2305,1.2305,1.2305,1.4983,1.5391,1.5638,1.5157,1.4776,1.4155,1.2772,1.2004,0.0,0.0,0.9673,0.9379,0.9085,0.9673,1.0575,1.1757,0.0,0.0,0.0,0.0,1.5558,0.0,0.0,0.0,0.0,1.8772,0.0,1.9497,1.8772,1.8864,2.0042,1.9943,1.9943,2.0133,2.0133,2.0584,2.1569,2.1569,2.212,2.3135,2.3135,2.3135,2.3135,2.3135,2.3135,2.3135,2.3135,2.3135,2.3135,2.3135,2.3135,2.3135,2.3135,2.3135,2.3135,2.3135,2.3135,2.3135,2.3135,2.3135,2.3135,2.3135,2.3135,2.3135,2.3135,2.3135,2.3125,2.3057,2.2053,2.1225,2.2061,2.0985,1.9689,1.9787,1.9361,1.847,1.6437,1.5137,1.4328,1.4173,1.4048,1.4008,1.4008,1.3761,1.3547,1.3494,1.3066,1.2802,1.2755,1.2452,1.2305,1.2305,1.2305,1.2305,1.2305,1.2305,1.2305,1.2305,1.2305,1.2305,1.2305,1.2305,1.2305,1.2305,1.2445,1.2445,1.2305,1.2445,1.2445,1.2305,1.2305,1.2305,1.4877,1.5164,1.5277,1.4843,1.4282,1.3487,1.2151,0.0,0.0,0.0,0.9112,0.8971,0.8831,0.0,0.0,0.0,0.0,0.0,0.0,0.0,0.0,0.0,0.0,0.0,0.0,1.721,1.7569,1.7569,1.703,1.749,1.9405,1.9497,1.9497,1.9497,1.9497,1.9761,2.0395,2.0395,2.0666,2.1221,2.1221,2.1221,2.1221,2.1854,2.2129,2.2217,2.2862,2.3135,2.3135,2.3135,2.3135,2.3135,2.3135,2.3135,2.3135,2.3135,2.3135,2.3135,2.3135,2.3135,2.3135,2.3135,2.3135,2.3135,2.3135,2.3135,2.3135,2.3135,2.2086,2.1083,2.1491,2.0198,1.8869,1.868,1.7927,1.6846,1.522,1.4496,1.4088,1.4088,1.4088,1.4088,1.4088,1.3968,1.3821,1.3667,1.34,1.31,1.2862,1.2694,1.2472,1.2318,1.2305,1.2305,1.2305,1.2305,1.2305,1.2305,1.2305,1.2305,1.2305,1.2305,1.2305,1.2305,1.2305,1.2305,1.2305,1.2305,1.2305,1.2305,1.2305,1.2305,1.4649,1.487,1.4897,1.4596,1.3861,1.2899,1.1697,1.0748,0.0,0.0,0.8804,0.8804,0.8804,0.0,0.0,0.0,0.0,0.0,0.0,0.0,0.0,0.0,0.0,0.0,1.5832,1.5832,0.0,1.5832,1.5832,1.6655,1.858,1.8672,1.8672,1.8672,1.8672,1.8856,1.9131,1.9131,1.9222,1.9497,1.9497,1.9497,1.9488,2.0486,2.0935,2.1025,2.2217,2.2677,2.2765,2.296,2.3135,2.3135,2.3135,2.3135,2.3135,2.3135,2.3135,2.3135,2.3135,2.3135,2.3135,2.3135,2.3135,2.3135,2.3135,2.3135,2.3047,2.2775,2.1872,2.0801,2.0483,1.9261,1.7879,1.7451,1.6308,1.5137,1.425,1.4088,1.4088,1.4088,1.4088,1.4088,1.4088,1.4088,1.4008,1.3774,1.3687,1.3474,1.2999,1.2903,1.2735,1.2418,1.2338,1.2305,1.2305,1.2305,1.2305,1.2305,1.2305,1.2305,1.2305,1.2305,1.2305,1.2305,1.2305,1.2305,1.2305,1.2305,1.2305,1.2305,1.2305,1.2305,1.4155,1.4556,1.4897,1.4596,1.3861,1.2899,1.1697,0.0,0.0,0.8991,0.8804,0.8804,0.8804,0.8851,0.0,0.0,0.0,0.0,0.0,0.0,0.0,0.0,0.0,0.0,1.5832,1.5832,1.5832,1.5832,1.5832,1.592,1.6103,1.6103,1.6103,1.6103,1.6103,1.6662,1.787,1.787,1.8411,1.9497,1.9497,1.9497,1.9497,1.9579,1.9679,1.9761,2.0935,2.148,2.1569,2.2677,2.3135,2.3135,2.3135,2.3135,2.3135,2.3135,2.3135,2.3135,2.3135,2.3135,2.3135,2.3135,2.3135,2.3135,2.3135,2.3135,2.2862,2.1756,2.0576,1.967,1.9637,1.8216,1.6605,1.6058,1.5075,1.425,1.4088,1.4088,1.4088,1.4088,1.4088,1.4088,1.4088,1.4088,1.4075,1.4048,1.3814,1.3539,1.3567,1.3086,1.2808,1.2788,1.2465,1.2305,1.2305,1.2305,1.2305,1.2305,1.2305,1.2305,1.2305,1.2305,1.2305,1.2305,1.2305,1.2305,1.2305,1.2305,1.2305,1.2305,1.2305,1.2305,1.3674,1.4122,1.4362,1.4068,1.332,1.2398,1.1396,0.0,0.9659,0.8951,0.8804,0.8804,0.8804,0.8804,0.8978,0.0,0.9639,1.0254,1.1904,0.0,0.0,0.0,0.0,0.0,0.0,0.0,1.5832,1.5832,1.5832,1.5832,1.5832,1.5832,1.5832,1.5832,1.5832,1.6015,1.6574,1.6574,1.685,1.7296,1.7296,1.7296,1.7296,1.8041,1.8411,1.8503,1.967,2.0215,2.0215,2.0764,2.14,2.2031,2.2031,2.2031,2.212,2.2862,2.2677,2.2031,2.2031,2.2492,2.296,2.2217,2.2492,2.3135,2.3135,2.2589,2.1943,2.148,1.9943,1.8411,1.8411,1.701,1.5497,1.4881,1.4412,1.4088,1.4088,1.4088,1.4088,1.4088,1.4088,1.4088,1.4088,1.4088,1.4088,1.4088,1.3988,1.3848,1.3667,1.3434,1.3146,1.2862,1.2478,1.2305,1.2305,1.2305,1.2305,1.2305,1.2305,1.2305,1.2305,1.2305,1.2305,1.2305,1.2305,1.2305,1.2305,1.2305,1.2305,1.2305,1.2305,1.2305,1.2946,1.3467,1.3774,1.3567,1.2772,1.1857,0.0,1.0247,0.9412,0.8911,0.8804,0.8804,0.8804,0.8804,0.8878,0.0,0.9085,0.9593,1.1089,1.1523,0.0,0.0,0.0,1.5023,0.0,1.5732,1.5832,1.5832,1.5832,1.5832,1.5832,1.5832,1.5832,1.5832,1.5832,1.5832,1.5832,1.5832,1.5832,1.5832,1.5832,1.5832,1.5832,1.6763,1.7131,1.7225,1.8411,1.8956,1.9047,1.9314,2.0034,2.0755,2.0755,2.0755,2.0845,2.1765,2.1489,2.0755,2.0755,2.1302,2.1952,2.148,2.1845,2.2589,2.2589,2.1943,2.1203,2.0845,1.9039,1.7088,1.6899,1.5994,1.4816,1.4229,1.4088,1.4088,1.4088,1.4088,1.4088,1.4088,1.4088,1.4088,1.4088,1.4088,1.4088,1.4088,1.4088,1.4015,1.3801,1.3701,1.348,1.306,1.2665,1.2398,1.2311,1.2305,1.2305,1.2305,1.2305,1.2305,1.2305,1.2305,1.2305,1.2305,1.2305,1.2305,1.2305,1.2305,1.2305,1.2305,1.2305,1.2305,1.1884,1.2538,1.322,1.3213,1.2318,1.1356,0.0,1.0087,0.9103,0.8871,0.8804,0.8804,0.8804,0.8804,0.8804,0.8811,0.9299,0.9987,1.0875,1.1744,0.0,0.0,0.0,1.4643,1.4943,1.5491,1.5832,1.5832,1.5832,1.5832,1.5832,1.5832,1.5832,1.5832,1.5832,1.5832,1.5832,1.5832,1.5832,1.5832,1.5832,1.5832,1.5832,1.5825,1.5825,1.592,1.7131,1.7692,1.7777,1.9047,1.9497,1.9497,1.9497,1.9497,1.9497,1.9488,1.9497,1.9497,1.9497,1.9497,1.9761,2.0935,2.1293,2.1293,2.1293,2.1293,2.1025,1.9852,1.7755,1.5698,1.5214,1.497,1.4816,1.4229,1.4088,1.4088,1.4088,1.4088,1.4088,1.4088,1.4088,1.4088,1.4088,1.4088,1.4088,1.4088,1.4088,1.4088,1.4082,1.3828,1.3641,1.3552,1.31,1.2625,1.2325,1.2305,1.2305,1.2305,1.2305,1.2305,1.2305,1.2305,1.2305,1.2305,1.2305,1.2305,1.2305,1.2305,1.2305,1.2305,1.2305,1.2305,1.1109,1.1623,1.1944,1.1744,1.1263,1.0701,1.0214,0.9653,0.9103,0.8871,0.8804,0.8804,0.8804,0.8804,0.9005,0.9606,0.986,0.0,0.0,0.0,0.0,1.3561,1.4689,1.5451,0.0,1.5718,1.5832,1.5832,1.5832,1.5832,1.5832,1.5832,1.5832,1.5832,1.5832,1.5832,1.5832,1.5832,1.5832,1.5832,1.5832,1.5832,1.5832,1.5832,1.5832,1.5825,1.6204,1.6386,1.6386,1.6842,1.749,1.8234,1.8234,1.8234,1.8411,1.9222,1.8956,1.8234,1.8234,1.8772,1.9579,1.9943,2.0034,2.0215,2.1025,2.0755,1.967,1.7569,1.6379,1.5745,1.5357,1.511,1.4863,1.4476,1.4229,1.4088,1.4088,1.4088,1.4088,1.4088,1.4088,1.4088,1.4088,1.4088,1.4088,1.4088,1.4088,1.4088,1.4088,1.4008,1.3868,1.3585,1.3474,1.3153,1.2645,1.2418,1.2305,1.2305,1.2305,1.2305,1.2305,1.2305,1.2305,1.2305,1.2305,1.2305,1.2305,1.2305,1.2305,1.2305,1.2305,1.2305,0.0,1.0708,1.1056,1.0875,1.0528,1.0134,0.9766,0.9365,0.9025,0.8844,0.8804,0.8804,0.8804,0.8804,0.8985,0.9532,0.9713,0.0,0.0,0.0,0.0,1.3848,0.0,0.0,1.5658,1.5765,1.5832,1.5832,1.5832,1.5832,1.5832,1.5832,1.5832,1.5832,1.5832,1.5832,1.5832,1.5832,1.5832,1.5832,1.5832,1.5832,1.5832,1.5832,1.5832,1.5832,1.5832,1.5832,0.0,1.5832,1.6292,1.6943,1.6943,1.6943,1.7037,1.7855,1.7669,1.6943,1.6943,1.749,1.8211,1.868,1.8864,1.8956,1.967,1.9405,1.8403,1.6379,1.5832,1.5758,1.5471,1.5177,1.489,1.4589,1.4302,1.4088,1.4088,1.4088,1.4088,1.4088,1.4088,1.4088,1.4088,1.4088,1.4088,1.4088,1.4088,1.4088,1.4088,1.4088,1.4015,1.3834,1.3707,1.3447,1.2966,1.2645,1.2418,1.2311,1.2305,1.2305,1.2305,1.2305,1.2305,1.2305,1.2305,1.2305,1.2305,1.2305,1.2305,1.2305,1.2305,1.2305,0.0,0.9726,1.0436,1.0436,0.996,0.9559,0.9559,0.9138,0.0,0.8771,0.8778,0.8791,0.8831,0.8824,0.8838,0.8945,0.9185,0.0,0.0,0.0,0.0,0.0,1.4856,0.0,1.5398,1.5671,1.5832,1.5832,1.5832,1.5832,1.5832,1.5832,1.5832,1.5832,1.5832,1.5832,1.5832,1.5832,1.5832,1.5832,1.5832,1.5832,1.5832,1.5832,1.5832,1.5832,1.5832,1.5832,1.5832,1.5832,1.5832,1.5832,1.5832,1.5832,1.5832,1.5832,1.5832,1.5832,1.5832,1.5832,1.6015,1.7225,1.7598,1.7692,1.7598,1.7598,1.7318,1.6109,1.5832,1.5765,1.5498,1.5197,1.4897,1.4616,1.4315,1.4088,1.4088,1.4088,1.4088,1.4088,1.4088,1.4088,1.4088,1.4088,1.4088,1.4088,1.4088,1.4088,1.4088,1.4088,1.4088,1.4088,1.3841,1.3561,1.3267,1.2939,1.2694,1.2318,1.2305,1.2305,1.2305,1.2305,1.2305,1.2305,1.2305,1.2305,1.2305,1.2305,1.2305,1.2305,1.2318,1.2331,0.7809,0.0,0.855,0.855,0.8444,0.8343,0.0,0.8237,0.8203,0.0,0.0,0.8611,0.9058,0.8958,0.9172,1.0294,0.0,0.0,0.0,0.0,0.0,1.5391,1.5585,1.5651,1.5718,1.5792,1.5832,1.5832,1.5832,1.5832,1.5832,1.5832,1.5832,1.5832,1.5832,1.5832,1.5832,1.5832,1.5832,1.5832,1.5832,1.5832,1.5832,1.5832,1.5832,1.5832,1.5832,1.5832,1.5832,1.5832,1.5832,1.5832,1.5832,1.5832,1.5832,1.5832,1.5832,1.5832,1.5832,1.5832,1.5825,1.6109,1.6943,1.7505,1.6574,1.6292,1.6204,1.592,1.5832,1.5812,1.5745,1.5344,1.4943,1.4877,1.4462,1.4088,1.4088,1.4088,1.4088,1.4088,1.4088,1.4088,1.4088,1.4088,1.4088,1.4088,1.4088,1.4088,1.4088,1.4088,1.4088,1.4088,1.4021,1.3861,1.3567,1.3053,1.2694,1.2318,1.2305,1.2305,1.2305,1.2305,1.2305,1.2305,1.2305,1.2305,1.2305,1.2305,1.2305,1.2305,1.228,1.2296,0.7261,0.7689,0.8136,0.8136,0.8237,0.833,0.833,0.0,0.0,0.0,0.0,0.0,0.8985,0.0,0.0,0.0,1.0728,0.0,0.0,0.0,0.0,1.5738,1.5832,1.5832,1.5832,1.5832,1.5832,1.5832,1.5832,1.5832,1.5832,1.5832,1.5832,1.5832,1.5832,1.5832,1.5832,1.5832,1.5832,1.5832,1.5832,1.5832,1.5832,1.5832,1.5832,1.5832,1.5832,1.5832,1.5832,1.5832,1.5832,1.5832,1.5832,1.5832,1.5832,1.5832,1.5832,1.5832,1.5832,1.5832,1.5832,1.5832,1.6292,1.6669,1.6015,1.5832,1.5832,1.5832,1.5832,1.5832,1.5832,1.5398,1.4963,1.4963,1.4516,1.4088,1.4088,1.4088,1.4088,1.4088,1.4088,1.4088,1.4088,1.4088,1.4088,1.4088,1.4088,1.4088,1.4088,1.4088,1.4088,1.4088,1.4088,1.3968,1.3667,1.3347,1.2973,1.2614,1.2417,1.2276,1.2311,1.2305,1.2305,1.2305,1.2305,1.2305,1.2305,1.2269,1.2329,1.2335,1.2299,1.2609,0.6972,0.7682,0.84,0.8306,0.8457,0.8671,0.8775,0.0,0.0,0.0,0.0,0.0,0.0,0.0,0.0,0.0,0.0,0.0,1.3955,1.4689,1.5224,1.5765,1.5832,1.5832,1.5832,1.5832,1.5832,1.5832,1.5832,1.5832,1.5832,1.5832,1.5832,1.5832,1.5832,1.5832,1.5832,1.5832,1.5832,1.5832,1.5832,1.5832,1.5832,1.5832,1.5832,1.5832,1.5832,1.5832,1.5832,1.5832,1.5832,1.5832,1.5832,1.5832,1.5832,1.5832,1.5832,1.5832,1.5832,1.5832,1.5832,1.5832,1.5832,1.5832,1.5832,1.5832,1.5832,1.5832,1.5832,1.5818,1.5772,1.5364,1.495,1.491,1.4482,1.4088,1.4088,1.4088,1.4088,1.4088,1.4088,1.4088,1.4088,1.4088,1.4088,1.4088,1.4088,1.4088,1.4088,1.4088,1.4088,1.4088,1.4088,1.3981,1.3734,1.3707,1.348,1.3094,1.2575,1.2329,1.2297,1.2325,1.2305,1.2305,1.2264,1.2284,1.2291,1.2322,1.2382,1.2562,1.2595,1.3101,0.6954,0.7682,0.8299,0.7782,0.7836,0.8201,0.0,0.0,0.0,0.0,0.0,0.0,0.0,0.0,0.0,0.0,0.0,1.3607,0.0,0.0,1.5451,1.5792,1.5832,1.5832,1.5832,1.5832,1.5832,1.5832,1.5832,1.5832,1.5832,1.5832,1.5832,1.5832,1.5832,1.5832,1.5832,1.5832,1.5832,1.5832,1.5832,1.5832,1.5832,1.5832,1.5832,1.5832,1.5832,1.5832,1.5832,1.5832,1.5832,1.5832,1.5832,1.5832,1.5832,1.5832,1.5832,1.5832,1.5832,1.5832,1.5832,1.5832,1.5832,1.5832,1.5832,1.5832,1.5832,1.5832,1.5832,1.5772,1.5524,1.5217,1.4903,1.4649,1.4335,1.4088,1.4088,1.4088,1.4088,1.4088,1.4088,1.4088,1.4088,1.4088,1.4088,1.4088,1.4088,1.4088,1.4088,1.4088,1.4088,1.4088,1.4088,1.4068,1.4021,1.4021,1.3971,1.3906,1.2915,1.2298,1.2335,1.2269,1.2305,1.2305,1.2293,1.2329,1.2329,1.2285,1.287,1.3859,1.381,1.3947,0.698,0.7751,0.836,0.8085,0.8424,0.8884,0.0,0.0,0.0,0.0,0.0,0.0,0.0,0.0,0.0,0.0,0.0,1.4188,1.5077,1.5311,1.5504,1.5792,1.5832,1.5832,1.5832,1.5832,1.5832,1.5832,1.5832,1.5832,1.5832,1.5832,1.5832,1.5832,1.5832,1.5832,1.5832,1.5832,1.5832,1.5832,1.5832,1.5832,1.5832,1.5832,1.5832,1.5832,1.5832,1.5832,1.5832,1.5832,1.5832,1.5832,1.5832,1.5832,1.5832,1.5832,1.5832,1.5832,1.5832,1.5832,1.5832,1.5832,1.5832,1.5832,1.5832,1.5832,1.5832,1.5832,1.5832,1.5798,1.5665,1.5297,1.493,1.4796,1.4416,1.4088,1.4088,1.4088,1.4088,1.4088,1.4088,1.4088,1.4088,1.4088,1.4088,1.4088,1.4088,1.4088,1.4088,1.4088,1.4088,1.4088,1.4088,1.4088,1.4088,1.4088,1.4065,1.4131,1.3554,1.2969,1.2304,1.2261,1.228,1.228,1.2312,1.2642,1.326,1.3293,1.3541,1.41,1.4118,1.4074,0.7013,0.7893,0.8603,0.8623,0.0,0.0,0.0,0.0,0.0,0.0,0.0,0.0,0.0,0.0,0.0,1.3239,1.3908,1.4576,1.5384,1.5498,1.5578,1.5805,1.5832,1.5832,1.5832,1.5832,1.5832,1.5832,1.5832,1.5832,1.5832,1.5832,1.5832,1.5832,1.5832,1.5832,1.5832,1.5832,1.5832,1.5832,1.5832,1.5832,1.5832,1.5832,1.5832,1.5832,1.5832,1.5832,1.5832,1.5832,1.5832,1.5832,1.5832,1.5832,1.5832,1.5832,1.5832,1.5832,1.5832,1.5832,1.5832,1.5832,1.5832,1.5832,1.5832,1.5832,1.5832,1.5832,1.5832,1.5812,1.5745,1.5344,1.4943,1.4877,1.4462,1.4088,1.4088,1.4088,1.4088,1.4088,1.4088,1.4088,1.4088,1.4088,1.4088,1.4088,1.4088,1.4088,1.4088,1.4088,1.4088,1.4088,1.4088,1.4088,1.4088,1.4088,1.4085,1.4138,1.4121,1.368,1.2775,1.2711,1.2679,1.2679,1.2743,1.322,1.4128,1.4076,1.4125,1.4131,1.4079,1.4088,0.7024,0.8015,0.8934,0.9246,0.0,0.0,0.0,0.0,0.0,0.0,0.0,0.0,0.0,0.0,1.2976,1.3868,1.4516,1.511,1.5712,1.5798,1.5805,1.5825,1.5832,1.5832,1.5832,1.5832,1.5832,1.5832,1.5832,1.5832,1.5832,1.5832,1.5832,1.5832,1.5832,1.5832,1.5832,1.5832,1.5832,1.5832,1.5832,1.5832,1.5832,1.5832,1.5832,1.5832,1.5832,1.5832,1.5832,1.5832,1.5832,1.5832,1.5832,1.5832,1.5832,1.5832,1.5832,1.5832,1.5832,1.5832,1.5832,1.5832,1.5832,1.5832,1.5832,1.5832,1.5832,1.5832,1.5832,1.5765,1.5498,1.5197,1.4897,1.4616,1.4315,1.4088,1.4088,1.4088,1.4088,1.4088,1.4088,1.4088,1.4088,1.4088,1.4088,1.4088,1.4088,1.4088,1.4088,1.4088,1.4088,1.4088,1.4088,1.4088,1.4088,1.4088,1.4082,1.4062,1.4062,1.4076,1.3988,1.3996,1.3936,1.3936,1.3939,1.3988,1.4083,1.4102,1.4062,1.4062,1.4075,1.4088,0.755,0.8776,0.9773,0.9859,0.0,0.0,0.0,0.0,0.0,0.0,0.0,0.0,0.0,0.0,1.3894,1.4646,1.554,1.6231,1.6663,1.6807,1.6943,1.6943,1.6292,1.5832,1.5832,1.5832,1.5832,1.5832,1.5832,1.5832,1.5832,1.5832,1.5832,1.5832,1.5832,1.5832,1.5832,1.5832,1.5832,1.5832,1.5832,1.5832,1.5832,1.5832,1.5832,1.5832,1.5832,1.5832,1.5832,1.5832,1.5832,1.5832,1.5832,1.5832,1.5832,1.5832,1.5832,1.5832,1.5832,1.5832,1.5832,1.5832,1.5832,1.5832,1.5832,1.5832,1.5832,1.5832,1.5832,1.5805,1.5698,1.5317,1.4937,1.4823,1.4436,1.4088,1.4088,1.4088,1.4088,1.4088,1.4088,1.4088,1.4088,1.4088,1.4088,1.4088,1.4088,1.4088,1.4088,1.4088,1.4088,1.4088,1.4088,1.4088,1.4088,1.4088,1.4088,1.4088,1.4079,1.4108,1.4108,1.4096,1.4125,1.4125,1.4144,1.4108,1.4108,1.4126,1.4088,1.4088,1.4088,1.4088,0.8158,0.9421,1.0575,0.0,0.0,0.0,0.0,0.0,0.0,0.0,0.0,0.0,0.0,0.0,0.0,0.0,1.6607,1.7404,1.7648,1.8002,1.8141,1.7785,1.6943,1.6197,1.5825,1.6204,1.6386,1.6386,1.6386,1.6567,1.6929,1.6197,1.6197,1.6929,1.6567,1.6567,1.6929,1.6929,1.6929,1.6929,1.6929,1.656,1.5832,1.5832,1.5832,1.5832,1.5832,1.5832,1.5832,1.5832,1.5832,1.5832,1.5832,1.5832,1.5832,1.5832,1.5832,1.5832,1.5832,1.5832,1.5832,1.5832,1.5832,1.5832,1.5832,1.5832,1.5832,1.5832,1.5832,1.5805,1.5718,1.5331,1.4963,1.4963,1.4516,1.4088,1.4088,1.4088,1.4088,1.4088,1.4088,1.4088,1.4088,1.4088,1.4088,1.4088,1.4088,1.4088,1.4088,1.4088,1.4088,1.4088,1.4088,1.4088,1.4088,1.4088,1.4088,1.4088,1.4088,1.4088,1.4088,1.4088,1.4088,1.4088,1.4088,1.4088,1.4088,1.4088,1.4088,1.4088,1.4088,1.4126,0.8738,0.9871,0.0,0.0,0.0,0.0,0.0,0.0,0.0,0.0,0.0,0.0,0.0,0.0,0.0,1.721,1.7945,1.8531,1.8797,1.9167,1.9039,1.7863,1.7684,1.7225,1.592,1.6943,1.7692,1.7692,1.7692,1.8234,1.9405,1.7203,1.6929,1.9405,1.8319,1.8319,1.9497,1.9497,1.9497,1.9497,1.9497,1.8211,1.5825,1.5825,1.5825,1.5825,1.5825,1.5832,1.5825,1.5832,1.5832,1.5832,1.5832,1.5832,1.5832,1.5832,1.5832,1.5832,1.5832,1.5832,1.5832,1.5832,1.5832,1.5832,1.5832,1.5832,1.5832,1.5825,1.5825,1.5758,1.5471,1.5177,1.4963,1.4963,1.4516,1.4088,1.4088,1.4088,1.4088,1.4088,1.4088,1.4088,1.4088,1.4088,1.4088,1.4088,1.4088,1.4088,1.4088,1.4088,1.4088,1.4088,1.4088,1.4088,1.4088,1.4088,1.4088,1.4088,1.4088,1.4088,1.4088,1.4088,1.4088,1.4088,1.4088,1.4088,1.4088,1.4088,1.4088,1.4082,1.4082,1.4115,0.9335,1.0366,0.0,0.0,0.0,0.0,0.0,0.0,0.0,0.0,0.0,0.0,1.784,0.0,0.0,1.7943,1.8707,1.9252,1.9366,1.9157,1.9198,1.9741,1.8537,1.787,1.8395,1.8764,1.8956,1.8956,1.8956,1.9131,1.9497,1.8764,1.8764,1.9497,1.9131,1.9131,1.9497,1.9497,1.9497,1.9497,1.9497,1.9131,1.8395,1.8395,1.8395,1.8395,1.8395,1.7948,1.7037,1.6197,1.5832,1.5832,1.5832,1.5832,1.5832,1.5832,1.5832,1.5832,1.5832,1.5832,1.5832,1.5832,1.5832,1.5832,1.5832,1.5832,1.5785,1.5585,1.5524,1.5458,1.5164,1.487,1.4656,1.4656,1.4362,1.4088,1.4088,1.4088,1.4088,1.4088,1.4088,1.4088,1.4088,1.4088,1.4088,1.4088,1.4088,1.4088,1.4088,1.4088,1.4088,1.4088,1.4088,1.4088,1.4088,1.4088,1.4088,1.4088,1.4088,1.4088,1.4088,1.4088,1.4088,1.4088,1.4088,1.4088,1.4088,1.4088,1.4079,1.4062,1.4062,1.4083,1.0303,0.0,0.0,0.0,0.0,0.0,0.0,0.0,0.0,0.0,0.0,1.9734,1.9275,1.9096,0.0,1.9198,1.9785,2.0214,2.0214,2.0093,2.0199,2.0611,1.9597,1.9068,1.948,1.9943,2.0215,2.0215,2.0215,2.0395,2.0863,2.0034,1.9943,2.0863,2.0486,2.0486,2.0953,2.0944,2.0944,2.0944,2.0944,2.0944,2.0863,1.9943,1.9222,1.8772,1.8772,1.8411,1.7598,1.685,1.6298,1.5832,1.5832,1.5832,1.5832,1.5832,1.5832,1.5832,1.5832,1.5832,1.5832,1.5832,1.5832,1.5832,1.5832,1.5752,1.5618,1.5444,1.5311,1.5157,1.4863,1.4656,1.4522,1.4522,1.4302,1.4088,1.4088,1.4088,1.4088,1.4088,1.4088,1.4088,1.4088,1.4088,1.4088,1.4088,1.4088,1.4088,1.4088,1.4088,1.4088,1.4088,1.4088,1.4088,1.4088,1.4088,1.4088,1.4088,1.4088,1.4088,1.4088,1.4088,1.4088,1.4088,1.4088,1.4088,1.4088,1.4065,1.4103,1.4111,1.3622,1.34,0.0,0.0,0.0,0.0,0.0,0.0,0.0,0.0,0.0,0.0,0.0,2.0049,2.0478,2.0244,2.0098,2.0498,2.0908,2.1172,2.1172,2.1461,2.1434,2.0829,2.0643,2.036,1.9816,2.0748,2.138,2.1416,2.1425,2.1896,2.3047,2.1042,2.0854,2.3047,2.2031,2.2031,2.3047,2.3135,2.3135,2.3135,2.3135,2.3135,2.3047,2.0854,1.9222,1.8141,1.7963,1.787,1.787,1.7591,1.685,1.5832,1.5832,1.5832,1.5832,1.5832,1.5832,1.5832,1.5832,1.5832,1.5832,1.5832,1.5832,1.5825,1.5798,1.5605,1.5384,1.5331,1.5124,1.4856,1.4556,1.4482,1.4482,1.4482,1.4282,1.4088,1.4088,1.4088,1.4088,1.4088,1.4088,1.4088,1.4088,1.4088,1.4088,1.4088,1.4088,1.4088,1.4088,1.4088,1.4088,1.4088,1.4088,1.4088,1.4088,1.4088,1.4088,1.4088,1.4088,1.4088,1.4088,1.4088,1.4088,1.4088,1.4088,1.4075,1.4139,1.4062,1.4076,1.3926,1.2842,1.2298,0.0,0.0,0.0,0.0,0.0,0.0,0.0,0.0,0.0,0.0,1.998,2.0049,2.0478,2.0488,2.0459,2.0547,2.0644,2.0713,2.0713,2.0254,2.0208,2.0986,2.0495,2.0462,2.1269,2.1625,2.1938,2.2265,2.2198,2.2515,2.3038,2.2589,2.2589,2.3047,2.2862,2.2862,2.3135,2.3135,2.3135,2.3135,2.3135,2.3135,2.3047,2.2589,2.2138,2.1863,1.9951,1.9131,1.8948,1.703,1.6015,1.5832,1.5832,1.5832,1.5832,1.5832,1.5832,1.5832,1.5832,1.5832,1.5832,1.5832,1.5832,1.5785,1.5558,1.5444,1.5304,1.4836,1.4663,1.4549,1.4255,1.4182,1.4182,1.4182,1.4135,1.4088,1.4088,1.4088,1.4088,1.4088,1.4088,1.4088,1.4088,1.4088,1.4088,1.4088,1.4088,1.4088,1.4088,1.4088,1.4088,1.4088,1.4088,1.4088,1.4088,1.4088,1.4088,1.4088,1.4088,1.4088,1.4088,1.4088,1.4088,1.4088,1.4088,1.4072,1.4118,1.4138,1.3588,1.2674,1.2434,1.2335,0.0,0.0,0.0,0.0,0.0,0.0,0.0,0.0,0.0,1.917,1.9629,1.998,2.0215,2.042,2.0566,2.0566,2.0566,2.0566,2.0566,2.0261,2.032,2.1121,2.0828,2.0955,2.1773,2.1885,2.1982,2.2197,2.2207,2.2305,2.2529,2.2539,2.2539,2.2539,2.2539,2.2637,2.2832,2.2832,2.2939,2.3135,2.3135,2.3135,2.3047,2.2492,2.258,2.296,2.1123,2.0034,1.9405,1.8118,1.721,1.6669,1.6669,1.703,1.7483,1.6936,1.6657,1.6429,1.5805,1.5531,1.5418,1.5418,1.5418,1.5384,1.5237,1.509,1.4917,1.4609,1.4422,1.4282,1.4128,1.4088,1.4088,1.4088,1.4088,1.4088,1.4088,1.4088,1.4088,1.4088,1.4088,1.4088,1.4088,1.4088,1.4088,1.4088,1.4573,1.465,1.4173,1.4573,1.4657,1.4166,1.4088,1.4088,1.4088,1.4088,1.4088,1.4088,1.4088,1.4088,1.4088,1.4088,1.4088,1.4088,1.4135,1.4083,1.4111,1.3534,1.2876,1.2305,1.2332,1.2282,0.0,0.0,0.0,0.0,0.0,0.0,0.0,0.0,0.0,1.8457,1.915,1.9717,1.9795,2.0156,2.0449,2.0449,2.0518,2.0566,2.0566,2.0566,2.0703,2.1074,2.1123,2.126,2.1621,2.166,2.1689,2.1768,2.1777,2.1807,2.1885,2.1885,2.1885,2.1885,2.1885,2.2051,2.2402,2.2402,2.2578,2.292,2.292,2.292,2.2833,2.1826,2.1989,2.3047,2.1845,2.0747,1.9761,1.9588,1.8956,1.8048,1.8048,1.8556,1.9216,1.8233,1.7553,1.6989,1.5937,1.5339,1.4963,1.4963,1.4963,1.495,1.4903,1.4716,1.4509,1.4456,1.4269,1.4088,1.4088,1.425,1.4334,1.4173,1.425,1.4334,1.4173,1.4088,1.4088,1.4088,1.425,1.4328,1.4166,1.425,1.4412,1.4412,1.4977,1.5137,1.4496,1.4977,1.5054,1.4166,1.4088,1.4088,1.4088,1.4088,1.4088,1.4088,1.4088,1.4088,1.4088,1.4088,1.4062,1.4105,1.4062,1.3995,1.3764,1.2752,1.2285,1.2316,1.233,1.2305,0.0,0.0,0.0,0.0,0.0,0.0,0.0,0.0,1.8027,0.0,1.8477,1.8926,1.9307,1.9717,2.0,2.0,2.0312,2.0566,2.0566,2.0566,2.0586,2.0644,2.0654,2.0674,2.0742,2.0742,2.0908,2.1289,2.1318,2.1484,2.1865,2.1885,2.1885,2.1885,2.1885,2.1914,2.1973,2.1973,2.2002,2.2051,2.2051,2.2051,2.2051,2.1874,2.2272,2.3047,2.1845,2.1203,2.1025,1.9943,1.9405,1.9222,1.9222,1.9118,1.884,1.8669,1.7822,1.6654,1.6485,1.5768,1.4963,1.4963,1.4963,1.4917,1.4656,1.4556,1.4469,1.4215,1.4115,1.4088,1.4088,1.4817,1.5213,1.4328,1.4817,1.5213,1.4334,1.4088,1.4088,1.4088,1.481,1.5213,1.425,1.4894,1.5462,1.5462,1.4817,1.4573,1.5379,1.4817,1.425,1.4088,1.4088,1.4088,1.4088,1.4088,1.4088,1.4088,1.4088,1.4088,1.4088,1.4088,1.4065,1.4084,1.4131,1.3615,1.2552,1.2389,1.227,1.2277,1.2318,1.2305,0.0,0.0,0.0,0.0,0.0,0.0,0.0,0.0,1.7656,1.7656,1.7988,1.8418,1.8848,1.9277,1.9561,1.9561,1.9922,2.0195,2.0195,2.041,2.0566,2.0566,2.0566,2.0566,2.0566,2.0566,2.0644,2.084,2.0859,2.0947,2.1133,2.1143,2.1143,2.1143,2.1143,2.1269,2.1523,2.1523,2.1641,2.1885,2.1885,2.1885,2.1885,2.1885,2.209,2.2432,2.1902,2.1265,2.0548,2.0018,1.9756,1.9756,1.9756,2.0104,2.04,1.909,1.8078,1.7181,1.5901,1.5033,1.4476,1.4476,1.4476,1.4449,1.4315,1.4282,1.4249,1.4122,1.4088,1.4088,1.4088,1.4894,1.5621,1.5137,1.5379,1.5538,1.5137,1.4489,1.425,1.4894,1.5379,1.5703,1.5876,1.6281,1.6355,1.5779,1.5794,1.5636,1.4901,1.4894,1.4734,1.4166,1.4088,1.4088,1.4088,1.4088,1.4088,1.4088,1.4088,1.4088,1.4088,1.3748,1.3596,1.3566,1.3945,1.3518,1.2331,1.2296,1.2263,1.2305,1.2305,1.2305,0.0,0.0,0.0,0.0,0.0,0.0,0.0,0.0,1.708,0.0,1.7559,1.7949,1.8262,1.876,1.9121,1.9121,1.9473,1.9756,1.9756,2.0127,2.04,2.04,2.0498,2.0566,2.0566,2.0566,2.0566,2.0566,2.0566,2.0566,2.0566,2.0566,2.0566,2.0566,2.0566,2.0723,2.1064,2.1064,2.123,2.1553,2.1553,2.1553,2.1553,2.1553,2.1553,2.1562,2.1787,2.1358,2.0475,2.0475,2.0475,2.0475,2.0475,2.1023,2.1462,1.9472,1.8305,1.7497,1.549,1.4675,1.4496,1.4496,1.4657,1.4817,1.4573,1.4496,1.4412,1.4166,1.4088,1.4166,1.4412,1.5304,1.6026,1.5779,1.5944,1.5944,1.5379,1.465,1.4412,1.5455,1.5944,1.6355,1.7172,1.7342,1.7009,1.6191,1.6363,1.6041,1.4657,1.4977,1.4977,1.4173,1.4088,1.4088,1.4088,1.4088,1.4088,1.4088,1.4015,1.3975,1.3975,1.351,1.3225,1.3146,1.3471,1.3233,1.2305,1.2276,1.2305,1.2305,1.2305,1.2305,0.0,0.0,0.0,0.0,0.0,0.0,0.0,0.0,1.626,1.668,1.7109,1.7422,1.7451,1.8115,1.8672,1.8672,1.9043,1.9316,1.9316,1.9678,1.9951,1.9951,2.0312,2.0566,2.0566,2.0566,2.0566,2.0566,2.0566,2.0566,2.0566,2.0566,2.0566,2.0566,2.0566,2.0576,2.0596,2.0596,2.0605,2.0635,2.0635,2.0635,2.0635,2.0635,2.0635,2.0684,2.1523,2.1885,2.1792,2.1792,2.1792,2.1792,2.1792,2.1549,2.1099,1.9988,1.8577,1.7204,1.6057,1.5636,1.5621,1.5621,1.6273,1.6927,1.5951,1.5621,1.5379,1.4412,1.4088,1.4328,1.5379,1.6437,1.6927,1.5944,1.6519,1.669,1.4657,1.4173,1.4412,1.5455,1.6519,1.7253,1.7253,1.7342,1.7261,1.7253,1.5553,1.4573,1.5538,1.4817,1.4166,1.4088,1.4088,1.4088,1.4088,1.4088,1.4088,1.4088,1.3821,1.3667,1.3667,1.3567,1.3277,1.2882,1.2593,1.233,1.2305,1.2276,1.2305,1.2305,1.2305,1.2305,0.0,0.0,0.0,0.0,0.0,0.0,0.0,1.4941,1.5693,1.585,1.6455,1.6963,1.6963,1.7656,1.8232,1.8232,1.8594,1.8867,1.8867,1.9238,1.9512,1.9512,1.9648,1.9746,1.9746,1.999,2.0146,2.0146,2.041,2.0566,2.0566,2.0566,2.0566,2.0566,2.0566,2.0566,2.0566,2.0566,2.0566,2.0566,2.0566,2.0566,2.0566,2.0566,2.0566,2.0586,2.0898,2.1035,2.1035,2.1035,2.1035,2.1035,2.1035,2.0937,2.0634,1.8753,1.8262,1.8141,1.6355,1.6191,1.6764,1.6764,1.7009,1.709,1.6026,1.5696,1.5455,1.4412,1.4573,1.522,1.5621,1.7009,1.831,1.79,1.7577,1.6927,1.5462,1.5137,1.5462,1.6519,1.7658,1.863,1.9274,1.8868,1.8149,1.7423,1.6034,1.5061,1.4734,1.4328,1.4088,1.4088,1.4088,1.4088,1.4088,1.4088,1.4008,1.3814,1.3701,1.3561,1.3373,1.3158,1.295,1.2829,1.247,1.2289,1.2289,1.2271,1.2305,1.2305,1.2305,1.2305,0.0,0.0,0.0,0.0,0.0,0.0,1.3213,0.0,1.4678,1.5117,1.5781,1.6328,1.6484,1.71,1.7627,1.7773,1.8154,1.8428,1.8428,1.8799,1.9072,1.9072,1.9199,1.9287,1.9287,1.9541,1.9707,1.9707,1.9971,2.0137,2.0137,2.0137,2.0195,2.0342,2.0352,2.042,2.0566,2.0566,2.0566,2.0566,2.0566,2.0566,2.0566,2.0566,2.0566,2.0566,2.0566,2.0566,2.0566,2.0566,2.0566,2.0566,2.0566,2.0566,2.0401,1.855,1.831,1.8718,1.6838,1.6927,1.7908,1.7908,1.8141,1.8141,1.6675,1.6273,1.5951,1.4489,1.4894,1.5779,1.6108,1.7577,1.9036,1.9036,1.7819,1.6601,1.5861,1.5696,1.6026,1.709,1.823,1.9362,2.0401,1.9678,1.863,1.7504,1.6355,1.5296,1.425,1.4088,1.4088,1.4088,1.4088,1.4088,1.4088,1.3995,1.3854,1.3572,1.3454,1.3253,1.3066,1.2759,1.2599,1.2599,1.2405,1.2305,1.2305,1.2305,1.2305,1.2305,1.2305,1.2305,0.0,0.0,0.0,0.0,0.0,0.0,1.293,0.0,1.3203,1.4463,1.5059,1.5488,1.5928,1.6387,1.6836,1.7256,1.7686,1.7978,1.7988,1.834,1.8603,1.8613,1.8994,1.9248,1.9248,1.9258,1.9268,1.9268,1.9277,1.9287,1.9287,1.9287,1.9473,1.9883,1.9902,2.0117,2.0537,2.0557,2.0566,2.0566,2.0566,2.0566,2.0566,2.0566,2.0566,2.0566,2.0566,2.0566,2.0566,2.0566,2.0566,2.0566,2.0566,2.0566,2.0479,1.9362,1.9036,1.8877,1.7738,1.8069,1.9045,1.9045,1.9756,2.0157,1.798,1.7342,1.6935,1.4824,1.4977,1.6026,1.709,1.823,1.9045,1.9045,1.7334,1.5786,1.5779,1.5779,1.6026,1.709,1.823,1.9362,2.0401,1.9678,1.855,1.7415,1.6355,1.5296,1.425,1.4088,1.4088,1.4088,1.4088,1.4082,1.4075,1.3808,1.3552,1.3621,1.3066,1.2822,1.2808,1.2452,1.2305,1.2305,1.2305,1.2305,1.2305,1.2305,1.2305,1.2305,1.2305,1.2305,0.7636,0.0,0.0,0.0,0.0,0.0,0.0,0.0,1.2253,1.3203,1.374,1.416,1.459,1.5273,1.5811,1.5937,1.6592,1.7197,1.751,1.7656,1.7842,1.8144,1.8291,1.8359,1.8359,1.8633,1.8818,1.8818,1.9111,1.9287,1.9287,1.9287,1.9336,1.9453,1.9756,1.9971,2.0088,2.041,2.0566,2.0566,2.0566,2.0566,2.0566,2.0566,2.0566,2.0566,2.0566,2.0566,2.0566,2.0566,2.0566,2.0566,2.0566,2.0566,2.0479,1.9362,1.952,2.0001,1.8877,1.9274,2.0157,2.0157,2.0323,2.0323,1.8957,1.855,1.823,1.6772,1.7253,1.8301,1.9432,1.9913,2.0157,2.0157,1.8461,1.709,1.79,1.7415,1.6927,1.7261,1.8868,2.0001,1.952,1.855,1.7415,1.6273,1.522,1.4412,1.4173,1.4088,1.4088,1.4088,1.4088,1.4001,1.3781,1.3687,1.3454,1.3026,1.2916,1.2728,1.2438,1.2345,1.2305,1.2305,1.2305,1.2305,1.2305,1.2305,1.2305,1.2305,1.2305,1.2305,0.0,0.0,0.0,0.0,0.0,0.0,1.0754,1.1243,1.1861,1.2695,1.3213,1.3633,1.4053,1.4541,1.4932,1.5117,1.5586,1.6201,1.7002,1.7109,1.7197,1.7451,1.7637,1.7744,1.7744,1.8125,1.8379,1.8379,1.8613,1.875,1.875,1.875,1.8828,1.9014,1.9258,1.9473,1.9648,1.9902,2.0117,2.0293,2.0293,2.0391,2.0566,2.0566,2.0566,2.0566,2.0566,2.0566,2.0566,2.0566,2.0566,2.0566,2.0566,2.0566,2.0489,1.9923,2.0079,2.0479,1.9844,2.0079,2.0566,2.0566,2.0566,2.0401,1.9362,1.9036,1.8798,1.7585,1.8149,1.9283,2.0323,2.0566,2.0566,2.0566,1.8948,1.7577,1.8718,1.8069,1.7415,1.7908,1.9432,2.0401,1.9766,1.8709,1.7666,1.6519,1.5462,1.4573,1.4166,1.3981,1.3901,1.3901,1.3794,1.3654,1.348,1.3347,1.312,1.2842,1.2708,1.2485,1.2311,1.2305,1.2305,1.2305,1.2305,1.2305,1.2305,1.2305,1.2305,1.2305,1.2305,1.2305,0.0,0.0,0.0,0.0,1.1555,0.0,1.1518,1.1548,1.1782,1.2584,1.3008,1.335,1.3769,1.3873,1.4121,1.4512,1.4648,1.5166,1.6475,1.666,1.668,1.6665,1.708,1.7314,1.7314,1.7646,1.7891,1.7939,1.7978,1.8008,1.8008,1.8008,1.8184,1.8484,1.8613,1.8818,1.9209,1.9268,1.9473,1.9844,1.9844,2.0049,2.043,2.043,2.043,2.043,2.043,2.0449,2.0488,2.0439,2.0478,2.0566,2.0566,2.0566,2.0566,2.0566,2.0566,2.0566,2.0566,2.0566,2.0566,2.0566,2.0566,2.0401,1.9441,1.9195,1.8957,1.798,1.839,1.9362,2.0323,2.0566,2.0566,2.0566,1.9027,1.7819,1.8957,1.831,1.7811,1.8903,1.9885,2.0489,2.0245,1.9432,1.839,1.7098,1.6085,1.5079,1.4203,1.3774,1.3594,1.3594,1.3367,1.32,1.316,1.2906,1.2808,1.2775,1.2452,1.2305,1.2305,1.2305,1.2305,1.2305,1.2305,1.2305,1.2305,1.2305,1.2305,1.2305,1.2305,1.2305,1.2483,1.2689,1.2726,1.1646,1.1966,0.0,1.1377,1.1255,1.142,1.1851,1.1656,1.1543,1.1982,1.2646,1.3154,1.3242,1.3818,1.4717,1.6006,1.6191,1.6328,1.6689,1.6807,1.6855,1.6855,1.6934,1.7129,1.748,1.7822,1.8008,1.8008,1.8008,1.8047,1.8125,1.8457,1.8601,1.876,1.9111,1.9326,1.9404,1.9404,1.9453,1.9541,1.9541,1.9541,1.9541,1.9541,1.9727,2.0019,1.9678,1.9941,2.0566,2.0566,2.0566,2.0566,2.0566,2.0566,2.0566,2.0566,2.0566,2.0566,2.0566,2.0566,2.0566,2.0323,2.0323,2.0245,2.0001,2.0079,2.0323,2.0566,2.0566,2.0566,2.0566,1.9599,1.8957,2.0079,1.9441,1.8858,1.9564,2.0168,1.9991,1.8221,1.7738,1.6927,1.4985,1.4283,1.3967,1.3728,1.3474,1.3293,1.3293,1.324,1.3113,1.2936,1.2856,1.2721,1.2405,1.2338,1.2305,1.2305,1.2305,1.2305,1.2305,1.2305,1.2305,1.2305,1.2305,1.2305,1.2305,1.2305,1.2305,1.4247,1.4371,1.4337,1.3371,0.0,0.0,0.0,1.2435,1.2696,1.2855,1.2436,1.208,1.2304,1.2467,1.2627,1.2842,1.3408,1.4121,1.498,1.5098,1.5264,1.5703,1.5947,1.6074,1.6074,1.6412,1.6826,1.7041,1.7256,1.7461,1.7686,1.7695,1.7793,1.8008,1.8213,1.832,1.832,1.8545,1.876,1.8965,1.8965,1.9072,1.9287,1.9287,1.9287,1.9287,1.9287,1.9404,1.959,1.9375,1.9541,1.9951,2.0156,2.0371,2.0566,2.0566,2.0566,2.0537,2.0312,2.0381,2.0527,2.0312,2.0391,2.0566,2.0566,2.0566,2.0518,2.0303,2.04,2.0469,2.0039,2.0088,2.0185,1.998,1.9146,1.8687,1.9696,1.9146,1.8623,1.9416,1.9775,1.9459,1.7898,1.7333,1.6517,1.4691,1.383,1.3427,1.3427,1.3166,1.2979,1.2979,1.2846,1.2699,1.2538,1.2525,1.2458,1.2311,1.2305,1.2305,1.2305,1.2305,1.2305,1.2305,1.2305,1.2305,1.2305,1.2305,1.2305,1.2305,1.2305,1.2305,0.0,0.0,1.5874,1.5264,0.0,1.5157,0.0,0.0,0.0,1.4116,1.3608,1.316,0.0,1.2738,1.2483,1.2795,1.3174,1.347,1.3721,1.3708,1.3984,1.459,1.4961,1.5195,1.5283,1.5937,1.6426,1.6592,1.6523,1.6709,1.7227,1.7334,1.7539,1.7881,1.7969,1.8008,1.8008,1.8008,1.8184,1.8446,1.8446,1.8701,1.9043,1.9043,1.9043,1.9043,1.9043,1.9092,1.916,1.9072,1.9141,1.9316,1.9668,2.001,2.0322,2.0322,2.0322,2.0273,1.9912,2.0019,2.0264,1.9912,2.0088,2.042,2.0342,2.0381,2.0352,1.9912,2.0049,2.0156,1.9463,1.9541,1.9707,1.9365,1.8609,1.8239,1.9131,1.8609,1.8212,1.9025,1.9228,1.8985,1.8008,1.7251,1.6333,1.4987,1.3839,1.312,1.312,1.2852,1.2735,1.2735,1.2445,1.2305,1.2305,1.2305,1.2305,1.2305,1.2305,1.2305,1.2305,1.2305,1.2305,1.2305,1.2305,1.2305,1.2305,1.2305,1.2305,1.2305,1.2305,1.2305,0.0,0.0,0.0,0.0,1.6403,1.6685,1.5097,0.0,1.4738,1.4208,0.0,1.3361,1.3361,0.0,0.0,1.2594,1.2816,1.2909,1.2479,1.2394,1.2832,1.4009,1.4194,1.4434,1.4814,1.4951,1.5322,1.6084,1.5781,1.5928,1.6768,1.7168,1.7402,1.7451,1.7812,1.8008,1.8008,1.8008,1.8037,1.8076,1.8076,1.8105,1.8154,1.8154,1.8154,1.8154,1.8154,1.8369,1.8682,1.8311,1.8603,1.9287,1.9336,1.9394,1.9434,1.9434,1.9434,1.9424,1.9375,1.9394,1.9424,1.9375,1.9648,1.9912,1.9551,1.9697,1.9902,1.9473,1.9394,1.9404,1.9316,1.9316,1.9346,1.9297,1.9214,1.9131,1.9287,1.9214,1.9025,1.8708,1.9023,1.8985,1.7933,1.6884,1.5896,1.4802,1.3649,1.2876,1.2876,1.2538,1.2351,1.2351,1.2318,1.2305,1.2305,1.2305,1.2305,1.2305,1.2305,1.2305,1.2305,1.2305,1.2305,1.2305,1.2305,1.2305,1.2305,1.2305,1.2305,1.2305,1.2305,1.2305,0.0,0.0,1.7187,1.6371,1.6785,1.7112,1.607,1.5827,1.5788,1.5553,0.0,0.0,0.0,0.0,0.0,0.0,1.2978,1.285,1.2348,1.226,1.2538,1.3331,1.3408,1.3672,1.4346,1.418,1.4297,1.4902,1.4551,1.4795,1.5908,1.6143,1.6592,1.7363,1.7549,1.7764,1.8008,1.8008,1.8008,1.8008,1.8008,1.8008,1.8008,1.8008,1.8008,1.8008,1.8008,1.8115,1.8262,1.8086,1.8223,1.8545,1.8545,1.8848,1.9287,1.9287,1.9287,1.9248,1.8994,1.9072,1.9287,1.9287,1.9404,1.9512,1.9336,1.9414,1.9463,1.9033,1.9092,1.917,1.8682,1.873,1.8848,1.8603,1.8545,1.8545,1.8545,1.8545,1.8496,1.8311,1.8418,1.8254,1.7224,1.6444,1.5327,1.3511,1.2859,1.2485,1.2485,1.2378,1.2305,1.2305,1.2305,1.2305,1.2305,1.2305,1.2305,1.2305,1.2305,1.2305,1.2305,1.2305,1.2305,1.2305,1.2305,1.2305,1.2305,1.2305,1.2305,1.2305,1.2305,1.2305,1.6597,1.7049,1.7438,1.6697,1.6948,1.7225,1.6647,1.6635,1.671,1.6547,1.6052,0.0,0.0,0.0,1.3801,0.0,0.0,1.2995,1.2253,1.2162,1.2259,1.2645,1.291,1.3242,1.374,1.3408,1.3428,1.4029,1.3525,1.3769,1.5166,1.5352,1.5908,1.6992,1.7256,1.7529,1.7832,1.7949,1.8008,1.8008,1.8008,1.8008,1.8008,1.8008,1.8008,1.8008,1.8008,1.8008,1.8008,1.8008,1.8008,1.8008,1.8008,1.8389,1.8936,1.8936,1.8936,1.8887,1.8574,1.8672,1.8936,1.8936,1.9014,1.9092,1.8975,1.9014,1.9014,1.8584,1.8691,1.8799,1.8174,1.8242,1.8389,1.8086,1.8008,1.8008,1.8008,1.8008,1.8008,1.8008,1.8008,1.7647,1.6428,1.5871,1.4952,1.298,1.2445,1.2305,1.2305,1.2305,1.2305,1.2305,1.2305,1.2305,1.2305,1.2305,1.2305,1.2305,1.2305,1.2305,1.2305,1.2305,1.2305,1.2305,1.2305,1.2305,1.2305,1.2305,1.2305,1.2305,1.2305,1.2305,1.681,1.7325,1.7903,1.6798,1.6948,1.7225,1.6647,1.6948,1.72,1.6635,1.6948,1.7149,1.6554,1.6003,0.0,0.0,0.0,0.0,0.0,1.1761,1.184,1.2184,1.2988,1.334,1.2959,1.2529,1.2745,1.399,1.2929,1.3018,1.4717,1.5186,1.5625,1.6154,1.6934,1.7393,1.7402,1.7803,1.8008,1.8008,1.8008,1.8008,1.8008,1.8008,1.8008,1.8008,1.8008,1.8008,1.8008,1.8008,1.8008,1.8008,1.8008,1.8027,1.8047,1.8047,1.8047,1.8047,1.8037,1.8037,1.8047,1.8047,1.833,1.8584,1.8174,1.833,1.8574,1.8144,1.8037,1.8047,1.8018,1.8018,1.8027,1.8018,1.8008,1.8008,1.8008,1.8008,1.8008,1.8008,1.8008,1.7432,1.5587,1.5242,1.4895,1.3818,1.2879,1.2305,1.2305,1.2305,1.2305,1.2305,1.2305,1.2305,1.2305,1.2305,1.2305,1.2305,1.2305,1.2305,1.2305,1.2305,1.2305,1.2305,1.2305,1.2305,1.2305,1.2305,1.2305,1.2305,1.2305,1.2305,1.7739,1.8179,1.848,1.7375,1.7513,1.7677,1.6735,1.6974,1.7212,1.6635,1.6974,1.7212,1.6622,1.607,0.0,0.0,0.0,0.0,0.0,1.2157,1.1521,1.0979,1.1699,0.0,1.2067,1.192,1.209,1.2774,1.2424,1.2734,1.3877,1.4336,1.4893,1.5605,1.6201,1.6797,1.7373,1.7529,1.7734,1.8008,1.8008,1.8008,1.8008,1.8008,1.8008,1.8008,1.8008,1.8008,1.8008,1.8008,1.8008,1.8008,1.8008,1.8008,1.8008,1.8008,1.8008,1.8008,1.8008,1.8008,1.8008,1.8008,1.8105,1.8193,1.8057,1.8105,1.8193,1.8047,1.8008,1.8008,1.8008,1.8008,1.8008,1.8008,1.8008,1.8008,1.8008,1.8008,1.8008,1.8008,1.7501,1.6645,1.5446,1.4665,1.3882,1.2952,1.2519,1.2305,1.2305,1.2305,1.2305,1.2305,1.2305,1.2305,1.2305,1.2305,1.2305,1.2305,1.2305,1.2305,1.2305,1.2305,1.2305,1.2305,1.2305,1.2305,1.2305,1.2305,1.2305,1.2298,1.2291,1.2298,1.8304,1.8606,1.8819,1.7903,1.794,1.7965,1.7036,1.7262,1.7513,1.6936,1.7124,1.7325,1.7149,1.6497,1.5919,0.0,0.0,0.0,0.0,1.2423,1.1702,1.0919,0.0,0.0,0.0,1.1332,1.1484,1.2393,1.2031,1.2275,1.3447,1.3906,1.4408,1.5166,1.5762,1.64,1.6904,1.7227,1.7519,1.7793,1.7939,1.8008,1.8008,1.8008,1.8008,1.8008,1.8008,1.8008,1.8008,1.8008,1.8008,1.8008,1.8008,1.8008,1.8008,1.8008,1.8008,1.8008,1.8008,1.8008,1.8008,1.8008,1.8008,1.8008,1.8008,1.8008,1.8008,1.8008,1.8008,1.8008,1.8008,1.8008,1.8008,1.8008,1.8008,1.8008,1.8008,1.8008,1.8008,1.8008,1.7207,1.628,1.5376,1.4386,1.3382,1.2445,1.2305,1.2305,1.2305,1.2305,1.2305,1.2305,1.2305,1.2305,1.2305,1.2305,1.2305,1.2305,1.2305,1.2305,1.2305,1.2305,1.2305,1.2305,1.2305,1.2305,1.2305,1.2305,1.2305,1.2298,1.2317,1.3048]},{"header":{"parameterUnit":"m.s-1","parameterCategory":1,"la1":30.6,"la2":29.2853,"lo1":-89.7004,"lo2":-87.6739,"dy":0.0162,"dx":0.0183,"nx":112,"ny":82,"refTime":"2024-07-29T06:00:00:Z","depth":0,"parameterNumber":3,"parameterNumberName":"V-component_of_WINDS"},"data":[0.0,0.0,0.0,0.0,0.0,0.0,0.0,0.0,0.0,0.0,0.0,0.0,0.0,0.0,0.0,0.0,0.0,0.0,0.0,0.0,0.0,0.0,0.0,0.0,0.0,0.0,0.0,0.0,0.0,0.0,0.0,0.0,0.0,0.0,0.0,0.0,0.0,0.0,0.0,0.0,0.0,0.0,0.0,0.0,0.0,0.0,0.0,0.0,0.0,0.0,0.0,0.0,0.0,0.0,0.0,0.0,0.0,0.0,0.0,0.0,0.0,0.0,0.0,0.0,0.0,0.0,0.0,0.0,0.0,0.0,0.0,0.0,0.0,0.0,0.0,0.0,0.0,0.0,0.0,0.0,0.0,0.0,0.0,0.0,0.0,0.0,0.0,0.0,0.0,0.0,-1.741,-1.9232,-2.116,-2.231,-2.231,-2.231,-2.1025,-1.7997,0.0,0.0,0.0,0.0,0.0,0.0,0.0,0.0,0.0,0.0,0.0,0.0,0.0,0.0,0.0,0.0,0.0,0.0,0.0,0.0,0.0,0.0,0.0,0.0,0.0,0.0,0.0,0.0,0.0,0.0,0.0,0.0,0.0,0.0,0.0,0.0,0.0,0.0,0.0,0.0,0.0,0.0,0.0,0.0,0.0,0.0,0.0,0.0,0.0,0.0,0.0,0.0,0.0,0.0,0.0,0.0,0.0,0.0,0.0,0.0,0.0,0.0,0.0,0.0,0.0,0.0,0.0,0.0,0.0,0.0,0.0,0.0,0.0,0.0,0.0,0.0,0.0,0.0,0.0,0.0,0.0,0.0,0.0,0.0,0.0,0.0,0.0,0.0,0.0,0.0,0.0,0.0,0.0,0.0,0.0,0.0,0.0,0.0,0.0,0.0,0.0,0.0,0.0,0.0,-1.802,-2.1431,-2.2107,-2.231,-2.231,-2.231,-2.1025,-1.7997,0.0,0.0,0.0,0.0,0.0,0.0,0.0,0.0,0.0,0.0,0.0,0.0,0.0,0.0,0.0,0.0,0.0,0.0,0.0,0.0,0.0,0.0,0.0,0.0,0.0,0.0,0.0,0.0,0.0,0.0,0.0,0.0,0.0,0.0,0.0,0.0,0.0,0.0,0.0,0.0,0.0,0.0,0.0,0.0,0.0,0.0,0.0,0.0,0.0,0.0,0.0,0.0,0.0,0.0,0.0,0.0,0.0,0.0,0.0,0.0,0.0,0.0,0.0,0.0,0.0,0.0,0.0,0.0,0.0,0.0,0.0,0.0,0.0,0.0,0.0,0.0,0.0,0.0,0.0,0.0,0.0,0.0,0.0,0.0,0.0,0.0,0.0,0.0,0.0,0.0,0.0,0.0,0.0,0.0,0.0,0.0,0.0,0.0,0.0,0.0,0.0,0.0,0.0,-1.7304,-1.9012,-2.1989,-2.231,-2.231,-2.231,-2.231,-2.1025,-1.7997,-1.6424,0.0,0.0,0.0,0.0,0.0,0.0,0.0,0.0,0.0,0.0,0.0,0.0,0.0,0.0,0.0,0.0,0.0,0.0,0.0,0.0,0.0,0.0,0.0,0.0,0.0,0.0,0.0,0.0,0.0,0.0,0.0,0.0,0.0,0.0,0.0,0.0,0.0,0.0,0.0,0.0,0.0,0.0,0.0,0.0,0.0,0.0,0.0,0.0,0.0,0.0,0.0,0.0,0.0,0.0,0.0,0.0,0.0,0.0,0.0,0.0,0.0,0.0,0.0,0.0,0.0,0.0,0.0,0.0,0.0,0.0,0.0,0.0,0.0,0.0,0.0,0.0,0.0,0.0,0.0,0.0,0.0,0.0,0.0,0.0,0.0,0.0,0.0,0.0,0.0,0.0,0.0,0.0,0.0,0.0,0.0,0.0,0.0,0.0,0.0,0.0,0.0,0.0,-1.9469,-2.0179,-2.2107,-2.231,-2.231,-2.231,-2.1989,-2.0636,-1.798,-1.6086,0.0,0.0,0.0,0.0,0.0,0.0,0.0,0.0,0.0,0.0,0.0,0.0,0.0,0.0,0.0,0.0,0.0,0.0,0.0,0.0,0.0,0.0,0.0,0.0,0.0,0.0,0.0,0.0,0.0,0.0,0.0,0.0,0.0,0.0,0.0,0.0,0.0,0.0,0.0,0.0,0.0,0.0,0.0,0.0,0.0,0.0,0.0,0.0,0.0,0.0,0.0,0.0,0.0,0.0,0.0,0.0,0.0,0.0,0.0,0.0,0.0,0.0,0.0,0.0,0.0,0.0,0.0,0.0,0.0,0.0,0.0,0.0,0.0,0.0,0.0,0.0,0.0,0.0,0.0,0.0,0.0,0.0,0.0,0.0,0.0,0.0,0.0,0.0,0.0,0.0,0.0,0.0,0.0,0.0,0.0,0.0,0.0,0.0,0.0,0.0,0.0,0.0,-1.9756,-2.1346,-2.2226,-2.231,-2.231,-2.231,-2.0981,-1.9478,-1.7912,-1.5122,0.0,0.0,0.0,0.0,0.0,0.0,0.0,0.0,0.0,0.0,0.0,0.0,0.0,0.0,0.0,0.0,0.0,0.0,0.0,0.0,0.0,0.0,0.0,0.0,0.0,0.0,0.0,0.0,0.0,0.0,0.0,0.0,0.0,0.0,0.0,0.0,0.0,0.0,0.0,0.0,0.0,0.0,0.0,0.0,0.0,0.0,0.0,0.0,0.0,0.0,0.0,0.0,0.0,0.0,0.0,0.0,0.0,0.0,0.0,0.0,0.0,0.0,0.0,0.0,0.0,0.0,0.0,0.0,0.0,0.0,0.0,0.0,0.0,0.0,0.0,0.0,0.0,0.0,0.0,0.0,0.0,0.0,0.0,0.0,0.0,0.0,0.0,0.0,0.0,0.0,0.0,0.0,0.0,0.0,0.0,0.0,0.0,0.0,0.0,0.0,0.0,0.0,-1.935,-2.094,0.0,-2.231,-2.231,-2.231,-2.1786,-2.0373,-1.7941,0.0,0.0,0.0,0.0,0.0,0.0,0.0,0.0,0.0,0.0,0.0,0.0,0.0,0.0,0.0,0.0,0.0,0.0,0.0,0.0,0.0,0.0,0.0,0.0,0.0,0.0,0.0,0.0,0.0,0.0,0.0,0.0,0.0,0.0,0.0,0.0,0.0,0.0,0.0,0.0,0.0,0.0,0.0,0.0,0.0,0.0,0.0,0.0,0.0,0.0,0.0,0.0,0.0,0.0,0.0,0.0,0.0,0.0,0.0,0.0,0.0,0.0,0.0,0.0,0.0,0.0,0.0,0.0,0.0,0.0,0.0,0.0,0.0,0.0,0.0,0.0,0.0,0.0,0.0,0.0,0.0,0.0,0.0,0.0,0.0,0.0,0.0,0.0,0.0,0.0,0.0,0.0,0.0,0.0,0.0,0.0,0.0,0.0,0.0,0.0,0.0,0.0,-1.749,-1.9495,-2.1116,0.0,-2.231,-2.231,-2.231,-2.1651,-2.0247,-1.7946,0.0,0.0,0.0,0.0,0.0,0.0,0.0,0.0,0.0,0.0,0.0,0.0,0.0,0.0,0.0,0.0,0.0,0.0,0.0,0.0,0.0,0.0,0.0,0.0,0.0,0.0,0.0,0.0,0.0,0.0,0.0,0.0,0.0,0.0,0.0,0.0,0.0,0.0,0.0,0.0,0.0,0.0,0.0,0.0,0.0,0.0,0.0,0.0,0.0,0.0,0.0,0.0,0.0,0.0,0.0,0.0,0.0,0.0,0.0,0.0,0.0,0.0,0.0,0.0,0.0,0.0,0.0,0.0,0.0,0.0,0.0,0.0,0.0,0.0,0.0,0.0,0.0,0.0,0.0,0.0,0.0,0.0,0.0,0.0,0.0,0.0,0.0,0.0,0.0,0.0,0.0,0.0,0.0,0.0,0.0,0.0,0.0,0.0,0.0,0.0,0.0,0.0,-1.7625,-2.0433,-2.231,-2.231,-2.231,-2.231,-2.231,-2.023,-1.8606,0.0,0.0,0.0,0.0,0.0,0.0,0.0,0.0,0.0,0.0,0.0,0.0,0.0,0.0,0.0,0.0,0.0,0.0,0.0,0.0,0.0,0.0,0.0,0.0,0.0,0.0,0.0,0.0,0.0,0.0,0.0,0.0,0.0,0.0,0.0,0.0,0.0,0.0,0.0,0.0,0.0,0.0,0.0,0.0,0.0,0.0,0.0,0.0,0.0,0.0,0.0,0.0,0.0,0.0,0.0,0.0,0.0,0.0,0.0,0.0,0.0,0.0,0.0,0.0,0.0,0.0,0.0,0.0,0.0,0.0,0.0,0.0,0.0,0.0,0.0,0.0,0.0,0.0,0.0,0.0,0.0,0.0,0.0,0.0,0.0,0.0,0.0,0.0,0.0,0.0,0.0,0.0,0.0,0.0,0.0,0.0,0.0,0.0,0.0,0.0,0.0,0.0,0.0,-1.7625,-2.0433,-2.231,-2.231,-2.231,-2.231,-2.231,-2.1211,-1.9739,-1.7929,0.0,0.0,0.0,0.0,0.0,0.0,0.0,0.0,0.0,0.0,0.0,0.0,0.0,0.0,0.0,0.0,0.0,0.0,0.0,0.0,0.0,0.0,0.0,0.0,0.0,0.0,0.0,0.0,0.0,0.0,0.0,0.0,0.0,0.0,0.0,0.0,0.0,0.0,0.0,0.0,0.0,0.0,0.0,0.0,0.0,0.0,0.0,0.0,0.0,0.0,0.0,0.0,0.0,0.0,0.0,0.0,0.0,0.0,0.0,0.0,0.0,0.0,0.0,0.0,0.0,0.0,0.0,0.0,0.0,0.0,0.0,0.0,0.0,0.0,0.0,0.0,0.0,0.0,0.0,0.0,0.0,0.0,0.0,0.0,0.0,0.0,0.0,0.0,0.0,0.0,0.0,0.0,0.0,0.0,0.0,0.0,0.0,0.0,0.0,0.0,0.0,0.0,-1.7625,-2.0433,-2.231,-2.231,-2.231,-2.231,-2.231,-2.1617,-2.0331,-1.8369,0.0,0.0,0.0,0.0,0.0,0.0,0.0,0.0,0.0,0.0,0.0,0.0,0.0,0.0,0.0,0.0,0.0,0.0,0.0,0.0,0.0,0.0,0.0,0.0,0.0,0.0,0.0,0.0,0.0,0.0,0.0,0.0,0.0,0.0,0.0,0.0,0.0,0.0,0.0,0.0,0.0,0.0,0.0,0.0,0.0,0.0,0.0,0.0,0.0,0.0,0.0,0.0,0.0,0.0,0.0,0.0,0.0,0.0,0.0,0.0,0.0,0.0,0.0,0.0,0.0,0.0,0.0,0.0,0.0,0.0,0.0,0.0,0.0,0.0,0.0,0.0,0.0,0.0,0.0,0.0,0.0,0.0,0.0,0.0,0.0,0.0,0.0,0.0,0.0,0.0,0.0,0.0,0.0,0.0,0.0,0.0,0.0,0.0,0.0,0.0,0.0,0.0,-1.7625,-2.0433,-2.231,-2.231,-2.231,-2.231,-2.231,-2.1617,-2.0534,-1.8995,0.0,0.0,0.0,0.0,0.0,0.0,0.0,0.0,0.0,0.0,0.0,0.0,0.0,0.0,0.0,0.0,0.0,0.0,0.0,0.0,0.0,0.0,0.0,0.0,0.0,0.0,0.0,0.0,0.0,0.0,0.0,0.0,0.0,0.0,0.0,0.0,0.0,0.0,0.0,0.0,0.0,0.0,0.0,0.0,0.0,0.0,0.0,0.0,0.0,0.0,0.0,0.0,0.0,0.0,0.0,0.0,0.0,0.0,0.0,0.0,-1.7963,-1.7134,0.0,0.0,0.0,0.0,0.0,0.0,0.0,0.0,0.0,0.0,0.0,0.0,0.0,0.0,0.0,0.0,0.0,0.0,0.0,0.0,0.0,0.0,0.0,0.0,0.0,0.0,0.0,0.0,0.0,0.0,0.0,0.0,0.0,0.0,0.0,0.0,0.0,0.0,0.0,0.0,-1.7625,-2.0433,-2.231,-2.231,-2.231,-2.231,-2.231,-2.1617,-2.0534,-1.8995,-1.6678,0.0,0.0,0.0,0.0,0.0,0.0,0.0,0.0,0.0,0.0,0.0,0.0,0.0,0.0,0.0,0.0,0.0,0.0,0.0,0.0,0.0,0.0,0.0,0.0,0.0,0.0,0.0,0.0,0.0,0.0,0.0,0.0,0.0,0.0,0.0,0.0,0.0,0.0,0.0,0.0,0.0,0.0,0.0,0.0,0.0,0.0,0.0,0.0,0.0,0.0,0.0,0.0,0.0,0.0,0.0,0.0,0.0,0.0,0.0,-2.0737,-1.9638,0.0,0.0,0.0,0.0,0.0,0.0,0.0,0.0,0.0,0.0,0.0,0.0,0.0,0.0,0.0,0.0,0.0,0.0,0.0,0.0,0.0,0.0,0.0,0.0,0.0,0.0,0.0,0.0,0.0,0.0,0.0,0.0,0.0,0.0,0.0,0.0,0.0,0.0,0.0,0.0,-1.8149,-2.0653,-2.231,-2.231,-2.231,-2.231,-2.231,-2.1955,-2.1228,-2.0078,-1.8217,0.0,0.0,0.0,0.0,0.0,0.0,0.0,0.0,0.0,0.0,0.0,0.0,0.0,0.0,0.0,0.0,0.0,0.0,0.0,0.0,0.0,0.0,0.0,0.0,0.0,0.0,0.0,0.0,0.0,0.0,0.0,0.0,0.0,0.0,0.0,0.0,0.0,0.0,0.0,0.0,0.0,0.0,0.0,0.0,0.0,0.0,0.0,0.0,0.0,0.0,0.0,0.0,0.0,-2.4831,-2.5524,-2.5709,-2.6302,-2.659,-2.6437,-2.3849,-2.2801,-2.2784,-2.1353,0.0,0.0,0.0,0.0,0.0,0.0,0.0,0.0,0.0,0.0,0.0,0.0,0.0,0.0,0.0,0.0,0.0,0.0,0.0,0.0,0.0,0.0,-2.1796,-2.1796,-2.2699,-2.2564,-1.8866,0.0,0.0,0.0,0.0,0.0,0.0,0.0,0.0,0.0,0.0,0.0,-1.8894,-2.0974,-2.231,-2.231,-2.231,-2.231,-2.231,-2.231,-2.1989,-2.1254,-1.9858,-1.8488,0.0,0.0,0.0,0.0,0.0,0.0,0.0,0.0,0.0,0.0,0.0,0.0,0.0,0.0,0.0,0.0,0.0,0.0,0.0,0.0,0.0,0.0,0.0,0.0,0.0,0.0,0.0,0.0,0.0,0.0,0.0,0.0,-1.4915,-1.7033,0.0,0.0,0.0,0.0,0.0,0.0,0.0,0.0,0.0,0.0,0.0,0.0,0.0,-2.4164,-2.4879,-2.6353,-2.7435,-2.8112,-2.8958,-2.9702,-3.0311,-3.0412,-3.0463,-3.0395,-2.9381,0.0,-2.5101,-2.4239,0.0,0.0,0.0,0.0,0.0,0.0,0.0,0.0,0.0,0.0,0.0,0.0,0.0,0.0,0.0,0.0,0.0,0.0,0.0,0.0,0.0,0.0,-2.4066,-2.4066,-2.4218,-2.4201,-2.3608,-2.1414,-1.8927,-1.6699,-1.6258,-1.5801,0.0,0.0,0.0,0.0,0.0,0.0,-1.9664,-2.1295,-2.231,-2.231,-2.231,-2.231,-2.231,-2.231,-2.1989,-2.1254,-2.0348,-1.9486,-1.864,-1.6576,0.0,0.0,0.0,0.0,0.0,0.0,0.0,0.0,0.0,0.0,0.0,0.0,0.0,0.0,0.0,0.0,0.0,0.0,0.0,0.0,0.0,0.0,0.0,0.0,0.0,0.0,0.0,0.0,0.0,-1.5256,-1.7429,-1.8483,-1.8648,-1.8523,0.0,0.0,0.0,0.0,0.0,0.0,0.0,0.0,0.0,-2.6015,-2.708,-2.7994,-2.8738,-2.9803,-3.0497,-3.0874,-3.1596,-3.2121,-3.2442,-3.2442,-3.2442,-3.2425,-3.2104,-3.097,-2.9211,-2.7199,-2.5304,-2.363,0.0,0.0,0.0,0.0,-2.2868,-2.3262,-2.409,-2.4377,-2.4242,-2.3414,0.0,0.0,0.0,0.0,0.0,0.0,0.0,-2.2513,-2.2965,-2.4069,-2.5118,-2.5118,-2.5423,-2.5609,-2.5203,-2.4086,-2.2378,-1.9722,-1.886,-1.7946,-1.6052,-1.6086,0.0,0.0,0.0,-1.9427,-2.0534,-2.1634,-2.231,-2.231,-2.231,-2.231,-2.231,-2.231,-2.2175,-2.1837,-2.1498,-2.0974,-2.0213,-1.8826,-1.7337,0.0,0.0,0.0,0.0,0.0,0.0,0.0,0.0,0.0,0.0,0.0,0.0,0.0,0.0,0.0,0.0,0.0,0.0,0.0,0.0,0.0,0.0,0.0,0.0,0.0,0.0,0.0,0.0,-1.7531,-1.9365,-1.9925,-2.0688,-2.0873,0.0,0.0,0.0,0.0,0.0,0.0,-2.5861,-2.6962,-2.8264,-2.9824,-3.0378,-3.1021,-3.1765,-3.2307,-3.2662,-3.2848,-3.3423,-3.3795,-3.3964,-3.3964,-3.3964,-3.3964,-3.3761,-3.3372,-3.2645,-3.004,-2.8095,-2.6759,-2.6759,-2.6167,-2.5439,-2.6184,-2.6353,-2.637,-2.7655,-2.7958,-2.7637,-2.6759,-2.5964,-2.5033,-2.3376,0.0,0.0,0.0,0.0,-2.4644,-2.5186,-2.5896,-2.6471,-2.6471,-2.6725,-2.6826,-2.6285,-2.5879,-2.4898,-2.2525,-2.1549,-2.0517,-1.8471,-1.8589,0.0,-1.8937,-1.9714,-2.067,-2.1634,-2.2073,-2.231,-2.231,-2.231,-2.231,-2.231,-2.231,-2.231,-2.231,-2.231,-2.2057,-2.1498,-2.0737,-1.9452,-1.7574,0.0,0.0,0.0,0.0,0.0,0.0,0.0,0.0,0.0,0.0,0.0,0.0,0.0,0.0,0.0,0.0,0.0,0.0,0.0,0.0,0.0,0.0,0.0,0.0,0.0,0.0,0.0,0.0,0.0,-2.1972,-2.3393,0.0,0.0,0.0,0.0,-2.6251,-2.642,-2.7452,-2.9702,-2.9905,-3.0615,-3.211,-3.2154,-3.2527,-3.3288,-3.3339,-3.3694,-3.4387,-3.4421,-3.481,-3.5504,-3.5504,-3.5504,-3.547,-3.4742,-3.4421,-3.4252,-3.2696,-3.119,-2.9888,-2.9888,-2.8975,-2.774,-2.8518,-2.8349,-2.7789,-2.8636,-2.8433,-2.7891,-2.8586,-2.8281,-2.7603,-2.7485,-2.6979,0.0,0.0,-2.7012,-2.757,-2.7603,-2.823,-2.8842,-2.8842,-2.8281,-2.7722,-2.7688,-2.6607,-2.5355,-2.4492,-2.432,-2.3782,-2.2293,0.0,-2.209,-2.209,-2.1532,-2.1651,-2.3105,-2.2716,-2.231,-2.231,-2.231,-2.231,-2.231,-2.231,-2.231,-2.231,-2.231,-2.2293,-2.226,-2.1532,-2.072,-1.9849,-1.7693,0.0,0.0,0.0,0.0,0.0,0.0,0.0,0.0,0.0,0.0,0.0,0.0,0.0,0.0,0.0,0.0,0.0,0.0,0.0,0.0,0.0,0.0,0.0,0.0,0.0,0.0,0.0,0.0,-2.4306,-2.6167,0.0,-2.6319,-2.7368,-2.8315,-2.8856,-2.977,-3.0649,-3.1461,-3.2408,-3.3169,-3.3694,-3.4184,-3.4793,-3.5571,-3.5571,-3.596,-3.6688,-3.6197,-3.6113,-3.6349,-3.5859,-3.5622,-3.5605,-3.5334,-3.5216,-3.5182,-3.4641,-3.3558,-3.2222,-3.2222,-3.1901,-3.1444,-3.1732,-3.1647,-3.1444,-3.1732,-3.1647,-3.1309,-3.0632,-2.9567,-2.8569,-2.8569,-2.8383,-2.8264,-2.8755,-2.8738,-2.8687,-2.9178,-2.9144,-2.9011,-2.9011,-2.8772,-2.8569,-2.8569,-2.7757,-2.6962,-2.6674,-2.5456,-2.4171,-2.3173,-2.3393,-2.3545,-2.3088,-2.3173,-2.3524,-2.4036,-2.3866,-2.3528,-2.3054,-2.3004,-2.2818,-2.2344,-2.231,-2.231,-2.231,-2.231,-2.231,-2.231,-2.2057,-2.1549,-2.0788,-1.9486,-1.7507,0.0,0.0,0.0,0.0,0.0,0.0,0.0,0.0,0.0,0.0,0.0,0.0,0.0,0.0,0.0,0.0,0.0,0.0,0.0,0.0,0.0,0.0,0.0,0.0,0.0,-2.4052,-2.5795,-2.6285,-2.8569,-2.9803,-2.9025,-3.0328,-3.1326,-3.1579,-3.2713,-3.3525,-3.3778,-3.4962,-3.5639,-3.5639,-3.6129,-3.6637,-3.7161,-3.7161,-3.7415,-3.7905,-3.7398,-3.7161,-3.7144,-3.662,-3.64,-3.64,-3.64,-3.64,-3.64,-3.64,-3.5656,-3.4523,-3.4252,-3.3998,-3.3778,-3.3778,-3.3609,-3.3406,-3.3406,-3.3406,-3.3237,-3.2256,-3.1275,-3.048,-3.048,-3.048,-3.0531,-3.0768,-3.048,-3.0159,-3.0412,-3.0108,-2.9719,-2.9719,-2.9533,-2.9364,-2.9364,-2.8755,-2.8213,-2.8213,-2.659,-2.5,-2.4272,-2.4543,-2.4695,-2.4222,-2.434,-2.4608,-2.4831,-2.4644,-2.432,-2.3816,-2.3545,-2.319,-2.2716,-2.2446,-2.231,-2.231,-2.231,-2.231,-2.231,-2.2073,-2.1701,-2.1221,-1.9925,-1.8318,-1.6339,0.0,0.0,0.0,0.0,0.0,0.0,0.0,0.0,0.0,0.0,0.0,0.0,0.0,0.0,0.0,0.0,0.0,0.0,0.0,0.0,0.0,0.0,0.0,-2.368,-2.6082,-2.7891,-2.7924,-3.0565,-3.2087,-3.1393,-3.2662,-3.3812,-3.4539,-3.5284,-3.6011,-3.6772,-3.7499,-3.7905,-3.7905,-3.7905,-3.7922,-3.7939,-3.7939,-3.7956,-3.7973,-3.7956,-3.7939,-3.7939,-3.7922,-3.7905,-3.7905,-3.7905,-3.7905,-3.7905,-3.7905,-3.7483,-3.6738,-3.596,-3.5199,-3.4523,-3.4523,-3.4083,-3.3474,-3.3474,-3.3457,-3.344,-3.344,-3.3423,-3.3406,-3.3406,-3.3406,-3.3254,-3.2527,-3.2347,-3.2121,-3.141,-3.1207,-3.119,-3.119,-3.0649,-3.0142,-3.0142,-2.955,-2.9008,-2.9008,-2.7791,-2.6539,-2.5812,-2.5676,-2.5676,-2.5642,-2.5017,0.0,-2.5541,-2.5,-2.4574,-2.4557,-2.3883,-2.3444,-2.3393,-2.275,-2.2327,-2.231,-2.231,-2.231,-2.231,-2.16,-2.1237,-2.1237,-1.9012,-1.7862,-1.7845,0.0,0.0,0.0,0.0,0.0,0.0,0.0,0.0,0.0,0.0,0.0,0.0,0.0,0.0,0.0,0.0,0.0,0.0,0.0,0.0,0.0,-2.6387,-2.8298,-2.7554,-2.9076,-3.0463,-3.0987,-3.273,-3.4015,-3.437,-3.5284,-3.6163,-3.6907,-3.7161,-3.7364,-3.7584,-3.7787,-3.7905,-3.7905,-3.7905,-3.8159,-3.8684,-3.87,-3.8954,-3.9478,-3.8937,-3.87,-3.8684,-3.8142,-3.7905,-3.7905,-3.7905,-3.7905,-3.7905,-3.7905,-3.7787,-3.7516,-3.6755,-3.5994,-3.5318,-3.5318,-3.5182,-3.5013,-3.5013,-3.4658,-3.4201,-3.4201,-3.3846,-3.3406,-3.3406,-3.3406,-3.3372,-3.3152,-3.2696,-3.2263,-3.2036,-3.1596,-3.119,-3.119,-3.1055,-3.0903,-3.0903,-3.0311,-2.9803,-2.9803,-2.9008,-2.8112,-2.7351,-2.7215,-2.7029,-2.6488,-2.6218,-2.6167,-2.637,-2.6218,-2.5879,-2.5355,-2.5118,-2.456,-2.3477,-2.3207,-2.2868,-2.2344,-2.231,-2.231,-2.231,-2.2124,-2.2006,-2.2006,-2.0272,-1.9123,0.0,0.0,0.0,0.0,0.0,0.0,0.0,0.0,0.0,0.0,0.0,0.0,0.0,0.0,0.0,0.0,0.0,0.0,0.0,0.0,0.0,0.0,-2.9245,-3.1444,-3.1309,-3.2036,-3.2848,-3.3592,-3.4726,-3.574,-3.6502,-3.6992,-3.7432,-3.7872,-3.8193,-3.8362,-3.8362,-3.865,-3.8819,-3.8819,-3.8819,-3.9022,-3.9445,-3.9445,-3.9665,-4.007,-3.9648,-3.9445,-3.9428,-3.9005,-3.8819,-3.8819,-3.8819,-3.8819,-3.8819,-3.8819,-3.8633,-3.8294,0.0,0.0,0.0,0.0,-3.5622,-3.5622,-3.5622,-3.5334,-3.4962,-3.4962,-3.4675,-3.4336,-3.4336,-3.4336,-3.4269,-3.3947,-3.3541,-3.3136,-3.2831,-3.2205,-3.1647,-3.1647,-3.141,-3.119,-3.119,-3.0869,-3.0565,-3.0565,-3.0209,0.0,-2.8907,-2.8212,-2.7637,-2.7232,-2.6894,-2.6691,-2.6691,-2.6691,-2.6539,-2.6116,-2.5795,-2.5253,-2.4391,-2.3765,0.0,0.0,0.0,-2.2175,-2.1854,-2.1837,0.0,0.0,0.0,0.0,0.0,-1.9452,0.0,0.0,-1.8477,-1.821,0.0,0.0,0.0,0.0,0.0,0.0,0.0,0.0,0.0,0.0,0.0,0.0,0.0,0.0,0.0,0.0,-3.1782,-3.3914,-3.4641,-3.4827,-3.5098,-3.5673,-3.6434,-3.7195,-3.7956,-3.8024,-3.8075,-3.8142,-3.8751,-3.9106,-3.9106,-3.9732,0.0,0.0,0.0,-4.007,-4.007,-4.007,-4.007,-4.007,-4.007,-4.007,-4.007,-4.007,-4.007,-4.007,-4.007,-4.007,-4.007,-4.007,-3.9698,-3.9039,-3.8227,-3.7499,-3.6823,-3.6045,-3.5757,-3.574,-3.5656,0.0,0.0,-3.5622,-3.5622,-3.5622,-3.5622,-3.5622,-3.547,-3.481,-3.4556,-3.4336,-3.3694,-3.2983,-3.2408,-3.2408,-3.185,-3.1309,-3.1309,-3.1258,-3.119,-3.119,-3.119,-3.0987,-3.0345,-2.9042,-2.7992,-2.7806,-2.7249,-2.6793,-2.6708,-2.6691,-2.6691,-2.6691,-2.6116,0.0,-2.5609,-2.4408,-2.3613,-2.3528,-2.2835,-2.2124,-2.1492,-2.1373,-2.1312,-2.1312,-2.1424,-2.1769,-2.2429,-2.2513,-2.2885,-2.3427,-1.9358,-1.8927,0.0,0.0,0.0,0.0,0.0,0.0,0.0,0.0,0.0,0.0,0.0,0.0,0.0,0.0,0.0,-3.136,-3.3643,-3.5453,-3.6231,-3.6857,-3.7077,-3.6603,-3.7229,-3.7973,-3.8717,-3.8785,-3.9022,-3.9614,-3.9783,-3.9868,-3.9868,-4.0003,-4.007,-4.007,-4.007,-4.007,-4.007,-4.007,-4.007,-4.007,-4.007,0.0,-4.007,-4.007,-4.007,-4.007,-4.007,-4.007,-4.007,-4.007,-4.0003,-3.9732,-3.8413,-3.7821,-3.7601,-3.684,-3.6552,-3.6468,-3.5842,-3.5622,-3.5622,-3.5622,-3.5622,-3.5622,-3.5622,-3.5622,0.0,-3.5453,-3.4962,-3.4455,-3.432,-3.3744,-3.3186,-3.3186,-3.2611,-3.211,-3.211,-3.1613,-3.119,-3.119,-3.119,-3.114,-3.1004,-3.026,-2.9245,-2.7975,-2.7689,-2.7385,-2.6776,-2.6691,-2.6691,-2.6691,-2.6573,-2.6251,-2.5659,-2.5355,-2.4915,-2.4306,-2.3596,-2.3122,-2.297,-2.2395,-2.209,-2.209,-2.2665,-2.3038,-2.319,-2.3765,-2.4137,-2.4269,-2.2784,-2.2743,0.0,0.0,0.0,0.0,0.0,0.0,0.0,0.0,0.0,0.0,0.0,-2.7334,-2.9144,0.0,-3.2374,-3.4235,-3.5791,-3.6907,-3.728,-3.799,-3.8311,-3.7922,-3.8227,-3.8734,-3.9462,-3.9529,-3.9681,-4.0054,-4.007,-4.007,-4.007,-4.007,-4.007,-4.007,-4.007,-4.007,-4.007,-4.007,-4.007,-4.007,-4.007,-4.007,-4.007,-4.007,-4.007,-4.007,-4.007,-4.007,-4.007,-4.007,-4.007,-4.0003,-3.9276,-3.8768,-3.8362,-3.7618,-3.7347,-3.7229,-3.6468,-3.6197,-3.6129,-3.574,-3.5622,-3.5622,-3.5622,-3.5622,-3.5622,-3.5622,-3.5351,-3.5064,-3.5064,-3.4506,-3.3947,-3.3947,-3.3389,-3.2747,-3.2357,-3.1985,-3.163,-3.1258,-3.119,-3.119,-3.119,-3.0886,-3.026,-2.9144,-2.8653,-2.8129,-2.7351,-2.7249,-2.7114,-2.6742,-2.6873,-2.685,-2.6473,-2.6113,-2.5521,-2.4557,-2.4137,-2.3934,-2.3934,-2.3596,-2.3393,-2.3393,-2.3748,-2.3934,-2.3934,-2.4337,-2.4678,-2.5033,-2.4661,-2.4713,0.0,0.0,0.0,0.0,0.0,0.0,0.0,0.0,-2.7439,-2.8099,-2.9194,-3.0683,-3.2805,-3.3643,-3.4709,-3.6671,-3.7635,-3.8125,-3.8125,-3.8751,-3.9208,-3.9208,-3.9208,-3.9428,-4.002,-4.007,-4.007,-4.007,-4.007,-4.007,-4.007,-4.007,-4.007,-4.007,-4.007,-4.007,-4.007,-4.007,-4.007,-4.007,-4.007,-4.007,-4.007,-4.007,-4.007,-4.007,-4.007,-4.007,-4.007,-4.007,-4.007,-4.007,-4.007,-3.9715,-3.9106,-3.8396,-3.8125,-3.8007,-3.7263,-3.6992,-3.6874,-3.6096,-3.5842,-3.5808,-3.5673,-3.5622,-3.5622,-3.5622,-3.5622,-3.5622,-3.5622,-3.5165,-3.4709,-3.4709,-3.415,-3.3457,-3.2848,-3.2476,-3.2104,-3.1512,-3.1292,-3.119,-3.119,-3.119,-3.0954,-3.0226,-2.9583,-2.8924,-2.8146,-2.7891,-2.7588,-2.7097,-2.7201,-2.7317,-2.7409,-2.6809,-2.6023,-2.5088,-2.4842,-2.4695,-2.4695,-2.4591,-2.4506,-2.4506,-2.4659,-2.4695,-2.4695,-2.4879,-2.522,-2.5812,-2.5812,-2.5824,-2.2611,-2.2917,-2.3652,-2.5385,-2.6001,-2.7075,0.0,0.0,-3.1565,-3.327,-3.3744,-3.437,-3.5977,-3.6349,-3.6705,-3.7635,-3.8396,-3.887,-3.887,-3.9495,-3.9952,-3.9952,-3.9952,-3.9986,-4.007,-4.007,-4.007,-4.007,-4.007,-4.007,-4.007,-4.007,-4.007,-4.007,-4.007,-4.007,-4.007,-4.007,-4.007,-4.007,-4.007,-4.007,-4.007,-4.007,-4.007,-4.007,-4.007,-4.007,-4.007,-4.007,-4.007,-4.007,-4.007,-4.002,-3.9868,-3.914,-3.887,-3.8768,-3.8024,-3.7787,-3.7652,-3.6891,-3.6654,-3.6518,-3.5825,-3.5622,-3.5622,-3.5622,-3.5622,-3.5622,-3.5622,-3.5554,-3.5504,-3.5504,-3.4912,-3.4336,-3.4269,-3.3203,-3.2256,-3.2171,-3.163,-3.119,-3.119,-3.119,-3.0954,-3.0226,-3.004,-2.9702,-2.8941,-2.8247,-2.7913,-2.8163,-2.767,-2.7439,-2.7794,-2.743,-2.713,-2.6982,-2.6053,-2.549,-2.549,-2.4831,-2.4506,-2.4506,-2.5135,-2.549,-2.549,-2.6133,-2.6488,-2.6573,-2.6573,-2.6589,-2.6814,-2.7313,-2.776,0.0,-3.0396,-3.1601,-3.2214,-3.3293,-3.4328,-3.4975,-3.5859,-3.6806,-3.7872,-3.8075,-3.8311,0.0,-3.9428,-3.9631,-3.9631,-3.9529,-3.9445,-3.9445,-3.9445,-3.9614,-4.0037,-4.007,-4.007,-4.007,-4.007,-4.007,-4.007,-4.007,-4.007,-4.007,-4.007,-4.007,-4.007,-4.007,-4.007,-4.007,-4.007,-4.007,-4.007,-4.007,-4.007,-4.007,-4.007,-4.007,-4.007,-4.007,-4.007,-4.007,-4.007,-4.007,-4.0037,-3.9732,-3.9631,-3.9512,-3.8802,-3.8531,-3.8413,-3.7686,-3.7432,-3.7381,-3.7043,-3.6654,-3.6299,-3.6299,-3.596,-3.5622,-3.5622,-3.5622,-3.5622,-3.5622,-3.5368,-3.503,-3.459,-3.3998,-3.3322,-3.2442,-3.2036,-3.1681,-3.1258,-3.119,-3.1189,-3.1096,-3.1082,-3.0827,-3.0055,-2.9937,-2.9677,-2.916,-2.8827,-2.851,-2.8219,-2.8029,-2.7776,-2.7317,-2.6854,-2.6478,-2.6234,-2.593,-2.5778,-2.5778,-2.6082,-2.6234,-2.6234,-2.6539,-2.6691,-2.6691,-2.6691,-2.6928,-2.9053,0.0,0.0,-3.1587,-3.3459,-3.4666,-3.3475,-3.4956,-3.6492,-3.6173,-3.7172,-3.8291,-3.8772,-3.8933,-3.9157,-3.9698,-3.9952,-4.007,-4.007,-3.9462,-3.9073,-3.9276,-3.9106,-3.9276,-4.0003,-4.007,-4.007,-4.007,-4.007,-4.007,-4.007,-4.007,-4.007,-4.007,-4.007,-4.007,-4.007,-4.007,-4.007,-4.007,-4.007,-4.007,-4.007,-4.007,-4.007,-4.007,-4.007,-4.007,-4.007,-4.007,-4.007,-4.007,-4.007,-4.007,-4.007,-4.007,-4.007,-4.0003,-3.9478,-3.9292,-3.9174,-3.8447,-3.821,-3.8176,-3.7973,-3.7381,-3.6772,-3.6772,-3.6214,-3.5622,-3.5622,-3.5622,-3.5622,-3.5622,-3.5622,-3.547,-3.4928,-3.4754,-3.4312,-3.2872,-3.257,-3.2258,-3.1509,-3.1389,-3.1507,-3.1933,-3.2092,-3.1951,-3.1288,-3.1409,-3.1142,-3.008,-2.9844,-2.9533,-2.8946,-2.8598,-2.8166,-2.7631,-2.7409,-2.7178,-2.6873,-2.6758,-2.6758,-2.6873,-2.6758,-2.6758,-2.6873,-2.6962,-2.6996,-2.7012,-2.7232,-2.7624,0.0,0.0,-3.018,-3.2545,-3.4031,-3.496,-3.5174,-3.6847,-3.817,-3.7575,-3.8114,-3.8651,-3.8624,-3.8811,-3.9005,-3.9022,-3.9614,-4.007,-4.007,-3.9462,-3.9259,-3.9969,-3.9428,-3.9276,-4.0003,-4.007,-4.007,-4.007,-4.007,-4.007,-4.007,-4.007,-4.007,-4.007,-4.007,-4.007,-4.007,-4.007,-4.007,-4.007,-4.007,-4.007,-4.007,-4.007,-4.007,-4.007,-4.007,-4.007,-4.007,-4.007,-4.007,-4.007,-4.007,-4.007,-4.007,-4.007,-4.007,-4.007,-4.0054,-4.0054,-3.9935,-3.9191,-3.8954,-3.8819,-3.8125,-3.7381,-3.6772,-3.6772,-3.6214,-3.5622,-3.5622,-3.5622,-3.5622,-3.5622,-3.5622,-3.556,-3.5588,-3.5394,-3.4887,-3.3634,-3.323,-3.2798,-3.1927,-3.1789,-3.1915,-3.2417,-3.289,-3.2983,-3.2515,-3.2161,-3.1675,-3.0938,-3.0451,-3.0167,-3.0149,-2.9069,-2.8394,-2.8368,-2.7689,-2.7286,-2.7272,-2.6906,-2.6873,-2.7255,-2.6906,-2.6906,-2.7272,-2.7623,-2.7755,-2.7772,-2.8569,-2.8935,0.0,0.0,-3.3643,-3.5561,-3.6747,-3.7341,-3.7077,-3.7935,-3.8667,-3.8144,-3.8234,-3.8368,-3.8327,-3.843,-3.8651,-3.9181,-3.9617,-4.001,-4.0556,-3.9989,-3.9487,-3.9359,-3.9477,-3.9487,-3.9376,-3.9783,-4.007,-4.007,-4.007,-4.007,-4.007,-4.007,-4.007,-4.007,-4.007,-4.007,-4.007,-4.007,-4.007,-4.007,-4.007,-4.007,-4.007,-4.007,-4.007,-4.007,-4.007,-4.007,-4.007,-4.007,-4.007,-4.007,-4.007,-4.007,-4.007,-4.007,-4.007,-4.007,-4.007,-4.007,-4.0037,-3.9783,-3.9715,-3.9665,-3.9411,-3.8497,-3.7533,-3.7533,-3.6603,-3.5622,-3.5622,-3.5622,-3.5622,-3.5622,-3.5622,-3.5622,-3.5622,-3.5822,-3.5769,-3.4846,-3.4443,-3.397,-3.3196,-3.2616,-3.24,-3.2872,-3.3105,-3.3243,-3.3343,-3.3257,-3.2885,-3.2127,-3.1876,-3.1586,-3.1035,-3.0606,-3.029,-3.0071,-2.9833,-2.9556,-2.9299,-2.8858,-2.8826,-2.9268,-2.8858,-2.8858,-2.9299,-2.9086,-2.899,-2.9007,-2.9295,-2.967,-3.366,-3.5073,-3.6009,-3.823,-3.8964,-3.8999,-3.843,-3.8828,-3.901,-3.797,-3.7698,-3.75,-3.6895,-3.664,-3.6949,-3.8369,-3.8905,-3.9652,-4.1031,-4.0577,-4.0078,-4.0026,-3.9893,-3.9779,0.0,0.0,0.0,-4.007,-4.007,-4.007,-4.007,-4.007,-4.007,-4.007,-4.007,-4.007,-4.007,-4.007,-4.007,-4.007,-4.007,-4.007,-4.007,-4.007,-4.007,-4.007,-4.007,-4.007,-4.007,-4.007,-4.007,-4.007,-4.007,-4.007,-4.007,-4.007,-4.007,-4.007,-4.007,-4.007,-4.007,-4.007,-4.007,-4.007,-4.007,-3.9242,-3.8244,-3.7973,-3.7009,-3.596,-3.569,-3.5622,-3.5622,-3.5622,-3.5622,-3.565,-3.5854,-3.6291,-3.6457,-3.571,-3.5543,-3.5186,-3.4133,-3.3391,-3.3057,-3.3361,-3.3419,-3.3522,-3.378,-3.3807,-3.3605,-3.3091,-3.2779,-3.2394,-3.1861,-3.1568,-3.1309,-3.1101,-3.0985,-3.0782,-3.0534,-3.0074,-3.0043,-3.0505,-2.9916,-2.9916,-3.0505,-3.0147,-3.0089,-3.0272,-3.0508,-3.0904,-3.5495,-3.645,-3.7276,-4.0304,-4.0469,-3.9749,-3.9168,-3.937,-3.9127,-3.7,-3.6486,-3.5963,-3.438,0.0,-3.4199,-3.6677,-3.7733,-3.9128,-4.1534,-4.1233,-4.1038,0.0,0.0,0.0,0.0,0.0,0.0,-4.007,-4.007,-4.007,-4.007,-4.007,-4.007,-4.007,-4.007,-4.007,-4.007,-4.007,-4.007,-4.007,-4.007,-4.007,-4.007,-4.007,-4.007,-4.007,-4.007,-4.007,-4.007,-4.007,-4.007,-4.007,-4.007,-4.007,-4.007,-4.007,-4.007,-4.007,-4.007,-4.007,-4.007,-4.007,-4.007,-4.007,-4.007,-3.9563,-3.8853,-3.8159,-3.7398,-3.6603,-3.5876,-3.5656,-3.5622,-3.5622,-3.5622,-3.5739,-3.6291,-3.6843,-3.6998,-3.6255,-3.6502,-3.6335,-3.478,-3.4152,-3.3862,-3.3862,-3.3825,-3.3807,-3.3807,-3.3807,-3.3807,-3.3807,-3.3128,-3.2669,-3.2669,-3.1953,-3.1513,-3.1513,-3.1228,-3.1038,-3.1038,-3.0641,-3.0641,-3.1038,-3.0229,-3.0198,-3.1038,-3.0921,-3.1058,-3.1533,-3.221,-3.2528,-3.678,-3.8505,-3.9937,-4.0157,-4.0047,-3.9538,-3.8217,-3.7564,-3.6714,-3.4914,-3.3588,-3.2437,-3.1433,-3.2584,0.0,-3.6212,-3.8308,0.0,-4.2228,-4.2318,0.0,-4.1817,0.0,-4.1192,-4.0932,-4.04,0.0,-4.007,-4.007,-4.007,-4.007,-4.007,-4.007,-4.007,-4.007,-4.007,-4.007,-4.007,-4.007,-4.007,-4.007,-4.007,-4.007,-4.007,-4.007,-4.007,-4.007,-4.007,-4.007,-4.007,-4.007,-4.007,-4.007,-4.007,-4.007,-4.007,-4.007,-4.007,-4.007,-4.007,-4.007,-4.007,-4.007,-4.007,-4.007,-3.9563,-3.8954,-3.8768,-3.777,-3.6738,-3.6535,-3.6045,-3.5622,-3.5622,-3.5622,-3.5739,-3.6291,-3.6843,-3.7232,-3.738,-3.7352,-3.7009,-3.5974,-3.52,-3.4679,-3.4679,-3.4192,-3.3807,-3.3807,-3.3807,-3.3807,-3.3807,-3.3623,-3.3495,-3.3495,-3.3311,-3.3183,-3.3183,-3.3103,-3.3076,-3.3076,-3.2658,-3.2647,-3.3049,-3.2541,-3.2541,-3.3076,-3.2739,-3.2629,-3.2757,-3.2948,-3.3029,-3.9093,-4.0598,-4.1534,-4.1075,-4.0414,-3.9386,-3.7404,-3.6046,-3.4633,-3.2632,-3.1219,0.0,-2.9292,-3.054,0.0,0.0,0.0,0.0,-4.2178,-4.2832,-4.2921,0.0,-4.2324,0.0,-4.1707,-4.1196,-4.0861,-4.0861,-4.0594,-4.0319,-4.0121,-4.0336,-4.0319,-4.0121,-4.007,-4.007,-4.007,-4.007,-4.007,-4.007,-4.007,-4.007,-4.007,-4.007,-4.007,-4.007,-4.007,-4.007,-4.007,-4.007,-4.007,-4.007,-4.007,-4.007,-4.007,-4.007,-4.007,-4.007,-4.007,-4.007,-4.007,-4.007,-4.007,-4.007,-4.007,-3.9783,-3.9411,-3.9089,-3.8396,-3.7601,-3.6958,-3.6451,-3.6045,-3.569,-3.5783,-3.6097,-3.6643,-3.7135,-3.7649,-3.815,-3.7838,-3.7379,-3.689,-3.6138,-3.5459,-3.5045,-3.4633,-3.4211,-3.3844,-3.3807,-3.3807,-3.3807,-3.3807,-3.3807,-3.3807,-3.3807,-3.3807,-3.3807,-3.3807,-3.3807,-3.3807,-3.3578,-3.3578,-3.3807,-3.339,-3.3408,-3.3807,-3.3408,-3.3302,-3.3465,-3.3442,-3.346,-4.1387,-4.2304,-4.2415,-4.2194,-4.1001,-3.9203,-3.656,-3.4669,-3.2761,-3.0246,0.0,-2.8282,-2.7475,-2.8154,-2.9898,-3.3128,0.0,-3.8487,-4.1827,-4.2892,-4.3369,-4.3479,-4.3014,-4.2711,-4.2711,-4.2162,-4.181,-4.181,-4.1402,-4.0874,-4.0336,-4.075,-4.0797,-4.0336,-4.0353,-4.0303,-4.0204,-4.0204,-4.0154,-4.007,-4.007,-4.007,-4.007,-4.007,-4.007,-4.007,-4.007,-4.007,-4.007,-4.007,-4.007,-4.007,-4.007,-4.007,-4.007,-4.007,-4.007,-4.007,-4.007,-4.007,-4.007,-4.007,-4.007,-4.007,-4.007,-4.007,-3.9952,-3.9326,-3.9105,-3.8781,-3.7445,-3.7017,-3.6724,-3.6,-3.6122,-3.6563,-3.7173,-3.7649,-3.8132,-3.8627,-3.8138,-3.7643,-3.7643,-3.6982,-3.6193,-3.5459,-3.5137,-3.4761,-3.4045,-3.3862,-3.3807,-3.3807,-3.3807,-3.3807,-3.3807,-3.3807,-3.3807,-3.3807,-3.3807,-3.3807,-3.3807,-3.3807,-3.3807,-3.3807,-3.3465,-3.3447,-3.3807,-3.3465,-3.3465,-3.3807,-3.3807,-3.3807,-4.1167,-4.2286,-4.2965,-4.1644,-4.0598,-3.8891,-3.5092,-3.2981,0.0,0.0,-2.6576,-2.5768,-2.4961,-2.6576,-2.9053,-3.2302,0.0,0.0,0.0,0.0,-4.2745,0.0,0.0,0.0,0.0,-4.2162,0.0,-4.181,-4.2162,-4.2121,-4.1552,-4.1578,-4.1578,-4.1508,-4.1508,-4.1286,-4.078,-4.078,-4.0528,-4.007,-4.007,-4.007,-4.007,-4.007,-4.007,-4.007,-4.007,-4.007,-4.007,-4.007,-4.007,-4.007,-4.007,-4.007,-4.007,-4.007,-4.007,-4.007,-4.007,-4.007,-4.007,-4.007,-4.007,-4.007,-4.007,-4.007,-4.0054,-3.9935,-3.9785,-3.9502,-3.8795,-3.8054,-3.7422,-3.7215,-3.68,-3.6643,-3.7578,-3.8183,-3.8578,-3.8676,-3.8597,-3.8487,-3.8487,-3.7808,-3.7221,-3.7074,-3.5899,-3.4935,-3.4807,-3.4211,-3.3807,-3.3807,-3.3807,-3.3807,-3.3807,-3.3807,-3.3807,-3.3807,-3.3807,-3.3807,-3.3807,-3.3807,-3.3807,-3.3807,-3.3734,-3.3734,-3.3807,-3.3734,-3.3734,-3.3807,-3.3807,-3.3807,-4.0873,-4.1662,-4.1974,-4.0781,-3.9239,-3.7055,-3.3385,0.0,0.0,0.0,-2.5034,-2.4649,-2.4263,0.0,0.0,0.0,0.0,0.0,0.0,0.0,0.0,0.0,0.0,0.0,0.0,-4.2865,-4.2678,-4.2678,-4.2958,-4.2752,-4.1853,-4.181,-4.181,-4.181,-4.181,-4.1664,-4.1358,-4.1358,-4.1223,-4.0984,-4.0984,-4.0984,-4.0984,-4.0672,-4.0546,-4.0497,-4.0204,-4.007,-4.007,-4.007,-4.007,-4.007,-4.007,-4.007,-4.007,-4.007,-4.007,-4.007,-4.007,-4.007,-4.007,-4.007,-4.007,-4.007,-4.007,-4.007,-4.007,-4.007,-4.0257,-4.0285,-3.9581,-3.9007,-3.8474,-3.8088,-3.7584,-3.7396,-3.815,-3.8515,-3.8707,-3.8707,-3.8707,-3.8707,-3.8707,-3.8377,-3.7973,-3.7551,-3.6817,-3.5991,-3.51,-3.4642,-3.4266,-3.3844,-3.3807,-3.3807,-3.3807,-3.3807,-3.3807,-3.3807,-3.3807,-3.3807,-3.3807,-3.3807,-3.3807,-3.3807,-3.3807,-3.3807,-3.3807,-3.3807,-3.3807,-3.3807,-3.3807,-3.3807,-4.0249,-4.0855,-4.0928,-4.0102,-3.8083,-3.544,-3.2137,-2.9531,0.0,0.0,-2.419,-2.419,-2.419,0.0,0.0,0.0,0.0,0.0,0.0,0.0,0.0,0.0,0.0,0.0,-4.3497,-4.3497,0.0,-4.3497,-4.3497,-4.3105,-4.2226,-4.2185,-4.2185,-4.2185,-4.2185,-4.2103,-4.1979,-4.1979,-4.1937,-4.181,-4.181,-4.181,-4.1793,-4.1313,-4.1087,-4.1041,-4.0497,-4.0286,-4.0237,-4.0171,-4.007,-4.007,-4.007,-4.007,-4.007,-4.007,-4.007,-4.007,-4.007,-4.007,-4.007,-4.007,-4.007,-4.007,-4.007,-4.007,-4.0121,-4.0254,-4.0707,-4.1046,-4.0418,-3.9933,-3.9459,-3.8516,-3.8187,-3.8183,-3.8627,-3.8707,-3.8707,-3.8707,-3.8707,-3.8707,-3.8707,-3.8707,-3.8487,-3.7845,-3.7606,-3.7019,-3.5716,-3.521,-3.4752,-3.4119,-3.3899,-3.3807,-3.3807,-3.3807,-3.3807,-3.3807,-3.3807,-3.3807,-3.3807,-3.3807,-3.3807,-3.3807,-3.3807,-3.3807,-3.3807,-3.3807,-3.3807,-3.3807,-3.3807,-3.3807,-3.8891,-3.9992,-4.0928,-4.0102,-3.8083,-3.544,-3.2137,0.0,0.0,-2.4704,-2.419,-2.419,-2.419,-2.4318,0.0,0.0,0.0,0.0,0.0,0.0,0.0,0.0,0.0,0.0,-4.3497,-4.3497,-4.3497,-4.3497,-4.3497,-4.3444,-4.3356,-4.3356,-4.3356,-4.3356,-4.3356,-4.3124,-4.2616,-4.2616,-4.2342,-4.181,-4.181,-4.181,-4.181,-4.175,-4.1725,-4.1664,-4.1087,-4.0827,-4.078,-4.0286,-4.007,-4.007,-4.007,-4.007,-4.007,-4.007,-4.007,-4.007,-4.007,-4.007,-4.007,-4.007,-4.007,-4.007,-4.007,-4.007,-4.0204,-4.0703,-4.1268,-4.1707,-4.1637,-4.0913,-3.9842,-3.8293,-3.8271,-3.8627,-3.8707,-3.8707,-3.8707,-3.8707,-3.8707,-3.8707,-3.8707,-3.8707,-3.867,-3.8597,-3.7955,-3.7452,-3.7276,-3.5954,-3.4954,-3.4899,-3.4247,-3.3807,-3.3807,-3.3807,-3.3807,-3.3807,-3.3807,-3.3807,-3.3807,-3.3807,-3.3807,-3.3807,-3.3807,-3.3807,-3.3807,-3.3807,-3.3807,-3.3807,-3.3807,-3.3807,-3.7569,-3.8799,-3.946,-3.8652,-3.6597,-3.4064,-3.1311,0.0,-2.6539,-2.4593,-2.419,-2.419,-2.419,-2.419,-2.4667,0.0,-2.6484,-2.8172,-3.2706,0.0,0.0,0.0,0.0,0.0,0.0,0.0,-4.3497,-4.3497,-4.3497,-4.3497,-4.3497,-4.3497,-4.3497,-4.3497,-4.3497,-4.341,-4.3178,-4.3178,-4.305,-4.281,-4.281,-4.281,-4.281,-4.2501,-4.2342,-4.2302,-4.1707,-4.1446,-4.1446,-4.1196,-4.0891,-4.0577,-4.0577,-4.0577,-4.0528,-4.0204,-4.0286,-4.0577,-4.0577,-4.0368,-4.0171,-4.0497,-4.0368,-4.007,-4.007,-4.0336,-4.0625,-4.0827,-4.1578,-4.2342,-4.2342,-4.1577,-4.037,-3.8765,-3.8546,-3.8707,-3.8707,-3.8707,-3.8707,-3.8707,-3.8707,-3.8707,-3.8707,-3.8707,-3.8707,-3.8707,-3.8432,-3.8046,-3.7551,-3.6909,-3.6119,-3.51,-3.4284,-3.3807,-3.3807,-3.3807,-3.3807,-3.3807,-3.3807,-3.3807,-3.3807,-3.3807,-3.3807,-3.3807,-3.3807,-3.3807,-3.3807,-3.3807,-3.3807,-3.3807,-3.3807,-3.3807,-3.5569,-3.7,-3.7845,-3.7276,-3.5092,-3.2577,0.0,-2.8154,-2.586,-2.4483,-2.419,-2.419,-2.419,-2.419,-2.4392,0.0,-2.4961,-2.6355,-3.0467,-3.1659,0.0,0.0,0.0,-4.1277,0.0,-4.3222,-4.3497,-4.3497,-4.3497,-4.3497,-4.3497,-4.3497,-4.3497,-4.3497,-4.3497,-4.3497,-4.3497,-4.3497,-4.3497,-4.3497,-4.3497,-4.3497,-4.3497,-4.3105,-4.2939,-4.2902,-4.2342,-4.208,-4.2038,-4.1895,-4.1534,-4.1178,-4.1178,-4.1178,-4.1133,-4.072,-4.0844,-4.1178,-4.1178,-4.092,-4.0642,-4.0827,-4.0655,-4.0336,-4.0336,-4.0625,-4.0949,-4.1133,-4.2021,-4.283,-4.2359,-4.1665,-4.0708,-3.9093,-3.8707,-3.8707,-3.8707,-3.8707,-3.8707,-3.8707,-3.8707,-3.8707,-3.8707,-3.8707,-3.8707,-3.8707,-3.8707,-3.8505,-3.7918,-3.7643,-3.7037,-3.5881,-3.4798,-3.4064,-3.3825,-3.3807,-3.3807,-3.3807,-3.3807,-3.3807,-3.3807,-3.3807,-3.3807,-3.3807,-3.3807,-3.3807,-3.3807,-3.3807,-3.3807,-3.3807,-3.3807,-3.3807,-3.2651,-3.4449,-3.6321,-3.6303,-3.3844,-3.1201,0.0,-2.7714,-2.5182,-2.4373,-2.419,-2.419,-2.419,-2.419,-2.419,-2.4208,-2.5548,-2.7438,-2.9879,-3.2265,0.0,0.0,0.0,-4.023,-4.1056,-4.2561,-4.3497,-4.3497,-4.3497,-4.3497,-4.3497,-4.3497,-4.3497,-4.3497,-4.3497,-4.3497,-4.3497,-4.3497,-4.3497,-4.3497,-4.3497,-4.3497,-4.3497,-4.3479,-4.3479,-4.3444,-4.2939,-4.2711,-4.2655,-4.2038,-4.181,-4.181,-4.181,-4.181,-4.181,-4.1793,-4.181,-4.181,-4.181,-4.181,-4.1664,-4.1087,-4.0903,-4.0903,-4.0903,-4.0903,-4.1041,-4.1621,-4.26,-4.313,-4.1519,-4.113,-4.0708,-3.9093,-3.8707,-3.8707,-3.8707,-3.8707,-3.8707,-3.8707,-3.8707,-3.8707,-3.8707,-3.8707,-3.8707,-3.8707,-3.8707,-3.8707,-3.8689,-3.7991,-3.7477,-3.7489,-3.5991,-3.4688,-3.3862,-3.3807,-3.3807,-3.3807,-3.3807,-3.3807,-3.3807,-3.3807,-3.3807,-3.3807,-3.3807,-3.3807,-3.3807,-3.3807,-3.3807,-3.3807,-3.3807,-3.3807,-3.0522,-3.1935,-3.2816,-3.2265,-3.0944,-2.9402,-2.8062,-2.6521,-2.5182,-2.4373,-2.419,-2.419,-2.419,-2.419,-2.474,-2.6392,-2.709,0.0,0.0,0.0,0.0,-3.7257,-4.0359,-4.2451,0.0,-4.3185,-4.3497,-4.3497,-4.3497,-4.3497,-4.3497,-4.3497,-4.3497,-4.3497,-4.3497,-4.3497,-4.3497,-4.3497,-4.3497,-4.3497,-4.3497,-4.3497,-4.3497,-4.3497,-4.3497,-4.3479,-4.3339,-4.325,-4.325,-4.3032,-4.2752,-4.244,-4.244,-4.244,-4.2342,-4.1937,-4.208,-4.244,-4.244,-4.2162,-4.175,-4.1578,-4.1534,-4.1446,-4.1041,-4.1178,-4.1707,-4.2678,-4.3232,-4.3259,-4.2194,-4.1515,-4.0836,-3.9772,-3.9093,-3.8707,-3.8707,-3.8707,-3.8707,-3.8707,-3.8707,-3.8707,-3.8707,-3.8707,-3.8707,-3.8707,-3.8707,-3.8707,-3.8707,-3.8487,-3.8102,-3.7581,-3.7019,-3.6138,-3.4743,-3.4119,-3.3807,-3.3807,-3.3807,-3.3807,-3.3807,-3.3807,-3.3807,-3.3807,-3.3807,-3.3807,-3.3807,-3.3807,-3.3807,-3.3807,-3.3807,-3.3807,0.0,-2.942,-3.0375,-2.9879,-2.8925,-2.7842,-2.6833,-2.5731,-2.4795,-2.43,-2.419,-2.419,-2.419,-2.419,-2.4685,-2.619,-2.6686,0.0,0.0,0.0,0.0,-3.8046,0.0,0.0,-4.302,-4.3314,-4.3497,-4.3497,-4.3497,-4.3497,-4.3497,-4.3497,-4.3497,-4.3497,-4.3497,-4.3497,-4.3497,-4.3497,-4.3497,-4.3497,-4.3497,-4.3497,-4.3497,-4.3497,-4.3497,-4.3497,-4.3497,-4.3497,0.0,-4.3497,-4.3286,-4.3014,-4.3014,-4.3014,-4.2976,-4.258,-4.2657,-4.3014,-4.3014,-4.2752,-4.2386,-4.2203,-4.2121,-4.208,-4.1707,-4.1853,-4.2324,-4.3232,-4.3497,-4.3296,-4.2506,-4.1699,-4.091,-4.0084,-3.9294,-3.8707,-3.8707,-3.8707,-3.8707,-3.8707,-3.8707,-3.8707,-3.8707,-3.8707,-3.8707,-3.8707,-3.8707,-3.8707,-3.8707,-3.8707,-3.8505,-3.801,-3.7661,-3.6945,-3.5624,-3.4743,-3.4119,-3.3825,-3.3807,-3.3807,-3.3807,-3.3807,-3.3807,-3.3807,-3.3807,-3.3807,-3.3807,-3.3807,-3.3807,-3.3807,-3.3807,-3.3807,0.0,-2.6722,-2.848,-2.848,-2.7365,-2.6264,-2.6264,-2.5107,0.0,-2.4098,-2.4116,-2.4153,-2.4263,-2.4245,-2.4281,-2.4575,-2.5236,0.0,0.0,0.0,0.0,0.0,-4.0818,0.0,-4.2304,-4.3057,-4.3497,-4.3497,-4.3497,-4.3497,-4.3497,-4.3497,-4.3497,-4.3497,-4.3497,-4.3497,-4.3497,-4.3497,-4.3497,-4.3497,-4.3497,-4.3497,-4.3497,-4.3497,-4.3497,-4.3497,-4.3497,-4.3497,-4.3497,-4.3497,-4.3497,-4.3497,-4.3497,-4.3497,-4.3497,-4.3497,-4.3497,-4.3497,-4.3497,-4.3497,-4.341,-4.2902,-4.275,-4.2711,-4.275,-4.275,-4.2864,-4.3375,-4.3497,-4.3314,-4.258,-4.1754,-4.0928,-4.0157,-3.9331,-3.8707,-3.8707,-3.8707,-3.8707,-3.8707,-3.8707,-3.8707,-3.8707,-3.8707,-3.8707,-3.8707,-3.8707,-3.8707,-3.8707,-3.8707,-3.8707,-3.8707,-3.8028,-3.7257,-3.645,-3.555,-3.4642,-3.3844,-3.3807,-3.3807,-3.3807,-3.3807,-3.3807,-3.3807,-3.3807,-3.3807,-3.3807,-3.3807,-3.3807,-3.3807,-3.3844,-3.388,-2.1455,0.0,-2.3492,-2.3492,-2.3199,-2.2923,0.0,-2.263,-2.2538,0.0,0.0,-2.3657,-2.4887,-2.4612,-2.5199,-2.8282,0.0,0.0,0.0,0.0,0.0,-4.2286,-4.2818,-4.3002,-4.3185,-4.3387,-4.3497,-4.3497,-4.3497,-4.3497,-4.3497,-4.3497,-4.3497,-4.3497,-4.3497,-4.3497,-4.3497,-4.3497,-4.3497,-4.3497,-4.3497,-4.3497,-4.3497,-4.3497,-4.3497,-4.3497,-4.3497,-4.3497,-4.3497,-4.3497,-4.3497,-4.3497,-4.3497,-4.3497,-4.3497,-4.3497,-4.3497,-4.3497,-4.3497,-4.3497,-4.3479,-4.3375,-4.3014,-4.2788,-4.3178,-4.3286,-4.3339,-4.3444,-4.3497,-4.3442,-4.3259,-4.2158,-4.1056,-4.0873,-3.9735,-3.8707,-3.8707,-3.8707,-3.8707,-3.8707,-3.8707,-3.8707,-3.8707,-3.8707,-3.8707,-3.8707,-3.8707,-3.8707,-3.8707,-3.8707,-3.8707,-3.8707,-3.8524,-3.8083,-3.7276,-3.5862,-3.4642,-3.3844,-3.3807,-3.3807,-3.3807,-3.3807,-3.3807,-3.3807,-3.3807,-3.3807,-3.3807,-3.3807,-3.3807,-3.3807,-3.4439,-3.4723,-1.995,-2.1125,-2.2354,-2.2354,-2.263,-2.2887,-2.2887,0.0,0.0,0.0,0.0,0.0,-2.4685,0.0,0.0,0.0,-2.9475,0.0,0.0,0.0,0.0,-4.324,-4.3497,-4.3497,-4.3497,-4.3497,-4.3497,-4.3497,-4.3497,-4.3497,-4.3497,-4.3497,-4.3497,-4.3497,-4.3497,-4.3497,-4.3497,-4.3497,-4.3497,-4.3497,-4.3497,-4.3497,-4.3497,-4.3497,-4.3497,-4.3497,-4.3497,-4.3497,-4.3497,-4.3497,-4.3497,-4.3497,-4.3497,-4.3497,-4.3497,-4.3497,-4.3497,-4.3497,-4.3497,-4.3497,-4.3497,-4.3497,-4.3286,-4.3142,-4.341,-4.3497,-4.3497,-4.3497,-4.3497,-4.3497,-4.3497,-4.2304,-4.1111,-4.1111,-3.9882,-3.8707,-3.8707,-3.8707,-3.8707,-3.8707,-3.8707,-3.8707,-3.8707,-3.8707,-3.8707,-3.8707,-3.8707,-3.8707,-3.8707,-3.8707,-3.8707,-3.8707,-3.8707,-3.8377,-3.7551,-3.667,-3.5642,-3.4422,-3.4348,-3.4191,-3.3825,-3.3807,-3.3807,-3.3807,-3.3807,-3.3807,-3.3807,-3.4173,-3.4338,-3.4357,-3.5219,-3.5607,-1.9286,-2.1106,-2.2923,-2.2667,-2.3235,-2.3823,-2.3785,0.0,0.0,0.0,0.0,0.0,0.0,0.0,0.0,0.0,0.0,0.0,-3.834,-4.0359,-4.1827,-4.3314,-4.3497,-4.3497,-4.3497,-4.3497,-4.3497,-4.3497,-4.3497,-4.3497,-4.3497,-4.3497,-4.3497,-4.3497,-4.3497,-4.3497,-4.3497,-4.3497,-4.3497,-4.3497,-4.3497,-4.3497,-4.3497,-4.3497,-4.3497,-4.3497,-4.3497,-4.3497,-4.3497,-4.3497,-4.3497,-4.3497,-4.3497,-4.3497,-4.3497,-4.3497,-4.3497,-4.3497,-4.3497,-4.3497,-4.3497,-4.3497,-4.3497,-4.3497,-4.3497,-4.3497,-4.3497,-4.3497,-4.3497,-4.3461,-4.3332,-4.2213,-4.1075,-4.0965,-3.979,-3.8707,-3.8707,-3.8707,-3.8707,-3.8707,-3.8707,-3.8707,-3.8707,-3.8707,-3.8707,-3.8707,-3.8707,-3.8707,-3.8707,-3.8707,-3.8707,-3.8707,-3.8707,-3.8414,-3.7734,-3.7661,-3.7037,-3.5494,-3.5266,-3.4815,-3.4017,-3.3862,-3.3807,-3.3807,-3.3925,-3.3981,-3.3999,-3.4797,-3.521,-3.523,-3.6067,-3.6489,-1.9106,-2.1106,-2.2648,-2.1236,-2.1528,-2.2081,0.0,0.0,0.0,0.0,0.0,0.0,0.0,0.0,0.0,0.0,0.0,-3.7386,0.0,0.0,-4.2451,-4.3387,-4.3497,-4.3497,-4.3497,-4.3497,-4.3497,-4.3497,-4.3497,-4.3497,-4.3497,-4.3497,-4.3497,-4.3497,-4.3497,-4.3497,-4.3497,-4.3497,-4.3497,-4.3497,-4.3497,-4.3497,-4.3497,-4.3497,-4.3497,-4.3497,-4.3497,-4.3497,-4.3497,-4.3497,-4.3497,-4.3497,-4.3497,-4.3497,-4.3497,-4.3497,-4.3497,-4.3497,-4.3497,-4.3497,-4.3497,-4.3497,-4.3497,-4.3497,-4.3497,-4.3497,-4.3497,-4.3497,-4.3497,-4.3332,-4.2653,-4.1809,-4.0946,-4.0249,-3.9386,-3.8707,-3.8707,-3.8707,-3.8707,-3.8707,-3.8707,-3.8707,-3.8707,-3.8707,-3.8707,-3.8707,-3.8707,-3.8707,-3.8707,-3.8707,-3.8707,-3.8707,-3.8707,-3.8652,-3.8524,-3.8524,-3.8126,-3.7192,-3.6472,-3.5715,-3.4833,-3.4173,-3.3807,-3.3807,-3.4475,-3.4815,-3.4815,-3.5678,-3.6094,-3.6103,-3.6936,-3.7302,-1.8304,-1.9933,-2.1498,-2.177,-2.3144,-2.4244,0.0,0.0,0.0,0.0,0.0,0.0,0.0,0.0,0.0,0.0,0.0,-3.8982,-4.1423,-4.2066,-4.2598,-4.3387,-4.3497,-4.3497,-4.3497,-4.3497,-4.3497,-4.3497,-4.3497,-4.3497,-4.3497,-4.3497,-4.3497,-4.3497,-4.3497,-4.3497,-4.3497,-4.3497,-4.3497,-4.3497,-4.3497,-4.3497,-4.3497,-4.3497,-4.3497,-4.3497,-4.3497,-4.3497,-4.3497,-4.3497,-4.3497,-4.3497,-4.3497,-4.3497,-4.3497,-4.3497,-4.3497,-4.3497,-4.3497,-4.3497,-4.3497,-4.3497,-4.3497,-4.3497,-4.3497,-4.3497,-4.3497,-4.3497,-4.3497,-4.3406,-4.3039,-4.2029,-4.102,-4.0653,-3.9606,-3.8707,-3.8707,-3.8707,-3.8707,-3.8707,-3.8707,-3.8707,-3.8707,-3.8707,-3.8707,-3.8707,-3.8707,-3.8707,-3.8707,-3.8707,-3.8707,-3.8707,-3.8707,-3.8707,-3.8707,-3.8707,-3.8383,-3.7546,-3.674,-3.6121,-3.5734,-3.5356,-3.5164,-3.5164,-3.5504,-3.5699,-3.5703,-3.6523,-3.6953,-3.6973,-3.776,-3.8151,-1.7578,-1.9055,-2.0769,-2.2464,0.0,0.0,0.0,0.0,0.0,0.0,0.0,0.0,0.0,0.0,0.0,-3.6127,-3.8212,-4.0047,-4.2268,-4.258,-4.28,-4.3424,-4.3497,-4.3497,-4.3497,-4.3497,-4.3497,-4.3497,-4.3497,-4.3497,-4.3497,-4.3497,-4.3497,-4.3497,-4.3497,-4.3497,-4.3497,-4.3497,-4.3497,-4.3497,-4.3497,-4.3497,-4.3497,-4.3497,-4.3497,-4.3497,-4.3497,-4.3497,-4.3497,-4.3497,-4.3497,-4.3497,-4.3497,-4.3497,-4.3497,-4.3497,-4.3497,-4.3497,-4.3497,-4.3497,-4.3497,-4.3497,-4.3497,-4.3497,-4.3497,-4.3497,-4.3497,-4.3497,-4.3497,-4.3442,-4.3259,-4.2158,-4.1056,-4.0873,-3.9735,-3.8707,-3.8707,-3.8707,-3.8707,-3.8707,-3.8707,-3.8707,-3.8707,-3.8707,-3.8707,-3.8707,-3.8707,-3.8707,-3.8707,-3.8707,-3.8707,-3.8707,-3.8707,-3.8707,-3.8707,-3.8707,-3.8438,-3.7814,-3.7028,-3.6589,-3.6583,-3.6399,-3.6307,-3.6307,-3.6491,-3.657,-3.6565,-3.74,-3.7778,-3.7796,-3.842,-3.8707,-1.7385,-1.9469,-2.1435,-2.2321,0.0,0.0,0.0,0.0,0.0,0.0,0.0,0.0,0.0,0.0,-3.5412,-3.8102,-3.9882,-4.1515,-4.3167,-4.3406,-4.3424,-4.3479,-4.3497,-4.3497,-4.3497,-4.3497,-4.3497,-4.3497,-4.3497,-4.3497,-4.3497,-4.3497,-4.3497,-4.3497,-4.3497,-4.3497,-4.3497,-4.3497,-4.3497,-4.3497,-4.3497,-4.3497,-4.3497,-4.3497,-4.3497,-4.3497,-4.3497,-4.3497,-4.3497,-4.3497,-4.3497,-4.3497,-4.3497,-4.3497,-4.3497,-4.3497,-4.3497,-4.3497,-4.3497,-4.3497,-4.3497,-4.3497,-4.3497,-4.3497,-4.3497,-4.3497,-4.3497,-4.3497,-4.3497,-4.3314,-4.258,-4.1754,-4.0928,-4.0157,-3.9331,-3.8707,-3.8707,-3.8707,-3.8707,-3.8707,-3.8707,-3.8707,-3.8707,-3.8707,-3.8707,-3.8707,-3.8707,-3.8707,-3.8707,-3.8707,-3.8707,-3.8707,-3.8707,-3.8707,-3.8707,-3.8707,-3.8689,-3.8634,-3.7863,-3.74,-3.7412,-3.6699,-3.6304,-3.6304,-3.7034,-3.7412,-3.7418,-3.8224,-3.8634,-3.8634,-3.867,-3.8707,-1.6284,-1.8297,-2.0375,-2.1886,0.0,0.0,0.0,0.0,0.0,0.0,0.0,0.0,0.0,0.0,-3.5272,-3.718,-3.92,-4.0943,-4.2032,-4.2668,-4.3014,-4.3014,-4.3286,-4.3497,-4.3497,-4.3497,-4.3497,-4.3497,-4.3497,-4.3497,-4.3497,-4.3497,-4.3497,-4.3497,-4.3497,-4.3497,-4.3497,-4.3497,-4.3497,-4.3497,-4.3497,-4.3497,-4.3497,-4.3497,-4.3497,-4.3497,-4.3497,-4.3497,-4.3497,-4.3497,-4.3497,-4.3497,-4.3497,-4.3497,-4.3497,-4.3497,-4.3497,-4.3497,-4.3497,-4.3497,-4.3497,-4.3497,-4.3497,-4.3497,-4.3497,-4.3497,-4.3497,-4.3497,-4.3497,-4.3424,-4.313,-4.2084,-4.1038,-4.0726,-3.9662,-3.8707,-3.8707,-3.8707,-3.8707,-3.8707,-3.8707,-3.8707,-3.8707,-3.8707,-3.8707,-3.8707,-3.8707,-3.8707,-3.8707,-3.8707,-3.8707,-3.8707,-3.8707,-3.8707,-3.8707,-3.8707,-3.8707,-3.8707,-3.842,-3.8242,-3.8242,-3.7955,-3.7778,-3.7778,-3.8083,-3.8242,-3.8242,-3.8548,-3.8707,-3.8707,-3.8707,-3.8707,-1.601,-1.7907,-1.9993,0.0,0.0,0.0,0.0,0.0,0.0,0.0,0.0,0.0,0.0,0.0,0.0,0.0,-3.8654,-4.0267,-4.1076,-4.1902,-4.248,-4.2673,-4.3014,-4.3321,-4.3479,-4.3339,-4.325,-4.325,-4.325,-4.316,-4.2977,-4.3321,-4.3321,-4.2977,-4.316,-4.316,-4.2977,-4.2977,-4.2977,-4.2977,-4.2977,-4.3142,-4.3497,-4.3497,-4.3497,-4.3497,-4.3497,-4.3497,-4.3497,-4.3497,-4.3497,-4.3497,-4.3497,-4.3497,-4.3497,-4.3497,-4.3497,-4.3497,-4.3497,-4.3497,-4.3497,-4.3497,-4.3497,-4.3497,-4.3497,-4.3497,-4.3497,-4.3497,-4.3497,-4.3424,-4.3185,-4.2121,-4.1111,-4.1111,-3.9882,-3.8707,-3.8707,-3.8707,-3.8707,-3.8707,-3.8707,-3.8707,-3.8707,-3.8707,-3.8707,-3.8707,-3.8707,-3.8707,-3.8707,-3.8707,-3.8707,-3.8707,-3.8707,-3.8707,-3.8707,-3.8707,-3.8707,-3.8707,-3.8707,-3.8707,-3.8707,-3.8707,-3.8707,-3.8707,-3.8707,-3.8707,-3.8707,-3.8707,-3.8707,-3.8707,-3.8707,-3.8548,-1.6876,-1.8663,0.0,0.0,0.0,0.0,0.0,0.0,0.0,0.0,0.0,0.0,0.0,0.0,0.0,-3.6907,-3.8483,-3.9739,-4.0542,-4.1339,-4.2021,-4.2598,-4.2693,-4.2902,-4.3444,-4.3014,-4.2711,-4.2711,-4.2711,-4.244,-4.1853,-4.2847,-4.2977,-4.1853,-4.2382,-4.2382,-4.181,-4.181,-4.181,-4.181,-4.181,-4.2386,-4.3479,-4.3479,-4.3479,-4.3479,-4.3479,-4.3497,-4.3479,-4.3497,-4.3497,-4.3497,-4.3497,-4.3497,-4.3497,-4.3497,-4.3497,-4.3497,-4.3497,-4.3497,-4.3497,-4.3497,-4.3497,-4.3497,-4.3497,-4.3497,-4.3497,-4.3479,-4.3479,-4.3296,-4.2506,-4.1699,-4.1111,-4.1111,-3.9882,-3.8707,-3.8707,-3.8707,-3.8707,-3.8707,-3.8707,-3.8707,-3.8707,-3.8707,-3.8707,-3.8707,-3.8707,-3.8707,-3.8707,-3.8707,-3.8707,-3.8707,-3.8707,-3.8707,-3.8707,-3.8707,-3.8707,-3.8707,-3.8707,-3.8707,-3.8707,-3.8707,-3.8707,-3.8707,-3.8707,-3.8707,-3.8707,-3.8707,-3.8707,-3.8689,-3.8689,-3.8261,-1.6755,-1.8416,0.0,0.0,0.0,0.0,0.0,0.0,0.0,0.0,0.0,0.0,-3.5014,0.0,0.0,-3.5793,-3.7114,-3.8196,-3.8422,-3.994,-4.0937,-4.0699,-4.1882,-4.2616,-4.2306,-4.2144,-4.208,-4.208,-4.208,-4.1979,-4.181,-4.2144,-4.2144,-4.181,-4.1979,-4.1979,-4.181,-4.181,-4.181,-4.181,-4.181,-4.1979,-4.2306,-4.2306,-4.2306,-4.2306,-4.2306,-4.2541,-4.2976,-4.3321,-4.3497,-4.3497,-4.3497,-4.3497,-4.3497,-4.3497,-4.3497,-4.3497,-4.3497,-4.3497,-4.3497,-4.3497,-4.3497,-4.3497,-4.3497,-4.3497,-4.3369,-4.2818,-4.2653,-4.247,-4.1662,-4.0855,-4.0267,-4.0267,-3.946,-3.8707,-3.8707,-3.8707,-3.8707,-3.8707,-3.8707,-3.8707,-3.8707,-3.8707,-3.8707,-3.8707,-3.8707,-3.8707,-3.8707,-3.8707,-3.8707,-3.8707,-3.8707,-3.8707,-3.8707,-3.8707,-3.8707,-3.8707,-3.8707,-3.8707,-3.8707,-3.8707,-3.8707,-3.8707,-3.8707,-3.8707,-3.8707,-3.8707,-3.842,-3.7863,-3.7863,-3.7418,-1.7845,0.0,0.0,0.0,0.0,0.0,0.0,0.0,0.0,0.0,0.0,-3.4703,-3.5317,-3.517,0.0,-3.5359,-3.644,-3.7229,-3.7229,-3.8599,-3.9643,-3.9805,-4.0856,-4.16,-4.1775,-4.1578,-4.1446,-4.1446,-4.1446,-4.1358,-4.1168,-4.1534,-4.1578,-4.1168,-4.1313,-4.1313,-4.1122,-4.1105,-4.1105,-4.1105,-4.1105,-4.1105,-4.1168,-4.1578,-4.1937,-4.2162,-4.2162,-4.2342,-4.275,-4.305,-4.3304,-4.3497,-4.3497,-4.3497,-4.3497,-4.3497,-4.3497,-4.3497,-4.3497,-4.3497,-4.3497,-4.3497,-4.3497,-4.3497,-4.3497,-4.3277,-4.291,-4.2433,-4.2066,-4.1644,-4.0836,-4.0267,-3.99,-3.99,-3.9294,-3.8707,-3.8707,-3.8707,-3.8707,-3.8707,-3.8707,-3.8707,-3.8707,-3.8707,-3.8707,-3.8707,-3.8707,-3.8707,-3.8707,-3.8707,-3.8707,-3.8707,-3.8707,-3.8707,-3.8707,-3.8707,-3.8707,-3.8707,-3.8707,-3.8707,-3.8707,-3.8707,-3.8707,-3.8707,-3.8707,-3.8707,-3.8707,-3.8383,-3.7973,-3.7491,-3.7173,-3.6567,0.0,0.0,0.0,0.0,0.0,0.0,0.0,0.0,0.0,0.0,0.0,-3.4726,-3.547,-3.5064,-3.481,-3.5504,-3.6214,-3.6671,-3.6671,-3.736,-3.8274,-3.9381,-3.9656,-4.0175,-4.1314,-4.0941,-4.0637,-4.0706,-4.0723,-4.0539,-4.0121,-4.1076,-4.115,-4.0121,-4.0577,-4.0577,-4.0121,-4.007,-4.007,-4.007,-4.007,-4.007,-4.0121,-4.115,-4.1937,-4.248,-4.2577,-4.2616,-4.2616,-4.2732,-4.305,-4.3497,-4.3497,-4.3497,-4.3497,-4.3497,-4.3497,-4.3497,-4.3497,-4.3497,-4.3497,-4.3497,-4.3497,-4.3479,-4.3406,-4.2873,-4.2268,-4.2121,-4.1552,-4.0818,-3.9992,-3.979,-3.979,-3.979,-3.9239,-3.8707,-3.8707,-3.8707,-3.8707,-3.8707,-3.8707,-3.8707,-3.8707,-3.8707,-3.8707,-3.8707,-3.8707,-3.8707,-3.8707,-3.8707,-3.8707,-3.8707,-3.8707,-3.8707,-3.8707,-3.8707,-3.8707,-3.8707,-3.8707,-3.8707,-3.8707,-3.8707,-3.8707,-3.8707,-3.8707,-3.867,-3.8585,-3.7863,-3.74,-3.7247,-3.6519,-3.5715,0.0,0.0,0.0,0.0,0.0,0.0,0.0,0.0,0.0,0.0,-3.4607,-3.4726,-3.547,-3.5487,-3.5436,-3.5588,-3.5757,-3.5876,-3.5876,-3.6918,-3.761,-3.7473,-3.8343,-3.8891,-3.8768,-3.8615,-3.8775,-3.9353,-3.9435,-3.9593,-4.0104,-4.0336,-4.0336,-4.0121,-4.0204,-4.0204,-4.007,-4.007,-4.007,-4.007,-4.007,-4.007,-4.0121,-4.0336,-4.0563,-4.0689,-4.1595,-4.1979,-4.2062,-4.2958,-4.341,-4.3497,-4.3497,-4.3497,-4.3497,-4.3497,-4.3497,-4.3497,-4.3497,-4.3497,-4.3497,-4.3497,-4.3497,-4.3369,-4.2745,-4.2433,-4.2047,-4.0763,-4.0286,-3.9974,-3.9166,-3.8964,-3.8964,-3.8964,-3.8836,-3.8707,-3.8707,-3.8707,-3.8707,-3.8707,-3.8707,-3.8707,-3.8707,-3.8707,-3.8707,-3.8707,-3.8707,-3.8707,-3.8707,-3.8707,-3.8707,-3.8707,-3.8707,-3.8707,-3.8707,-3.8707,-3.8707,-3.8707,-3.8707,-3.8707,-3.8707,-3.8707,-3.8707,-3.8707,-3.8707,-3.8401,-3.776,-3.7564,-3.6831,-3.5542,-3.5358,-3.4833,0.0,0.0,0.0,0.0,0.0,0.0,0.0,0.0,0.0,-3.3203,-3.3998,-3.4607,-3.5013,-3.5368,-3.5622,-3.5622,-3.5622,-3.5622,-3.5622,-3.6178,-3.6659,-3.6768,-3.7382,-3.7803,-3.7902,-3.7905,-3.8075,-3.8447,-3.8464,-3.8633,-3.9022,-3.9039,-3.9039,-3.9039,-3.9039,-3.9208,-3.9546,-3.9546,-3.9732,-4.007,-4.007,-4.007,-4.0121,-4.0368,-4.0319,-4.0171,-4.1013,-4.1534,-4.1853,-4.2426,-4.2865,-4.3142,-4.3142,-4.2958,-4.2734,-4.2995,-4.2832,-4.2522,-4.2842,-4.2671,-4.2359,-4.2359,-4.2359,-4.2268,-4.1864,-4.146,-4.0983,-4.0139,-3.9625,-3.9239,-3.8817,-3.8707,-3.8707,-3.8707,-3.8707,-3.8707,-3.8707,-3.8707,-3.8707,-3.8707,-3.8707,-3.8707,-3.8707,-3.8707,-3.8707,-3.8707,-3.8465,-3.8415,-3.8676,-3.8465,-3.8433,-3.8658,-3.8707,-3.8707,-3.8707,-3.8707,-3.8707,-3.8707,-3.8707,-3.8707,-3.8707,-3.8707,-3.8707,-3.8707,-3.8315,-3.7918,-3.7491,-3.6685,-3.5864,-3.4989,-3.4586,-3.4209,0.0,0.0,0.0,0.0,0.0,0.0,0.0,0.0,0.0,-3.1968,-3.3169,-3.415,-3.4286,-3.4912,-3.5419,-3.5419,-3.5537,-3.5622,-3.5622,-3.5622,-3.5859,-3.6502,-3.6586,-3.6823,-3.7449,-3.7516,-3.7567,-3.7702,-3.7719,-3.777,-3.7905,-3.7905,-3.7905,-3.7905,-3.7905,-3.8193,-3.8802,-3.8802,-3.9106,-3.9698,-3.9698,-3.9698,-3.9748,-4.0199,-4.0288,-4.0121,-4.0655,-4.1161,-4.1664,-4.1768,-4.208,-4.2519,-4.2519,-4.2172,-4.1682,-4.2185,-4.1859,-4.1269,-4.1791,-4.1577,-4.1111,-4.1111,-4.1111,-4.1075,-4.0946,-4.0432,-3.9863,-3.9717,-3.9203,-3.8707,-3.8707,-3.8627,-3.8596,-3.8676,-3.8627,-3.8596,-3.8676,-3.8707,-3.8707,-3.8707,-3.8627,-3.8578,-3.8658,-3.8627,-3.8546,-3.8546,-3.8267,-3.8183,-3.8515,-3.8267,-3.8216,-3.8658,-3.8707,-3.8707,-3.8707,-3.8707,-3.8707,-3.8707,-3.8707,-3.8707,-3.8707,-3.8707,-3.8634,-3.8493,-3.7863,-3.743,-3.7308,-3.5763,-3.4934,-3.4778,-3.4109,-3.3807,0.0,0.0,0.0,0.0,0.0,0.0,0.0,0.0,-3.1224,0.0,-3.2002,-3.278,-3.344,-3.415,-3.4641,-3.4641,-3.5182,-3.5622,-3.5622,-3.5622,-3.5656,-3.5757,-3.5774,-3.5808,-3.5926,-3.5926,-3.6214,-3.6874,-3.6924,-3.7212,-3.7872,-3.7905,-3.7905,-3.7905,-3.7905,-3.7956,-3.8058,-3.8058,-3.8108,-3.8193,-3.8193,-3.8193,-3.8193,-3.8272,-3.8967,-4.0121,-4.0655,-4.0949,-4.1041,-4.1578,-4.1853,-4.1937,-4.1937,-4.1469,-4.0866,-4.0966,-4.0745,-4.0456,-4.0546,-4.081,-4.1111,-4.1111,-4.1111,-4.0983,-4.0267,-3.9992,-3.9753,-3.9056,-3.8781,-3.8707,-3.8707,-3.835,-3.8132,-3.8578,-3.835,-3.8132,-3.8596,-3.8707,-3.8707,-3.8707,-3.8332,-3.8132,-3.8627,-3.83,-3.8032,-3.8032,-3.835,-3.8465,-3.8065,-3.835,-3.8627,-3.8707,-3.8707,-3.8707,-3.8707,-3.8707,-3.8707,-3.8707,-3.8707,-3.8707,-3.8707,-3.8707,-3.8383,-3.7668,-3.7546,-3.7154,-3.6454,-3.5477,-3.4649,-3.3962,-3.3844,-3.3807,0.0,0.0,0.0,0.0,0.0,0.0,0.0,0.0,-3.0581,-3.0581,-3.1157,-3.1901,-3.2645,-3.3389,-3.388,-3.388,-3.4506,-3.4979,-3.4979,-3.5351,-3.5622,-3.5622,-3.5622,-3.5622,-3.5622,-3.5622,-3.5757,-3.6096,-3.6129,-3.6282,-3.6603,-3.662,-3.662,-3.662,-3.662,-3.684,-3.728,-3.728,-3.7483,-3.7905,-3.7905,-3.7905,-3.7905,-3.7905,-3.8261,-3.8853,-3.9109,-3.937,-3.9683,-3.9931,-4.0061,-4.0061,-4.0061,-3.9669,-3.9188,-3.9799,-3.9669,-3.9278,-3.9855,-3.994,-3.9772,-3.9772,-3.9772,-3.9698,-3.9331,-3.9239,-3.9148,-3.8799,-3.8707,-3.8707,-3.8707,-3.83,-3.7946,-3.8183,-3.8065,-3.798,-3.8183,-3.8496,-3.8627,-3.83,-3.8065,-3.7911,-3.7861,-3.7667,-3.7614,-3.7859,-3.7895,-3.7982,-3.8318,-3.83,-3.8382,-3.8658,-3.8707,-3.8707,-3.8707,-3.8707,-3.8707,-3.8707,-3.8707,-3.8707,-3.8707,-3.829,-3.7868,-3.7526,-3.7052,-3.6399,-3.5559,-3.4723,-3.4154,-3.3807,-3.3807,-3.3807,0.0,0.0,0.0,0.0,0.0,0.0,0.0,0.0,-2.9583,0.0,-3.0412,-3.1089,-3.163,-3.2493,-3.3119,-3.3119,-3.3728,-3.4218,-3.4218,-3.4861,-3.5334,-3.5334,-3.5504,-3.5622,-3.5622,-3.5622,-3.5622,-3.5622,-3.5622,-3.5622,-3.5622,-3.5622,-3.5622,-3.5622,-3.5622,-3.5893,-3.6485,-3.6485,-3.6772,-3.733,-3.733,-3.733,-3.733,-3.733,-3.733,-3.7347,-3.7736,-3.8138,-3.8508,-3.8508,-3.8508,-3.8508,-3.8508,-3.8123,-3.7742,-3.8632,-3.8594,-3.8173,-3.9073,-3.899,-3.8515,-3.8515,-3.8433,-3.835,-3.8465,-3.8515,-3.8546,-3.8658,-3.8707,-3.8658,-3.8546,-3.8117,-3.7755,-3.7859,-3.779,-3.779,-3.8065,-3.8415,-3.8546,-3.8013,-3.779,-3.7614,-3.7248,-3.719,-3.7323,-3.7685,-3.7632,-3.7791,-3.8433,-3.8267,-3.8267,-3.8676,-3.8707,-3.8707,-3.8707,-3.8707,-3.8707,-3.8707,-3.8505,-3.8395,-3.8395,-3.7629,-3.7088,-3.6867,-3.6271,-3.563,-3.4989,-3.4191,-3.3807,-3.3807,-3.3807,-3.3807,0.0,0.0,0.0,0.0,0.0,0.0,0.0,0.0,-2.8163,-2.889,-2.9634,-3.0176,-3.0226,-3.1376,-3.2341,-3.2341,-3.2983,-3.3457,-3.3457,-3.4083,-3.4556,-3.4556,-3.5182,-3.5622,-3.5622,-3.5622,-3.5622,-3.5622,-3.5622,-3.5622,-3.5622,-3.5622,-3.5622,-3.5622,-3.5622,-3.5639,-3.5673,-3.5673,-3.569,-3.574,-3.574,-3.574,-3.574,-3.574,-3.574,-3.5825,-3.728,-3.7905,-3.7936,-3.7936,-3.7936,-3.7936,-3.7936,-3.7513,-3.6915,-3.7395,-3.7463,-3.7319,-3.7827,-3.7982,-3.7946,-3.7946,-3.7649,-3.736,-3.7808,-3.7946,-3.8065,-3.8546,-3.8707,-3.8578,-3.8065,-3.7578,-3.736,-3.779,-3.7542,-3.7487,-3.8433,-3.8676,-3.8546,-3.8013,-3.7542,-3.721,-3.721,-3.719,-3.7228,-3.721,-3.8016,-3.8465,-3.798,-3.835,-3.8658,-3.8707,-3.8707,-3.8707,-3.8707,-3.8707,-3.8707,-3.8707,-3.7973,-3.7551,-3.7551,-3.6776,-3.5988,-3.5155,-3.5073,-3.5063,-3.4989,-3.4191,-3.3807,-3.3807,-3.3807,-3.3807,0.0,0.0,0.0,0.0,0.0,0.0,0.0,-2.5879,-2.7182,-2.7452,-2.8501,-2.9381,-2.9381,-3.0581,-3.1579,-3.1579,-3.2205,-3.2679,-3.2679,-3.3322,-3.3795,-3.3795,-3.4032,-3.4201,-3.4201,-3.4624,-3.4895,-3.4895,-3.5351,-3.5622,-3.5622,-3.5622,-3.5622,-3.5622,-3.5622,-3.5622,-3.5622,-3.5622,-3.5622,-3.5622,-3.5622,-3.5622,-3.5622,-3.5622,-3.5622,-3.5656,-3.6197,-3.6434,-3.6434,-3.6434,-3.6434,-3.6434,-3.6434,-3.6265,-3.6101,-3.7004,-3.7031,-3.6786,-3.7614,-3.7685,-3.7433,-3.7433,-3.7323,-3.7285,-3.7755,-3.7893,-3.8013,-3.8546,-3.8465,-3.815,-3.7946,-3.7323,-3.6724,-3.6904,-3.7058,-3.736,-3.8032,-3.8183,-3.8032,-3.7542,-3.702,-3.6563,-3.6249,-3.644,-3.6803,-3.7152,-3.7773,-3.8234,-3.8382,-3.8578,-3.8707,-3.8707,-3.8707,-3.8707,-3.8707,-3.8707,-3.8487,-3.7955,-3.7643,-3.7257,-3.6743,-3.5907,-3.5339,-3.5009,-3.4495,-3.4228,-3.4228,-3.3944,-3.3807,-3.3807,-3.3807,-3.3807,0.0,0.0,0.0,0.0,0.0,0.0,-2.2885,0.0,-2.5423,-2.6184,-2.7334,-2.8281,-2.8552,-2.9617,-3.0531,-3.0784,-3.1444,-3.1918,-3.1918,-3.256,-3.3034,-3.3034,-3.3254,-3.3406,-3.3406,-3.3846,-3.4134,-3.4134,-3.459,-3.4878,-3.4878,-3.4878,-3.4979,-3.5233,-3.525,-3.5368,-3.5622,-3.5622,-3.5622,-3.5622,-3.5622,-3.5622,-3.5622,-3.5622,-3.5622,-3.5622,-3.5622,-3.5622,-3.5622,-3.5622,-3.5622,-3.5622,-3.5622,-3.5622,-3.5694,-3.6603,-3.6724,-3.6539,-3.7379,-3.736,-3.6921,-3.6921,-3.6786,-3.6786,-3.7452,-3.7649,-3.7808,-3.8496,-3.83,-3.7859,-3.772,-3.7058,-3.6374,-3.6374,-3.6943,-3.7506,-3.7825,-3.7893,-3.7755,-3.7285,-3.6764,-3.6224,-3.5694,-3.6054,-3.6563,-3.7114,-3.7614,-3.8099,-3.8627,-3.8707,-3.8707,-3.8707,-3.8707,-3.8707,-3.8707,-3.845,-3.8065,-3.7544,-3.6964,-3.6413,-3.5899,-3.5055,-3.4614,-3.4614,-3.4082,-3.3807,-3.3807,-3.3807,-3.3807,-3.3807,-3.3807,-3.3807,0.0,0.0,0.0,0.0,0.0,0.0,-2.2395,0.0,-2.2868,-2.505,-2.6082,-2.6826,-2.7588,-2.8383,-2.9161,-2.9888,-3.0632,-3.114,-3.1157,-3.1765,-3.2222,-3.2239,-3.2899,-3.3339,-3.3339,-3.3355,-3.3372,-3.3372,-3.3389,-3.3406,-3.3406,-3.3406,-3.3728,-3.4438,-3.4472,-3.4844,-3.5571,-3.5605,-3.5622,-3.5622,-3.5622,-3.5622,-3.5622,-3.5622,-3.5622,-3.5622,-3.5622,-3.5622,-3.5622,-3.5622,-3.5622,-3.5622,-3.5622,-3.5622,-3.565,-3.6224,-3.6374,-3.6457,-3.6981,-3.6843,-3.6392,-3.6392,-3.6011,-3.581,-3.6865,-3.719,-3.7377,-3.8368,-3.8267,-3.7755,-3.7285,-3.6764,-3.6392,-3.6392,-3.7173,-3.7877,-3.7859,-3.7859,-3.7755,-3.7285,-3.6764,-3.6224,-3.5694,-3.6054,-3.6603,-3.7135,-3.7614,-3.8099,-3.8627,-3.8707,-3.8707,-3.8707,-3.8707,-3.8689,-3.867,-3.7936,-3.7489,-3.7422,-3.5899,-3.499,-3.4954,-3.4211,-3.3807,-3.3807,-3.3807,-3.3807,-3.3807,-3.3807,-3.3807,-3.3807,-3.3807,-3.3807,-1.234,0.0,0.0,0.0,0.0,0.0,0.0,0.0,-2.1116,-2.2868,-2.3799,-2.4526,-2.527,-2.6454,-2.7385,-2.7604,-2.8738,-2.9786,-3.0328,-3.0581,-3.0903,-3.1427,-3.1681,-3.1799,-3.1799,-3.2273,-3.2594,-3.2594,-3.3102,-3.3406,-3.3406,-3.3406,-3.3491,-3.3694,-3.4218,-3.459,-3.4793,-3.5351,-3.5622,-3.5622,-3.5622,-3.5622,-3.5622,-3.5622,-3.5622,-3.5622,-3.5622,-3.5622,-3.5622,-3.5622,-3.5622,-3.5622,-3.5622,-3.5622,-3.565,-3.6224,-3.6139,-3.5898,-3.6457,-3.6249,-3.581,-3.581,-3.5739,-3.5739,-3.6416,-3.6603,-3.6764,-3.7451,-3.721,-3.6706,-3.6165,-3.5924,-3.581,-3.581,-3.6626,-3.7285,-3.6904,-3.7135,-3.736,-3.7228,-3.644,-3.5898,-3.6139,-3.6603,-3.7135,-3.7649,-3.815,-3.8546,-3.8676,-3.8707,-3.8707,-3.8707,-3.8707,-3.8469,-3.7863,-3.7606,-3.6964,-3.5789,-3.5247,-3.4734,-3.4174,-3.3917,-3.3807,-3.3807,-3.3807,-3.3807,-3.3807,-3.3807,-3.3807,-3.3807,-3.3807,-3.3807,0.0,0.0,0.0,0.0,0.0,0.0,-1.8441,-1.9376,-2.0441,-2.1989,-2.2885,-2.3613,-2.434,-2.5186,-2.5862,-2.6184,-2.6996,-2.8061,-2.9448,-2.9634,-2.9786,-3.0226,-3.0548,-3.0734,-3.0734,-3.1393,-3.1833,-3.1833,-3.2239,-3.2476,-3.2476,-3.2476,-3.2611,-3.2933,-3.3355,-3.3728,-3.4032,-3.4472,-3.4844,-3.5148,-3.5148,-3.5318,-3.5622,-3.5622,-3.5622,-3.5622,-3.5622,-3.5622,-3.5622,-3.5622,-3.5622,-3.5622,-3.5622,-3.5622,-3.5667,-3.5941,-3.5854,-3.565,-3.5985,-3.5854,-3.5622,-3.5622,-3.5622,-3.5694,-3.6224,-3.6374,-3.6498,-3.7076,-3.6803,-3.6266,-3.5739,-3.5622,-3.5622,-3.5622,-3.6399,-3.7058,-3.6539,-3.6843,-3.7135,-3.6921,-3.6165,-3.5694,-3.6028,-3.6522,-3.7038,-3.7542,-3.8032,-3.8465,-3.8658,-3.8414,-3.8193,-3.8193,-3.79,-3.7514,-3.7037,-3.667,-3.6046,-3.5045,-3.4679,-3.4302,-3.3825,-3.3807,-3.3807,-3.3807,-3.3807,-3.3807,-3.3807,-3.3807,-3.3807,-3.3807,-3.3807,-3.3807,0.0,0.0,0.0,0.0,-1.7624,0.0,-1.9169,-1.9605,-2.0102,-2.1579,-2.2417,-2.3122,-2.3849,-2.415,-2.4458,-2.5135,-2.5372,-2.6268,-2.8535,-2.8856,-2.889,-2.9011,-2.9583,-2.9989,-2.9989,-3.0565,-3.0987,-3.1072,-3.114,-3.119,-3.119,-3.119,-3.1495,-3.2178,-3.2239,-3.2594,-3.3271,-3.3372,-3.3728,-3.437,-3.437,-3.4726,-3.5385,-3.5385,-3.5385,-3.5385,-3.5385,-3.5419,-3.5487,-3.5402,-3.547,-3.5622,-3.5622,-3.5622,-3.5622,-3.5622,-3.5622,-3.5622,-3.5622,-3.5622,-3.5622,-3.5622,-3.5622,-3.5694,-3.6182,-3.6291,-3.6416,-3.6865,-3.6684,-3.6224,-3.5739,-3.5622,-3.5622,-3.5622,-3.6357,-3.6943,-3.6416,-3.6724,-3.6925,-3.6312,-3.5873,-3.5667,-3.5783,-3.6165,-3.6684,-3.7303,-3.7666,-3.8038,-3.8499,-3.7845,-3.7349,-3.7349,-3.6725,-3.6266,-3.6156,-3.5459,-3.4954,-3.4862,-3.4211,-3.3807,-3.3807,-3.3807,-3.3807,-3.3807,-3.3807,-3.3807,-3.3807,-3.3807,-3.3807,-3.3807,-3.3807,-3.3807,-1.6123,-1.707,-1.7841,-1.6403,-1.6775,0.0,-1.6709,-1.7167,-1.8013,-1.8965,-1.9496,-1.9993,-2.0754,-2.1904,-2.2784,-2.2936,-2.3934,-2.549,-2.7723,-2.8044,-2.8281,-2.8907,-2.911,-2.9194,-2.9194,-2.933,-2.9668,-3.0277,-3.0869,-3.119,-3.119,-3.119,-3.1258,-3.1393,-3.1968,-3.2381,-3.2493,-3.3102,-3.3474,-3.3609,-3.3609,-3.3694,-3.3846,-3.3846,-3.3846,-3.3846,-3.3846,-3.4167,-3.4675,-3.4083,-3.4539,-3.5622,-3.5622,-3.5622,-3.5622,-3.5622,-3.5622,-3.5622,-3.5622,-3.5622,-3.5622,-3.5622,-3.5622,-3.5622,-3.5739,-3.5739,-3.5783,-3.5898,-3.5854,-3.5739,-3.5622,-3.5622,-3.5622,-3.5622,-3.6097,-3.6416,-3.5854,-3.6182,-3.6225,-3.5113,-3.5287,-3.5881,-3.6746,-3.6981,-3.736,-3.8285,-3.7948,-3.7607,-3.7716,-3.7019,-3.6523,-3.6523,-3.6376,-3.6028,-3.5302,-3.5082,-3.4715,-3.4082,-3.3899,-3.3807,-3.3807,-3.3807,-3.3807,-3.3807,-3.3807,-3.3807,-3.3807,-3.3807,-3.3807,-3.3807,-3.3807,-3.3807,-1.7515,-1.8067,-1.8516,-1.7584,0.0,0.0,0.0,-1.7925,-1.8647,-1.9058,-1.9427,-1.981,-2.0177,-2.1059,-2.187,-2.2243,-2.3224,-2.4458,-2.5947,-2.615,-2.6437,-2.7199,-2.7621,-2.7841,-2.7841,-2.8571,-2.9144,-2.9516,-2.9888,-3.0243,-3.0632,-3.0649,-3.0818,-3.119,-3.1546,-3.1732,-3.1732,-3.2121,-3.2493,-3.2848,-3.2848,-3.3034,-3.3406,-3.3406,-3.3406,-3.3406,-3.3406,-3.3609,-3.3931,-3.3558,-3.3846,-3.4556,-3.4912,-3.5284,-3.5622,-3.5622,-3.5622,-3.5571,-3.5182,-3.5301,-3.5554,-3.5182,-3.5318,-3.5622,-3.5622,-3.5622,-3.5537,-3.5165,-3.5334,-3.5453,-3.4709,-3.4793,-3.4962,-3.4607,-3.4898,-3.5145,-3.4635,-3.4898,-3.5025,-3.4143,-3.4252,-3.4746,-3.551,-3.6136,-3.6666,-3.7057,-3.6991,-3.689,-3.689,-3.6174,-3.5661,-3.5661,-3.5293,-3.489,-3.4449,-3.4412,-3.4229,-3.3825,-3.3807,-3.3807,-3.3807,-3.3807,-3.3807,-3.3807,-3.3807,-3.3807,-3.3807,-3.3807,-3.3807,-3.3807,-3.3807,-3.3807,0.0,0.0,-1.9086,-1.9104,0.0,-1.9313,0.0,0.0,0.0,-1.9608,-1.9892,-2.0168,0.0,-2.0484,-2.0982,-2.1614,-2.2365,-2.3097,-2.3765,-2.3863,-2.4222,-2.527,-2.5913,-2.6319,-2.6471,-2.7604,-2.845,-2.8738,-2.8619,-2.8941,-2.9837,-3.0023,-3.0378,-3.097,-3.1123,-3.119,-3.119,-3.119,-3.1495,-3.211,-3.211,-3.2391,-3.2983,-3.2983,-3.2983,-3.2983,-3.2983,-3.3068,-3.3186,-3.3034,-3.3152,-3.3457,-3.4066,-3.4658,-3.5199,-3.5199,-3.5199,-3.5115,-3.4489,-3.4675,-3.5098,-3.4489,-3.4793,-3.5368,-3.5233,-3.5301,-3.525,-3.4489,-3.4726,-3.4912,-3.3711,-3.3846,-3.4134,-3.3541,-3.3744,-3.3945,-3.3473,-3.3744,-3.3894,-3.3287,-3.3305,-3.3556,-3.4047,-3.4981,-3.5634,-3.5522,-3.5818,-3.6046,-3.6046,-3.5312,-3.4752,-3.4752,-3.4192,-3.3807,-3.3807,-3.3807,-3.3807,-3.3807,-3.3807,-3.3807,-3.3807,-3.3807,-3.3807,-3.3807,-3.3807,-3.3807,-3.3807,-3.3807,-3.3807,-3.3807,-3.3807,-3.3807,0.0,0.0,0.0,0.0,-1.9636,-2.0062,-1.8233,0.0,-1.912,-1.8517,0.0,-1.8994,-1.8994,0.0,0.0,-1.9674,-2.0411,-2.1066,-2.1505,-2.1576,-2.2338,-2.4388,-2.4709,-2.5,-2.5659,-2.5896,-2.6539,-2.7858,-2.7334,-2.7588,-2.9042,-2.9736,-3.0142,-3.0226,-3.0852,-3.119,-3.119,-3.119,-3.1241,-3.1309,-3.1309,-3.136,-3.1444,-3.1444,-3.1444,-3.1444,-3.1444,-3.1816,-3.2357,-3.1715,-3.2222,-3.3406,-3.3491,-3.3592,-3.366,-3.366,-3.366,-3.3643,-3.3558,-3.3592,-3.3643,-3.3558,-3.4032,-3.4489,-3.3863,-3.4117,-3.4472,-3.3728,-3.3592,-3.3609,-3.3457,-3.3457,-3.3508,-3.3423,-3.3448,-3.3473,-3.3406,-3.3448,-3.3287,-3.2568,-3.2949,-3.3556,-3.4086,-3.4618,-3.5082,-3.5515,-3.5326,-3.5137,-3.5137,-3.4449,-3.3935,-3.3935,-3.3844,-3.3807,-3.3807,-3.3807,-3.3807,-3.3807,-3.3807,-3.3807,-3.3807,-3.3807,-3.3807,-3.3807,-3.3807,-3.3807,-3.3807,-3.3807,-3.3807,-3.3807,-3.3807,-3.3807,0.0,0.0,-2.0483,-1.951,-2.0004,-2.0393,-1.9151,-1.92,-1.9409,-1.9122,0.0,0.0,0.0,0.0,0.0,0.0,-1.9423,-1.9787,-2.015,-2.0204,-2.0971,-2.2975,-2.3224,-2.368,-2.4847,-2.456,-2.4763,-2.5812,-2.5203,-2.5625,-2.7554,-2.796,-2.8738,-3.0074,-3.0395,-3.0768,-3.119,-3.119,-3.119,-3.119,-3.119,-3.119,-3.119,-3.119,-3.119,-3.119,-3.119,-3.1376,-3.163,-3.1326,-3.1562,-3.2121,-3.2121,-3.2645,-3.3406,-3.3406,-3.3406,-3.3339,-3.2899,-3.3034,-3.3406,-3.3406,-3.3609,-3.3795,-3.3491,-3.3626,-3.3711,-3.2966,-3.3068,-3.3203,-3.2357,-3.2442,-3.2645,-3.2222,-3.2121,-3.2121,-3.2121,-3.2121,-3.2036,-3.1715,-3.1901,-3.2264,-3.2738,-3.3528,-3.4225,-3.452,-3.4393,-3.4302,-3.4302,-3.4009,-3.3807,-3.3807,-3.3807,-3.3807,-3.3807,-3.3807,-3.3807,-3.3807,-3.3807,-3.3807,-3.3807,-3.3807,-3.3807,-3.3807,-3.3807,-3.3807,-3.3807,-3.3807,-3.3807,-3.3807,-3.3807,-3.3807,-1.9779,-2.0318,-2.0782,-1.9899,-2.0198,-2.0528,-1.9839,-1.9824,-1.9914,-1.972,-1.9647,0.0,0.0,0.0,-1.8822,0.0,0.0,-1.882,-1.8778,-1.8999,-1.9907,-2.1792,-2.2361,-2.2936,-2.3799,-2.3224,-2.3257,-2.4421,-2.3427,-2.3849,-2.6268,-2.659,-2.7554,-2.9431,-2.9888,-3.0362,-3.0886,-3.1089,-3.119,-3.119,-3.119,-3.119,-3.119,-3.119,-3.119,-3.119,-3.119,-3.119,-3.119,-3.119,-3.119,-3.119,-3.119,-3.185,-3.2797,-3.2797,-3.2797,-3.2713,-3.2171,-3.2341,-3.2797,-3.2797,-3.2933,-3.3068,-3.2865,-3.2933,-3.2933,-3.2188,-3.2374,-3.256,-3.1478,-3.1596,-3.185,-3.1326,-3.119,-3.119,-3.119,-3.119,-3.119,-3.119,-3.119,-3.1351,-3.1897,-3.2721,-3.3387,-3.3595,-3.3734,-3.3807,-3.3807,-3.3807,-3.3807,-3.3807,-3.3807,-3.3807,-3.3807,-3.3807,-3.3807,-3.3807,-3.3807,-3.3807,-3.3807,-3.3807,-3.3807,-3.3807,-3.3807,-3.3807,-3.3807,-3.3807,-3.3807,-3.3807,-3.3807,-3.3807,-2.0034,-2.0647,-2.1335,-2.0019,-2.0198,-2.0528,-1.9839,-2.0198,-2.0498,-1.9824,-2.0198,-2.0438,-1.9816,-1.9156,0.0,0.0,0.0,0.0,0.0,-1.7769,-1.9133,-2.0998,-2.2496,-2.3105,-2.2446,-2.1701,-2.2186,-2.4354,-2.2508,-2.2547,-2.549,-2.6302,-2.7063,-2.784,-2.933,-3.0125,-3.0142,-3.0835,-3.119,-3.119,-3.119,-3.119,-3.119,-3.119,-3.119,-3.119,-3.119,-3.119,-3.119,-3.119,-3.119,-3.119,-3.119,-3.1224,-3.1258,-3.1258,-3.1258,-3.1258,-3.1241,-3.1241,-3.1258,-3.1258,-3.1749,-3.2188,-3.1478,-3.1749,-3.2171,-3.1427,-3.1241,-3.1258,-3.1207,-3.1207,-3.1224,-3.1207,-3.119,-3.119,-3.119,-3.119,-3.119,-3.119,-3.119,-3.1449,-3.2316,-3.2502,-3.2684,-3.3154,-3.355,-3.3807,-3.3807,-3.3807,-3.3807,-3.3807,-3.3807,-3.3807,-3.3807,-3.3807,-3.3807,-3.3807,-3.3807,-3.3807,-3.3807,-3.3807,-3.3807,-3.3807,-3.3807,-3.3807,-3.3807,-3.3807,-3.3807,-3.3807,-3.3807,-3.3807,-2.1141,-2.1665,-2.2024,-2.0707,-2.0872,-2.1066,-1.9944,-2.0228,-2.0513,-1.9824,-2.0228,-2.0513,-1.9809,-1.9151,0.0,0.0,0.0,0.0,0.0,-1.7856,-1.8526,-1.892,-2.0264,0.0,-2.0795,-2.0542,-2.094,-2.2237,-2.1627,-2.2057,-2.4036,-2.4831,-2.5795,-2.7029,-2.8061,-2.9093,-3.0091,-3.0362,-3.0717,-3.119,-3.119,-3.119,-3.119,-3.119,-3.119,-3.119,-3.119,-3.119,-3.119,-3.119,-3.119,-3.119,-3.119,-3.119,-3.119,-3.119,-3.119,-3.119,-3.119,-3.119,-3.119,-3.119,-3.136,-3.1512,-3.1275,-3.136,-3.1512,-3.1258,-3.119,-3.119,-3.119,-3.119,-3.119,-3.119,-3.119,-3.119,-3.119,-3.119,-3.119,-3.119,-3.1411,-3.1806,-3.2384,-3.2745,-3.3105,-3.3522,-3.3707,-3.3807,-3.3807,-3.3807,-3.3807,-3.3807,-3.3807,-3.3807,-3.3807,-3.3807,-3.3807,-3.3807,-3.3807,-3.3807,-3.3807,-3.3807,-3.3807,-3.3807,-3.3807,-3.3807,-3.3807,-3.3807,-3.3807,-3.3788,-3.3542,-3.356,-2.1814,-2.2173,-2.2428,-2.1335,-2.138,-2.141,-2.0303,-2.0572,-2.0872,-2.0183,-2.0408,-2.0647,-2.0438,-1.966,-1.8972,0.0,0.0,0.0,0.0,-1.7336,-1.7597,-1.7474,0.0,0.0,0.0,-1.9529,-1.9891,-2.1465,-2.0839,-2.1262,-2.3291,-2.4086,-2.5082,-2.6268,-2.73,-2.8262,-2.9279,-2.9837,-3.0345,-3.0818,-3.1072,-3.119,-3.119,-3.119,-3.119,-3.119,-3.119,-3.119,-3.119,-3.119,-3.119,-3.119,-3.119,-3.119,-3.119,-3.119,-3.119,-3.119,-3.119,-3.119,-3.119,-3.119,-3.119,-3.119,-3.119,-3.119,-3.119,-3.119,-3.119,-3.119,-3.119,-3.119,-3.119,-3.119,-3.119,-3.119,-3.119,-3.119,-3.119,-3.119,-3.1528,-3.1951,-3.2417,-3.289,-3.3332,-3.3734,-3.3807,-3.3807,-3.3807,-3.3807,-3.3807,-3.3807,-3.3807,-3.3807,-3.3807,-3.3807,-3.3807,-3.3807,-3.3807,-3.3807,-3.3807,-3.3807,-3.3807,-3.3807,-3.3807,-3.3807,-3.3807,-3.3807,-3.3807,-3.3788,-3.3386,-3.3338]}]]